<?xml version="1.0" encoding="UTF-8"?>
<gpx
  version="1.1"
  creator="RunKeeper - http://www.runkeeper.com"
  xmlns:xsi="http://www.w3.org/2001/XMLSchema-instance"
  xmlns="http://www.topografix.com/GPX/1/1"
  xsi:schemaLocation="http://www.topografix.com/GPX/1/1 http://www.topografix.com/GPX/1/1/gpx.xsd"
  xmlns:gpxtpx="http://www.garmin.com/xmlschemas/TrackPointExtension/v1">
<trk>
  <name><![CDATA[Cycling 5/25/14 7:44 am]]></name>
  <time>2014-05-25T07:44:21Z</time>
<trkseg>
<trkpt lat="32.271662000" lon="34.877860000"><ele>43.0</ele><time>2014-05-25T07:44:21Z</time></trkpt>
<trkpt lat="32.271662000" lon="34.877860000"><ele>43.0</ele><time>2014-05-25T07:44:22Z</time></trkpt>
<trkpt lat="32.271756000" lon="34.877876000"><ele>43.0</ele><time>2014-05-25T07:44:29Z</time></trkpt>
<trkpt lat="32.271839000" lon="34.877844000"><ele>43.0</ele><time>2014-05-25T07:44:33Z</time></trkpt>
<trkpt lat="32.271870000" lon="34.877725000"><ele>43.0</ele><time>2014-05-25T07:44:37Z</time></trkpt>
<trkpt lat="32.271886000" lon="34.877617000"><ele>42.9</ele><time>2014-05-25T07:44:40Z</time></trkpt>
<trkpt lat="32.271906000" lon="34.877511000"><ele>42.8</ele><time>2014-05-25T07:44:43Z</time></trkpt>
<trkpt lat="32.271945000" lon="34.877424000"><ele>42.7</ele><time>2014-05-25T07:44:45Z</time></trkpt>
<trkpt lat="32.271991000" lon="34.877306000"><ele>42.6</ele><time>2014-05-25T07:44:48Z</time></trkpt>
<trkpt lat="32.271994000" lon="34.877207000"><ele>42.5</ele><time>2014-05-25T07:44:50Z</time></trkpt>
<trkpt lat="32.272009000" lon="34.877104000"><ele>42.5</ele><time>2014-05-25T07:44:52Z</time></trkpt>
<trkpt lat="32.272033000" lon="34.876978000"><ele>42.4</ele><time>2014-05-25T07:44:54Z</time></trkpt>
<trkpt lat="32.272065000" lon="34.876863000"><ele>41.9</ele><time>2014-05-25T07:44:56Z</time></trkpt>
<trkpt lat="32.272073000" lon="34.876750000"><ele>41.5</ele><time>2014-05-25T07:44:58Z</time></trkpt>
<trkpt lat="32.272095000" lon="34.876635000"><ele>41.0</ele><time>2014-05-25T07:45:00Z</time></trkpt>
<trkpt lat="32.272096000" lon="34.876522000"><ele>40.5</ele><time>2014-05-25T07:45:02Z</time></trkpt>
<trkpt lat="32.272125000" lon="34.876406000"><ele>40.2</ele><time>2014-05-25T07:45:04Z</time></trkpt>
<trkpt lat="32.272153000" lon="34.876282000"><ele>39.8</ele><time>2014-05-25T07:45:06Z</time></trkpt>
<trkpt lat="32.272177000" lon="34.876154000"><ele>39.5</ele><time>2014-05-25T07:45:08Z</time></trkpt>
<trkpt lat="32.272203000" lon="34.876033000"><ele>38.8</ele><time>2014-05-25T07:45:10Z</time></trkpt>
<trkpt lat="32.272238000" lon="34.875914000"><ele>38.2</ele><time>2014-05-25T07:45:12Z</time></trkpt>
<trkpt lat="32.272265000" lon="34.875786000"><ele>37.5</ele><time>2014-05-25T07:45:14Z</time></trkpt>
<trkpt lat="32.272282000" lon="34.875651000"><ele>36.9</ele><time>2014-05-25T07:45:16Z</time></trkpt>
<trkpt lat="32.272296000" lon="34.875516000"><ele>36.6</ele><time>2014-05-25T07:45:18Z</time></trkpt>
<trkpt lat="32.272327000" lon="34.875382000"><ele>36.4</ele><time>2014-05-25T07:45:20Z</time></trkpt>
<trkpt lat="32.272334000" lon="34.875263000"><ele>36.0</ele><time>2014-05-25T07:45:22Z</time></trkpt>
<trkpt lat="32.272337000" lon="34.875123000"><ele>35.6</ele><time>2014-05-25T07:45:24Z</time></trkpt>
<trkpt lat="32.272332000" lon="34.875011000"><ele>35.3</ele><time>2014-05-25T07:45:26Z</time></trkpt>
<trkpt lat="32.272365000" lon="34.874879000"><ele>34.9</ele><time>2014-05-25T07:45:29Z</time></trkpt>
<trkpt lat="32.272393000" lon="34.874743000"><ele>34.5</ele><time>2014-05-25T07:45:32Z</time></trkpt>
<trkpt lat="32.272427000" lon="34.874647000"><ele>34.5</ele><time>2014-05-25T07:45:35Z</time></trkpt>
<trkpt lat="32.272488000" lon="34.874568000"><ele>34.4</ele><time>2014-05-25T07:45:38Z</time></trkpt>
<trkpt lat="32.272562000" lon="34.874483000"><ele>34.6</ele><time>2014-05-25T07:45:41Z</time></trkpt>
<trkpt lat="32.272631000" lon="34.874379000"><ele>34.9</ele><time>2014-05-25T07:45:44Z</time></trkpt>
<trkpt lat="32.272702000" lon="34.874274000"><ele>35.2</ele><time>2014-05-25T07:45:47Z</time></trkpt>
<trkpt lat="32.272778000" lon="34.874182000"><ele>35.4</ele><time>2014-05-25T07:45:50Z</time></trkpt>
<trkpt lat="32.272861000" lon="34.874093000"><ele>35.6</ele><time>2014-05-25T07:45:53Z</time></trkpt>
<trkpt lat="32.272957000" lon="34.874018000"><ele>35.9</ele><time>2014-05-25T07:45:56Z</time></trkpt>
<trkpt lat="32.273043000" lon="34.873947000"><ele>36.2</ele><time>2014-05-25T07:45:59Z</time></trkpt>
<trkpt lat="32.273081000" lon="34.873840000"><ele>36.5</ele><time>2014-05-25T07:46:02Z</time></trkpt>
<trkpt lat="32.273071000" lon="34.873734000"><ele>36.7</ele><time>2014-05-25T07:46:05Z</time></trkpt>
<trkpt lat="32.273141000" lon="34.873651000"><ele>37.0</ele><time>2014-05-25T07:46:10Z</time></trkpt>
<trkpt lat="32.273193000" lon="34.873560000"><ele>37.1</ele><time>2014-05-25T07:46:13Z</time></trkpt>
<trkpt lat="32.273151000" lon="34.873471000"><ele>36.8</ele><time>2014-05-25T07:46:16Z</time></trkpt>
<trkpt lat="32.273097000" lon="34.873386000"><ele>36.5</ele><time>2014-05-25T07:46:19Z</time></trkpt>
<trkpt lat="32.273056000" lon="34.873281000"><ele>36.3</ele><time>2014-05-25T07:46:23Z</time></trkpt>
<trkpt lat="32.272963000" lon="34.873182000"><ele>36.1</ele><time>2014-05-25T07:46:24Z</time></trkpt>
<trkpt lat="32.272886000" lon="34.873094000"><ele>35.9</ele><time>2014-05-25T07:46:26Z</time></trkpt>
<trkpt lat="32.272814000" lon="34.873017000"><ele>35.7</ele><time>2014-05-25T07:46:28Z</time></trkpt>
<trkpt lat="32.272727000" lon="34.872922000"><ele>35.5</ele><time>2014-05-25T07:46:30Z</time></trkpt>
<trkpt lat="32.272630000" lon="34.872826000"><ele>35.4</ele><time>2014-05-25T07:46:32Z</time></trkpt>
<trkpt lat="32.272545000" lon="34.872730000"><ele>35.0</ele><time>2014-05-25T07:46:34Z</time></trkpt>
<trkpt lat="32.272453000" lon="34.872623000"><ele>34.6</ele><time>2014-05-25T07:46:36Z</time></trkpt>
<trkpt lat="32.272359000" lon="34.872521000"><ele>34.5</ele><time>2014-05-25T07:46:38Z</time></trkpt>
<trkpt lat="32.272262000" lon="34.872411000"><ele>34.3</ele><time>2014-05-25T07:46:40Z</time></trkpt>
<trkpt lat="32.272170000" lon="34.872314000"><ele>34.1</ele><time>2014-05-25T07:46:42Z</time></trkpt>
<trkpt lat="32.272078000" lon="34.872204000"><ele>33.9</ele><time>2014-05-25T07:46:44Z</time></trkpt>
<trkpt lat="32.271965000" lon="34.872108000"><ele>33.7</ele><time>2014-05-25T07:46:46Z</time></trkpt>
<trkpt lat="32.271901000" lon="34.872047000"><ele>33.3</ele><time>2014-05-25T07:46:47Z</time></trkpt>
<trkpt lat="32.271822000" lon="34.871900000"><ele>32.8</ele><time>2014-05-25T07:46:49Z</time></trkpt>
<trkpt lat="32.271724000" lon="34.871778000"><ele>32.4</ele><time>2014-05-25T07:46:51Z</time></trkpt>
<trkpt lat="32.271628000" lon="34.871642000"><ele>31.9</ele><time>2014-05-25T07:46:53Z</time></trkpt>
<trkpt lat="32.271527000" lon="34.871497000"><ele>31.6</ele><time>2014-05-25T07:46:55Z</time></trkpt>
<trkpt lat="32.271433000" lon="34.871360000"><ele>31.4</ele><time>2014-05-25T07:46:57Z</time></trkpt>
<trkpt lat="32.271349000" lon="34.871212000"><ele>30.9</ele><time>2014-05-25T07:46:59Z</time></trkpt>
<trkpt lat="32.271264000" lon="34.871064000"><ele>30.5</ele><time>2014-05-25T07:47:01Z</time></trkpt>
<trkpt lat="32.271174000" lon="34.870920000"><ele>30.0</ele><time>2014-05-25T07:47:03Z</time></trkpt>
<trkpt lat="32.271090000" lon="34.870778000"><ele>29.5</ele><time>2014-05-25T07:47:05Z</time></trkpt>
<trkpt lat="32.271007000" lon="34.870637000"><ele>29.1</ele><time>2014-05-25T07:47:07Z</time></trkpt>
<trkpt lat="32.270926000" lon="34.870486000"><ele>28.9</ele><time>2014-05-25T07:47:09Z</time></trkpt>
<trkpt lat="32.270841000" lon="34.870340000"><ele>28.6</ele><time>2014-05-25T07:47:11Z</time></trkpt>
<trkpt lat="32.270758000" lon="34.870191000"><ele>28.4</ele><time>2014-05-25T07:47:13Z</time></trkpt>
<trkpt lat="32.270685000" lon="34.870041000"><ele>28.1</ele><time>2014-05-25T07:47:15Z</time></trkpt>
<trkpt lat="32.270602000" lon="34.869885000"><ele>27.8</ele><time>2014-05-25T07:47:17Z</time></trkpt>
<trkpt lat="32.270520000" lon="34.869726000"><ele>27.5</ele><time>2014-05-25T07:47:19Z</time></trkpt>
<trkpt lat="32.270446000" lon="34.869579000"><ele>27.5</ele><time>2014-05-25T07:47:21Z</time></trkpt>
<trkpt lat="32.270367000" lon="34.869423000"><ele>27.4</ele><time>2014-05-25T07:47:23Z</time></trkpt>
<trkpt lat="32.270286000" lon="34.869277000"><ele>27.3</ele><time>2014-05-25T07:47:25Z</time></trkpt>
<trkpt lat="32.270229000" lon="34.869118000"><ele>27.2</ele><time>2014-05-25T07:47:27Z</time></trkpt>
<trkpt lat="32.270152000" lon="34.868961000"><ele>27.1</ele><time>2014-05-25T07:47:29Z</time></trkpt>
<trkpt lat="32.270081000" lon="34.868818000"><ele>27.0</ele><time>2014-05-25T07:47:31Z</time></trkpt>
<trkpt lat="32.269999000" lon="34.868672000"><ele>27.0</ele><time>2014-05-25T07:47:33Z</time></trkpt>
<trkpt lat="32.269929000" lon="34.868530000"><ele>26.8</ele><time>2014-05-25T07:47:35Z</time></trkpt>
<trkpt lat="32.269861000" lon="34.868376000"><ele>26.6</ele><time>2014-05-25T07:47:37Z</time></trkpt>
<trkpt lat="32.269799000" lon="34.868237000"><ele>26.5</ele><time>2014-05-25T07:47:39Z</time></trkpt>
<trkpt lat="32.269729000" lon="34.868095000"><ele>26.3</ele><time>2014-05-25T07:47:41Z</time></trkpt>
<trkpt lat="32.269655000" lon="34.867949000"><ele>26.1</ele><time>2014-05-25T07:47:43Z</time></trkpt>
<trkpt lat="32.269580000" lon="34.867802000"><ele>25.8</ele><time>2014-05-25T07:47:45Z</time></trkpt>
<trkpt lat="32.269507000" lon="34.867656000"><ele>25.5</ele><time>2014-05-25T07:47:47Z</time></trkpt>
<trkpt lat="32.269437000" lon="34.867507000"><ele>25.3</ele><time>2014-05-25T07:47:49Z</time></trkpt>
<trkpt lat="32.269372000" lon="34.867364000"><ele>25.0</ele><time>2014-05-25T07:47:51Z</time></trkpt>
<trkpt lat="32.269299000" lon="34.867217000"><ele>24.7</ele><time>2014-05-25T07:47:53Z</time></trkpt>
<trkpt lat="32.269231000" lon="34.867070000"><ele>24.5</ele><time>2014-05-25T07:47:55Z</time></trkpt>
<trkpt lat="32.269154000" lon="34.866927000"><ele>24.2</ele><time>2014-05-25T07:47:57Z</time></trkpt>
<trkpt lat="32.269085000" lon="34.866783000"><ele>24.1</ele><time>2014-05-25T07:47:59Z</time></trkpt>
<trkpt lat="32.269029000" lon="34.866634000"><ele>24.0</ele><time>2014-05-25T07:48:01Z</time></trkpt>
<trkpt lat="32.268949000" lon="34.866487000"><ele>23.9</ele><time>2014-05-25T07:48:03Z</time></trkpt>
<trkpt lat="32.268883000" lon="34.866341000"><ele>23.8</ele><time>2014-05-25T07:48:05Z</time></trkpt>
<trkpt lat="32.268808000" lon="34.866196000"><ele>23.8</ele><time>2014-05-25T07:48:07Z</time></trkpt>
<trkpt lat="32.268716000" lon="34.866057000"><ele>23.7</ele><time>2014-05-25T07:48:09Z</time></trkpt>
<trkpt lat="32.268652000" lon="34.865907000"><ele>23.6</ele><time>2014-05-25T07:48:11Z</time></trkpt>
<trkpt lat="32.268581000" lon="34.865764000"><ele>23.5</ele><time>2014-05-25T07:48:13Z</time></trkpt>
<trkpt lat="32.268519000" lon="34.865634000"><ele>23.5</ele><time>2014-05-25T07:48:15Z</time></trkpt>
<trkpt lat="32.268459000" lon="34.865488000"><ele>23.4</ele><time>2014-05-25T07:48:17Z</time></trkpt>
<trkpt lat="32.268384000" lon="34.865353000"><ele>23.2</ele><time>2014-05-25T07:48:19Z</time></trkpt>
<trkpt lat="32.268311000" lon="34.865223000"><ele>22.8</ele><time>2014-05-25T07:48:21Z</time></trkpt>
<trkpt lat="32.268210000" lon="34.865101000"><ele>22.5</ele><time>2014-05-25T07:48:23Z</time></trkpt>
<trkpt lat="32.268095000" lon="34.865034000"><ele>22.1</ele><time>2014-05-25T07:48:25Z</time></trkpt>
<trkpt lat="32.267963000" lon="34.865004000"><ele>21.7</ele><time>2014-05-25T07:48:27Z</time></trkpt>
<trkpt lat="32.267826000" lon="34.864973000"><ele>21.4</ele><time>2014-05-25T07:48:29Z</time></trkpt>
<trkpt lat="32.267694000" lon="34.864922000"><ele>21.0</ele><time>2014-05-25T07:48:31Z</time></trkpt>
<trkpt lat="32.267567000" lon="34.864865000"><ele>20.6</ele><time>2014-05-25T07:48:33Z</time></trkpt>
<trkpt lat="32.267441000" lon="34.864801000"><ele>20.3</ele><time>2014-05-25T07:48:35Z</time></trkpt>
<trkpt lat="32.267318000" lon="34.864735000"><ele>19.9</ele><time>2014-05-25T07:48:37Z</time></trkpt>
<trkpt lat="32.267185000" lon="34.864668000"><ele>19.5</ele><time>2014-05-25T07:48:39Z</time></trkpt>
<trkpt lat="32.267045000" lon="34.864595000"><ele>19.5</ele><time>2014-05-25T07:48:41Z</time></trkpt>
<trkpt lat="32.266892000" lon="34.864523000"><ele>19.4</ele><time>2014-05-25T07:48:43Z</time></trkpt>
<trkpt lat="32.266810000" lon="34.864474000"><ele>19.3</ele><time>2014-05-25T07:48:44Z</time></trkpt>
<trkpt lat="32.266735000" lon="34.864428000"><ele>19.2</ele><time>2014-05-25T07:48:45Z</time></trkpt>
<trkpt lat="32.266658000" lon="34.864388000"><ele>18.9</ele><time>2014-05-25T07:48:46Z</time></trkpt>
<trkpt lat="32.266586000" lon="34.864336000"><ele>18.6</ele><time>2014-05-25T07:48:47Z</time></trkpt>
<trkpt lat="32.266500000" lon="34.864287000"><ele>18.5</ele><time>2014-05-25T07:48:48Z</time></trkpt>
<trkpt lat="32.266422000" lon="34.864244000"><ele>18.3</ele><time>2014-05-25T07:48:49Z</time></trkpt>
<trkpt lat="32.266332000" lon="34.864192000"><ele>18.1</ele><time>2014-05-25T07:48:50Z</time></trkpt>
<trkpt lat="32.266250000" lon="34.864145000"><ele>17.9</ele><time>2014-05-25T07:48:51Z</time></trkpt>
<trkpt lat="32.266170000" lon="34.864090000"><ele>17.7</ele><time>2014-05-25T07:48:52Z</time></trkpt>
<trkpt lat="32.266093000" lon="34.864043000"><ele>17.2</ele><time>2014-05-25T07:48:53Z</time></trkpt>
<trkpt lat="32.266015000" lon="34.863993000"><ele>16.6</ele><time>2014-05-25T07:48:54Z</time></trkpt>
<trkpt lat="32.265937000" lon="34.863955000"><ele>16.1</ele><time>2014-05-25T07:48:55Z</time></trkpt>
<trkpt lat="32.265860000" lon="34.863906000"><ele>15.5</ele><time>2014-05-25T07:48:56Z</time></trkpt>
<trkpt lat="32.265781000" lon="34.863860000"><ele>15.2</ele><time>2014-05-25T07:48:57Z</time></trkpt>
<trkpt lat="32.265721000" lon="34.863794000"><ele>14.8</ele><time>2014-05-25T07:48:58Z</time></trkpt>
<trkpt lat="32.265677000" lon="34.863713000"><ele>14.5</ele><time>2014-05-25T07:48:59Z</time></trkpt>
<trkpt lat="32.265668000" lon="34.863617000"><ele>13.9</ele><time>2014-05-25T07:49:00Z</time></trkpt>
<trkpt lat="32.265694000" lon="34.863526000"><ele>13.4</ele><time>2014-05-25T07:49:01Z</time></trkpt>
<trkpt lat="32.265765000" lon="34.863373000"><ele>12.8</ele><time>2014-05-25T07:49:03Z</time></trkpt>
<trkpt lat="32.265829000" lon="34.863204000"><ele>12.6</ele><time>2014-05-25T07:49:05Z</time></trkpt>
<trkpt lat="32.265859000" lon="34.863030000"><ele>12.8</ele><time>2014-05-25T07:49:07Z</time></trkpt>
<trkpt lat="32.265778000" lon="34.862895000"><ele>13.0</ele><time>2014-05-25T07:49:09Z</time></trkpt>
<trkpt lat="32.265643000" lon="34.862829000"><ele>13.2</ele><time>2014-05-25T07:49:11Z</time></trkpt>
<trkpt lat="32.265497000" lon="34.862788000"><ele>13.4</ele><time>2014-05-25T07:49:13Z</time></trkpt>
<trkpt lat="32.265350000" lon="34.862755000"><ele>13.5</ele><time>2014-05-25T07:49:15Z</time></trkpt>
<trkpt lat="32.265197000" lon="34.862730000"><ele>13.8</ele><time>2014-05-25T07:49:17Z</time></trkpt>
<trkpt lat="32.265062000" lon="34.862683000"><ele>14.1</ele><time>2014-05-25T07:49:19Z</time></trkpt>
<trkpt lat="32.264926000" lon="34.862649000"><ele>14.5</ele><time>2014-05-25T07:49:21Z</time></trkpt>
<trkpt lat="32.264788000" lon="34.862622000"><ele>15.0</ele><time>2014-05-25T07:49:23Z</time></trkpt>
<trkpt lat="32.264648000" lon="34.862600000"><ele>15.5</ele><time>2014-05-25T07:49:25Z</time></trkpt>
<trkpt lat="32.264523000" lon="34.862567000"><ele>15.5</ele><time>2014-05-25T07:49:27Z</time></trkpt>
<trkpt lat="32.264395000" lon="34.862549000"><ele>15.5</ele><time>2014-05-25T07:49:29Z</time></trkpt>
<trkpt lat="32.264267000" lon="34.862532000"><ele>15.4</ele><time>2014-05-25T07:49:31Z</time></trkpt>
<trkpt lat="32.264140000" lon="34.862481000"><ele>15.3</ele><time>2014-05-25T07:49:33Z</time></trkpt>
<trkpt lat="32.264010000" lon="34.862445000"><ele>15.2</ele><time>2014-05-25T07:49:35Z</time></trkpt>
<trkpt lat="32.263885000" lon="34.862427000"><ele>15.1</ele><time>2014-05-25T07:49:37Z</time></trkpt>
<trkpt lat="32.263764000" lon="34.862390000"><ele>14.9</ele><time>2014-05-25T07:49:39Z</time></trkpt>
<trkpt lat="32.263643000" lon="34.862355000"><ele>14.7</ele><time>2014-05-25T07:49:41Z</time></trkpt>
<trkpt lat="32.263531000" lon="34.862321000"><ele>14.8</ele><time>2014-05-25T07:49:43Z</time></trkpt>
<trkpt lat="32.263418000" lon="34.862299000"><ele>14.7</ele><time>2014-05-25T07:49:45Z</time></trkpt>
<trkpt lat="32.263287000" lon="34.862275000"><ele>14.6</ele><time>2014-05-25T07:49:47Z</time></trkpt>
<trkpt lat="32.263176000" lon="34.862263000"><ele>14.5</ele><time>2014-05-25T07:49:49Z</time></trkpt>
<trkpt lat="32.263065000" lon="34.862244000"><ele>14.6</ele><time>2014-05-25T07:49:51Z</time></trkpt>
<trkpt lat="32.262946000" lon="34.862211000"><ele>14.7</ele><time>2014-05-25T07:49:53Z</time></trkpt>
<trkpt lat="32.262842000" lon="34.862187000"><ele>14.8</ele><time>2014-05-25T07:49:55Z</time></trkpt>
<trkpt lat="32.262741000" lon="34.862159000"><ele>14.9</ele><time>2014-05-25T07:49:57Z</time></trkpt>
<trkpt lat="32.262629000" lon="34.862134000"><ele>15.0</ele><time>2014-05-25T07:49:59Z</time></trkpt>
<trkpt lat="32.262520000" lon="34.862112000"><ele>15.4</ele><time>2014-05-25T07:50:01Z</time></trkpt>
<trkpt lat="32.262420000" lon="34.862089000"><ele>15.7</ele><time>2014-05-25T07:50:03Z</time></trkpt>
<trkpt lat="32.262313000" lon="34.862036000"><ele>15.8</ele><time>2014-05-25T07:50:05Z</time></trkpt>
<trkpt lat="32.262239000" lon="34.861999000"><ele>16.1</ele><time>2014-05-25T07:50:07Z</time></trkpt>
<trkpt lat="32.262141000" lon="34.861992000"><ele>16.4</ele><time>2014-05-25T07:50:09Z</time></trkpt>
<trkpt lat="32.262028000" lon="34.861987000"><ele>16.6</ele><time>2014-05-25T07:50:11Z</time></trkpt>
<trkpt lat="32.261935000" lon="34.861992000"><ele>16.9</ele><time>2014-05-25T07:50:13Z</time></trkpt>
<trkpt lat="32.261835000" lon="34.861990000"><ele>17.2</ele><time>2014-05-25T07:50:15Z</time></trkpt>
<trkpt lat="32.261741000" lon="34.861977000"><ele>17.5</ele><time>2014-05-25T07:50:17Z</time></trkpt>
<trkpt lat="32.261646000" lon="34.861949000"><ele>17.7</ele><time>2014-05-25T07:50:19Z</time></trkpt>
<trkpt lat="32.261551000" lon="34.861923000"><ele>18.0</ele><time>2014-05-25T07:50:21Z</time></trkpt>
<trkpt lat="32.261456000" lon="34.861908000"><ele>18.0</ele><time>2014-05-25T07:50:23Z</time></trkpt>
<trkpt lat="32.261365000" lon="34.861870000"><ele>18.0</ele><time>2014-05-25T07:50:25Z</time></trkpt>
<trkpt lat="32.261267000" lon="34.861848000"><ele>18.0</ele><time>2014-05-25T07:50:27Z</time></trkpt>
<trkpt lat="32.261179000" lon="34.861823000"><ele>18.0</ele><time>2014-05-25T07:50:29Z</time></trkpt>
<trkpt lat="32.261082000" lon="34.861822000"><ele>18.0</ele><time>2014-05-25T07:50:31Z</time></trkpt>
<trkpt lat="32.260997000" lon="34.861822000"><ele>18.0</ele><time>2014-05-25T07:50:33Z</time></trkpt>
<trkpt lat="32.260911000" lon="34.861803000"><ele>18.0</ele><time>2014-05-25T07:50:35Z</time></trkpt>
<trkpt lat="32.260806000" lon="34.861774000"><ele>18.2</ele><time>2014-05-25T07:50:37Z</time></trkpt>
<trkpt lat="32.260717000" lon="34.861764000"><ele>18.4</ele><time>2014-05-25T07:50:39Z</time></trkpt>
<trkpt lat="32.260626000" lon="34.861763000"><ele>18.5</ele><time>2014-05-25T07:50:41Z</time></trkpt>
<trkpt lat="32.260526000" lon="34.861720000"><ele>18.7</ele><time>2014-05-25T07:50:43Z</time></trkpt>
<trkpt lat="32.260425000" lon="34.861698000"><ele>18.9</ele><time>2014-05-25T07:50:45Z</time></trkpt>
<trkpt lat="32.260325000" lon="34.861690000"><ele>19.1</ele><time>2014-05-25T07:50:47Z</time></trkpt>
<trkpt lat="32.260233000" lon="34.861670000"><ele>19.3</ele><time>2014-05-25T07:50:49Z</time></trkpt>
<trkpt lat="32.260137000" lon="34.861651000"><ele>19.5</ele><time>2014-05-25T07:50:51Z</time></trkpt>
<trkpt lat="32.260042000" lon="34.861631000"><ele>19.5</ele><time>2014-05-25T07:50:53Z</time></trkpt>
<trkpt lat="32.259948000" lon="34.861612000"><ele>19.6</ele><time>2014-05-25T07:50:55Z</time></trkpt>
<trkpt lat="32.259847000" lon="34.861585000"><ele>19.7</ele><time>2014-05-25T07:50:57Z</time></trkpt>
<trkpt lat="32.259758000" lon="34.861574000"><ele>19.6</ele><time>2014-05-25T07:50:59Z</time></trkpt>
<trkpt lat="32.259670000" lon="34.861555000"><ele>19.5</ele><time>2014-05-25T07:51:01Z</time></trkpt>
<trkpt lat="32.259566000" lon="34.861542000"><ele>19.5</ele><time>2014-05-25T07:51:03Z</time></trkpt>
<trkpt lat="32.259479000" lon="34.861515000"><ele>19.4</ele><time>2014-05-25T07:51:05Z</time></trkpt>
<trkpt lat="32.259389000" lon="34.861506000"><ele>19.3</ele><time>2014-05-25T07:51:07Z</time></trkpt>
<trkpt lat="32.259295000" lon="34.861495000"><ele>19.2</ele><time>2014-05-25T07:51:09Z</time></trkpt>
<trkpt lat="32.259209000" lon="34.861479000"><ele>19.3</ele><time>2014-05-25T07:51:11Z</time></trkpt>
<trkpt lat="32.259126000" lon="34.861457000"><ele>19.4</ele><time>2014-05-25T07:51:13Z</time></trkpt>
<trkpt lat="32.259040000" lon="34.861441000"><ele>19.5</ele><time>2014-05-25T07:51:15Z</time></trkpt>
<trkpt lat="32.258948000" lon="34.861417000"><ele>19.7</ele><time>2014-05-25T07:51:17Z</time></trkpt>
<trkpt lat="32.258823000" lon="34.861414000"><ele>19.9</ele><time>2014-05-25T07:51:20Z</time></trkpt>
<trkpt lat="32.258711000" lon="34.861379000"><ele>20.1</ele><time>2014-05-25T07:51:23Z</time></trkpt>
<trkpt lat="32.258625000" lon="34.861365000"><ele>20.3</ele><time>2014-05-25T07:51:25Z</time></trkpt>
<trkpt lat="32.258542000" lon="34.861341000"><ele>20.5</ele><time>2014-05-25T07:51:27Z</time></trkpt>
<trkpt lat="32.258457000" lon="34.861314000"><ele>20.6</ele><time>2014-05-25T07:51:29Z</time></trkpt>
<trkpt lat="32.258373000" lon="34.861293000"><ele>21.0</ele><time>2014-05-25T07:51:31Z</time></trkpt>
<trkpt lat="32.258291000" lon="34.861276000"><ele>21.4</ele><time>2014-05-25T07:51:33Z</time></trkpt>
<trkpt lat="32.258208000" lon="34.861264000"><ele>21.5</ele><time>2014-05-25T07:51:35Z</time></trkpt>
<trkpt lat="32.258088000" lon="34.861241000"><ele>21.7</ele><time>2014-05-25T07:51:38Z</time></trkpt>
<trkpt lat="32.258003000" lon="34.861224000"><ele>21.9</ele><time>2014-05-25T07:51:40Z</time></trkpt>
<trkpt lat="32.257920000" lon="34.861206000"><ele>22.1</ele><time>2014-05-25T07:51:42Z</time></trkpt>
<trkpt lat="32.257838000" lon="34.861187000"><ele>22.3</ele><time>2014-05-25T07:51:44Z</time></trkpt>
<trkpt lat="32.257756000" lon="34.861170000"><ele>22.5</ele><time>2014-05-25T07:51:46Z</time></trkpt>
<trkpt lat="32.257675000" lon="34.861155000"><ele>22.5</ele><time>2014-05-25T07:51:48Z</time></trkpt>
<trkpt lat="32.257594000" lon="34.861142000"><ele>22.6</ele><time>2014-05-25T07:51:50Z</time></trkpt>
<trkpt lat="32.257477000" lon="34.861155000"><ele>22.7</ele><time>2014-05-25T07:51:53Z</time></trkpt>
<trkpt lat="32.257383000" lon="34.861242000"><ele>22.6</ele><time>2014-05-25T07:51:56Z</time></trkpt>
<trkpt lat="32.257377000" lon="34.861353000"><ele>22.5</ele><time>2014-05-25T07:51:58Z</time></trkpt>
<trkpt lat="32.257379000" lon="34.861455000"><ele>22.5</ele><time>2014-05-25T07:52:00Z</time></trkpt>
<trkpt lat="32.257385000" lon="34.861557000"><ele>22.4</ele><time>2014-05-25T07:52:02Z</time></trkpt>
<trkpt lat="32.257388000" lon="34.861661000"><ele>22.5</ele><time>2014-05-25T07:52:04Z</time></trkpt>
<trkpt lat="32.257389000" lon="34.861766000"><ele>22.7</ele><time>2014-05-25T07:52:06Z</time></trkpt>
<trkpt lat="32.257388000" lon="34.861871000"><ele>22.9</ele><time>2014-05-25T07:52:08Z</time></trkpt>
<trkpt lat="32.257384000" lon="34.861976000"><ele>23.1</ele><time>2014-05-25T07:52:10Z</time></trkpt>
<trkpt lat="32.257386000" lon="34.862099000"><ele>23.4</ele><time>2014-05-25T07:52:12Z</time></trkpt>
<trkpt lat="32.257369000" lon="34.862209000"><ele>23.6</ele><time>2014-05-25T07:52:14Z</time></trkpt>
<trkpt lat="32.257359000" lon="34.862317000"><ele>23.9</ele><time>2014-05-25T07:52:16Z</time></trkpt>
<trkpt lat="32.257357000" lon="34.862432000"><ele>24.2</ele><time>2014-05-25T07:52:18Z</time></trkpt>
<trkpt lat="32.257355000" lon="34.862537000"><ele>24.5</ele><time>2014-05-25T07:52:20Z</time></trkpt>
<trkpt lat="32.257355000" lon="34.862635000"><ele>24.7</ele><time>2014-05-25T07:52:22Z</time></trkpt>
<trkpt lat="32.257349000" lon="34.862748000"><ele>25.0</ele><time>2014-05-25T07:52:24Z</time></trkpt>
<trkpt lat="32.257340000" lon="34.862856000"><ele>25.0</ele><time>2014-05-25T07:52:26Z</time></trkpt>
<trkpt lat="32.257330000" lon="34.862974000"><ele>25.0</ele><time>2014-05-25T07:52:28Z</time></trkpt>
<trkpt lat="32.257327000" lon="34.863094000"><ele>25.0</ele><time>2014-05-25T07:52:30Z</time></trkpt>
<trkpt lat="32.257321000" lon="34.863212000"><ele>25.0</ele><time>2014-05-25T07:52:32Z</time></trkpt>
<trkpt lat="32.257322000" lon="34.863326000"><ele>25.0</ele><time>2014-05-25T07:52:34Z</time></trkpt>
<trkpt lat="32.257316000" lon="34.863442000"><ele>25.0</ele><time>2014-05-25T07:52:36Z</time></trkpt>
<trkpt lat="32.257306000" lon="34.863560000"><ele>25.0</ele><time>2014-05-25T07:52:38Z</time></trkpt>
<trkpt lat="32.257310000" lon="34.863689000"><ele>25.0</ele><time>2014-05-25T07:52:40Z</time></trkpt>
<trkpt lat="32.257310000" lon="34.863826000"><ele>25.0</ele><time>2014-05-25T07:52:42Z</time></trkpt>
<trkpt lat="32.257302000" lon="34.863965000"><ele>25.3</ele><time>2014-05-25T07:52:44Z</time></trkpt>
<trkpt lat="32.257298000" lon="34.864109000"><ele>25.5</ele><time>2014-05-25T07:52:46Z</time></trkpt>
<trkpt lat="32.257280000" lon="34.864247000"><ele>25.6</ele><time>2014-05-25T07:52:48Z</time></trkpt>
<trkpt lat="32.257270000" lon="34.864378000"><ele>25.7</ele><time>2014-05-25T07:52:50Z</time></trkpt>
<trkpt lat="32.257270000" lon="34.864528000"><ele>25.8</ele><time>2014-05-25T07:52:52Z</time></trkpt>
<trkpt lat="32.257265000" lon="34.864661000"><ele>25.9</ele><time>2014-05-25T07:52:54Z</time></trkpt>
<trkpt lat="32.257206000" lon="34.864738000"><ele>26.0</ele><time>2014-05-25T07:52:56Z</time></trkpt>
<trkpt lat="32.257111000" lon="34.864760000"><ele>26.1</ele><time>2014-05-25T07:52:58Z</time></trkpt>
<trkpt lat="32.257001000" lon="34.864758000"><ele>26.2</ele><time>2014-05-25T07:53:00Z</time></trkpt>
<trkpt lat="32.256878000" lon="34.864754000"><ele>25.9</ele><time>2014-05-25T07:53:02Z</time></trkpt>
<trkpt lat="32.256758000" lon="34.864752000"><ele>25.6</ele><time>2014-05-25T07:53:04Z</time></trkpt>
<trkpt lat="32.256635000" lon="34.864764000"><ele>25.1</ele><time>2014-05-25T07:53:06Z</time></trkpt>
<trkpt lat="32.256512000" lon="34.864760000"><ele>24.5</ele><time>2014-05-25T07:53:08Z</time></trkpt>
<trkpt lat="32.256395000" lon="34.864756000"><ele>24.2</ele><time>2014-05-25T07:53:10Z</time></trkpt>
<trkpt lat="32.256277000" lon="34.864746000"><ele>23.8</ele><time>2014-05-25T07:53:12Z</time></trkpt>
<trkpt lat="32.256172000" lon="34.864706000"><ele>23.5</ele><time>2014-05-25T07:53:14Z</time></trkpt>
<trkpt lat="32.256080000" lon="34.864643000"><ele>23.1</ele><time>2014-05-25T07:53:16Z</time></trkpt>
<trkpt lat="32.255970000" lon="34.864623000"><ele>22.7</ele><time>2014-05-25T07:53:18Z</time></trkpt>
<trkpt lat="32.255880000" lon="34.864572000"><ele>22.4</ele><time>2014-05-25T07:53:20Z</time></trkpt>
<trkpt lat="32.255850000" lon="34.864478000"><ele>22.0</ele><time>2014-05-25T07:53:22Z</time></trkpt>
<trkpt lat="32.255849000" lon="34.864379000"><ele>22.0</ele><time>2014-05-25T07:53:24Z</time></trkpt>
<trkpt lat="32.255859000" lon="34.864282000"><ele>21.9</ele><time>2014-05-25T07:53:26Z</time></trkpt>
<trkpt lat="32.255868000" lon="34.864172000"><ele>21.8</ele><time>2014-05-25T07:53:28Z</time></trkpt>
<trkpt lat="32.255873000" lon="34.864057000"><ele>21.7</ele><time>2014-05-25T07:53:30Z</time></trkpt>
<trkpt lat="32.255894000" lon="34.863955000"><ele>21.6</ele><time>2014-05-25T07:53:32Z</time></trkpt>
<trkpt lat="32.255916000" lon="34.863848000"><ele>21.5</ele><time>2014-05-25T07:53:34Z</time></trkpt>
<trkpt lat="32.255922000" lon="34.863736000"><ele>21.5</ele><time>2014-05-25T07:53:36Z</time></trkpt>
<trkpt lat="32.255923000" lon="34.863632000"><ele>21.4</ele><time>2014-05-25T07:53:38Z</time></trkpt>
<trkpt lat="32.255925000" lon="34.863530000"><ele>21.1</ele><time>2014-05-25T07:53:40Z</time></trkpt>
<trkpt lat="32.255929000" lon="34.863424000"><ele>20.8</ele><time>2014-05-25T07:53:42Z</time></trkpt>
<trkpt lat="32.255943000" lon="34.863277000"><ele>20.5</ele><time>2014-05-25T07:53:45Z</time></trkpt>
<trkpt lat="32.255956000" lon="34.863179000"><ele>20.3</ele><time>2014-05-25T07:53:47Z</time></trkpt>
<trkpt lat="32.255960000" lon="34.863038000"><ele>20.1</ele><time>2014-05-25T07:53:50Z</time></trkpt>
<trkpt lat="32.255970000" lon="34.862899000"><ele>19.9</ele><time>2014-05-25T07:53:53Z</time></trkpt>
<trkpt lat="32.255981000" lon="34.862804000"><ele>19.7</ele><time>2014-05-25T07:53:55Z</time></trkpt>
<trkpt lat="32.256000000" lon="34.862708000"><ele>19.5</ele><time>2014-05-25T07:53:57Z</time></trkpt>
<trkpt lat="32.256011000" lon="34.862609000"><ele>19.4</ele><time>2014-05-25T07:53:59Z</time></trkpt>
<trkpt lat="32.256021000" lon="34.862509000"><ele>19.2</ele><time>2014-05-25T07:54:01Z</time></trkpt>
<trkpt lat="32.256024000" lon="34.862395000"><ele>19.0</ele><time>2014-05-25T07:54:03Z</time></trkpt>
<trkpt lat="32.256048000" lon="34.862279000"><ele>19.0</ele><time>2014-05-25T07:54:05Z</time></trkpt>
<trkpt lat="32.256056000" lon="34.862168000"><ele>19.0</ele><time>2014-05-25T07:54:07Z</time></trkpt>
<trkpt lat="32.256080000" lon="34.862074000"><ele>19.0</ele><time>2014-05-25T07:54:09Z</time></trkpt>
<trkpt lat="32.256090000" lon="34.861947000"><ele>18.9</ele><time>2014-05-25T07:54:11Z</time></trkpt>
<trkpt lat="32.256097000" lon="34.861837000"><ele>18.8</ele><time>2014-05-25T07:54:13Z</time></trkpt>
<trkpt lat="32.256109000" lon="34.861705000"><ele>18.7</ele><time>2014-05-25T07:54:15Z</time></trkpt>
<trkpt lat="32.256124000" lon="34.861574000"><ele>18.6</ele><time>2014-05-25T07:54:17Z</time></trkpt>
<trkpt lat="32.256139000" lon="34.861437000"><ele>18.5</ele><time>2014-05-25T07:54:19Z</time></trkpt>
<trkpt lat="32.256154000" lon="34.861300000"><ele>18.5</ele><time>2014-05-25T07:54:21Z</time></trkpt>
<trkpt lat="32.256173000" lon="34.861156000"><ele>18.3</ele><time>2014-05-25T07:54:23Z</time></trkpt>
<trkpt lat="32.256193000" lon="34.861014000"><ele>18.1</ele><time>2014-05-25T07:54:25Z</time></trkpt>
<trkpt lat="32.256208000" lon="34.860891000"><ele>18.2</ele><time>2014-05-25T07:54:27Z</time></trkpt>
<trkpt lat="32.256223000" lon="34.860748000"><ele>18.3</ele><time>2014-05-25T07:54:29Z</time></trkpt>
<trkpt lat="32.256243000" lon="34.860591000"><ele>18.4</ele><time>2014-05-25T07:54:31Z</time></trkpt>
<trkpt lat="32.256286000" lon="34.860439000"><ele>18.5</ele><time>2014-05-25T07:54:33Z</time></trkpt>
<trkpt lat="32.256303000" lon="34.860288000"><ele>18.4</ele><time>2014-05-25T07:54:35Z</time></trkpt>
<trkpt lat="32.256334000" lon="34.860145000"><ele>18.2</ele><time>2014-05-25T07:54:37Z</time></trkpt>
<trkpt lat="32.256347000" lon="34.859981000"><ele>18.0</ele><time>2014-05-25T07:54:39Z</time></trkpt>
<trkpt lat="32.256369000" lon="34.859807000"><ele>17.8</ele><time>2014-05-25T07:54:41Z</time></trkpt>
<trkpt lat="32.256407000" lon="34.859634000"><ele>17.6</ele><time>2014-05-25T07:54:43Z</time></trkpt>
<trkpt lat="32.256424000" lon="34.859539000"><ele>17.5</ele><time>2014-05-25T07:54:44Z</time></trkpt>
<trkpt lat="32.256454000" lon="34.859356000"><ele>17.3</ele><time>2014-05-25T07:54:46Z</time></trkpt>
<trkpt lat="32.256472000" lon="34.859262000"><ele>16.7</ele><time>2014-05-25T07:54:47Z</time></trkpt>
<trkpt lat="32.256481000" lon="34.859163000"><ele>16.5</ele><time>2014-05-25T07:54:48Z</time></trkpt>
<trkpt lat="32.256492000" lon="34.859065000"><ele>16.2</ele><time>2014-05-25T07:54:49Z</time></trkpt>
<trkpt lat="32.256523000" lon="34.858881000"><ele>15.9</ele><time>2014-05-25T07:54:51Z</time></trkpt>
<trkpt lat="32.256493000" lon="34.858722000"><ele>16.0</ele><time>2014-05-25T07:54:53Z</time></trkpt>
<trkpt lat="32.256395000" lon="34.858601000"><ele>16.1</ele><time>2014-05-25T07:54:55Z</time></trkpt>
<trkpt lat="32.256271000" lon="34.858528000"><ele>16.2</ele><time>2014-05-25T07:54:57Z</time></trkpt>
<trkpt lat="32.256187000" lon="34.858486000"><ele>16.3</ele><time>2014-05-25T07:54:58Z</time></trkpt>
<trkpt lat="32.256045000" lon="34.858426000"><ele>16.1</ele><time>2014-05-25T07:55:00Z</time></trkpt>
<trkpt lat="32.255910000" lon="34.858384000"><ele>15.9</ele><time>2014-05-25T07:55:02Z</time></trkpt>
<trkpt lat="32.255760000" lon="34.858326000"><ele>15.9</ele><time>2014-05-25T07:55:04Z</time></trkpt>
<trkpt lat="32.255628000" lon="34.858274000"><ele>15.9</ele><time>2014-05-25T07:55:06Z</time></trkpt>
<trkpt lat="32.255511000" lon="34.858218000"><ele>15.6</ele><time>2014-05-25T07:55:08Z</time></trkpt>
<trkpt lat="32.255405000" lon="34.858179000"><ele>15.4</ele><time>2014-05-25T07:55:10Z</time></trkpt>
<trkpt lat="32.255297000" lon="34.858142000"><ele>15.1</ele><time>2014-05-25T07:55:12Z</time></trkpt>
<trkpt lat="32.255194000" lon="34.858113000"><ele>14.8</ele><time>2014-05-25T07:55:14Z</time></trkpt>
<trkpt lat="32.255101000" lon="34.858075000"><ele>15.0</ele><time>2014-05-25T07:55:16Z</time></trkpt>
<trkpt lat="32.255015000" lon="34.858044000"><ele>15.1</ele><time>2014-05-25T07:55:18Z</time></trkpt>
<trkpt lat="32.254921000" lon="34.858018000"><ele>15.2</ele><time>2014-05-25T07:55:20Z</time></trkpt>
<trkpt lat="32.254833000" lon="34.857978000"><ele>15.5</ele><time>2014-05-25T07:55:22Z</time></trkpt>
<trkpt lat="32.254747000" lon="34.857953000"><ele>15.9</ele><time>2014-05-25T07:55:24Z</time></trkpt>
<trkpt lat="32.254665000" lon="34.857930000"><ele>16.3</ele><time>2014-05-25T07:55:26Z</time></trkpt>
<trkpt lat="32.254554000" lon="34.857899000"><ele>16.6</ele><time>2014-05-25T07:55:29Z</time></trkpt>
<trkpt lat="32.254448000" lon="34.857855000"><ele>17.0</ele><time>2014-05-25T07:55:32Z</time></trkpt>
<trkpt lat="32.254338000" lon="34.857813000"><ele>17.4</ele><time>2014-05-25T07:55:35Z</time></trkpt>
<trkpt lat="32.254223000" lon="34.857781000"><ele>17.7</ele><time>2014-05-25T07:55:38Z</time></trkpt>
<trkpt lat="32.254108000" lon="34.857745000"><ele>18.1</ele><time>2014-05-25T07:55:41Z</time></trkpt>
<trkpt lat="32.254029000" lon="34.857719000"><ele>18.0</ele><time>2014-05-25T07:55:43Z</time></trkpt>
<trkpt lat="32.253923000" lon="34.857668000"><ele>18.1</ele><time>2014-05-25T07:55:46Z</time></trkpt>
<trkpt lat="32.253881000" lon="34.857552000"><ele>18.2</ele><time>2014-05-25T07:55:49Z</time></trkpt>
<trkpt lat="32.253914000" lon="34.857464000"><ele>18.3</ele><time>2014-05-25T07:55:51Z</time></trkpt>
<trkpt lat="32.253952000" lon="34.857337000"><ele>18.4</ele><time>2014-05-25T07:55:54Z</time></trkpt>
<trkpt lat="32.253993000" lon="34.857206000"><ele>18.5</ele><time>2014-05-25T07:55:57Z</time></trkpt>
<trkpt lat="32.254042000" lon="34.857074000"><ele>18.1</ele><time>2014-05-25T07:56:00Z</time></trkpt>
<trkpt lat="32.254066000" lon="34.856965000"><ele>17.7</ele><time>2014-05-25T07:56:02Z</time></trkpt>
<trkpt lat="32.254024000" lon="34.856870000"><ele>17.4</ele><time>2014-05-25T07:56:05Z</time></trkpt>
<trkpt lat="32.253923000" lon="34.856863000"><ele>17.0</ele><time>2014-05-25T07:56:08Z</time></trkpt>
<trkpt lat="32.253847000" lon="34.856900000"><ele>16.6</ele><time>2014-05-25T07:56:10Z</time></trkpt>
<trkpt lat="32.253769000" lon="34.856946000"><ele>16.3</ele><time>2014-05-25T07:56:12Z</time></trkpt>
<trkpt lat="32.253676000" lon="34.856982000"><ele>15.8</ele><time>2014-05-25T07:56:14Z</time></trkpt>
<trkpt lat="32.253566000" lon="34.856975000"><ele>15.4</ele><time>2014-05-25T07:56:17Z</time></trkpt>
<trkpt lat="32.253465000" lon="34.856914000"><ele>14.9</ele><time>2014-05-25T07:56:20Z</time></trkpt>
<trkpt lat="32.253381000" lon="34.856869000"><ele>14.2</ele><time>2014-05-25T07:56:22Z</time></trkpt>
<trkpt lat="32.253303000" lon="34.856834000"><ele>13.5</ele><time>2014-05-25T07:56:24Z</time></trkpt>
<trkpt lat="32.253214000" lon="34.856809000"><ele>13.2</ele><time>2014-05-25T07:56:26Z</time></trkpt>
<trkpt lat="32.253116000" lon="34.856786000"><ele>12.9</ele><time>2014-05-25T07:56:28Z</time></trkpt>
<trkpt lat="32.252995000" lon="34.856754000"><ele>12.6</ele><time>2014-05-25T07:56:30Z</time></trkpt>
<trkpt lat="32.252869000" lon="34.856730000"><ele>12.4</ele><time>2014-05-25T07:56:32Z</time></trkpt>
<trkpt lat="32.252734000" lon="34.856690000"><ele>12.0</ele><time>2014-05-25T07:56:34Z</time></trkpt>
<trkpt lat="32.252598000" lon="34.856630000"><ele>11.6</ele><time>2014-05-25T07:56:36Z</time></trkpt>
<trkpt lat="32.252477000" lon="34.856575000"><ele>11.0</ele><time>2014-05-25T07:56:38Z</time></trkpt>
<trkpt lat="32.252343000" lon="34.856497000"><ele>10.4</ele><time>2014-05-25T07:56:40Z</time></trkpt>
<trkpt lat="32.252209000" lon="34.856445000"><ele>9.7</ele><time>2014-05-25T07:56:42Z</time></trkpt>
<trkpt lat="32.252098000" lon="34.856384000"><ele>9.4</ele><time>2014-05-25T07:56:44Z</time></trkpt>
<trkpt lat="32.251975000" lon="34.856336000"><ele>9.0</ele><time>2014-05-25T07:56:46Z</time></trkpt>
<trkpt lat="32.251849000" lon="34.856291000"><ele>8.6</ele><time>2014-05-25T07:56:48Z</time></trkpt>
<trkpt lat="32.251729000" lon="34.856243000"><ele>8.3</ele><time>2014-05-25T07:56:50Z</time></trkpt>
<trkpt lat="32.251618000" lon="34.856217000"><ele>7.9</ele><time>2014-05-25T07:56:52Z</time></trkpt>
<trkpt lat="32.251508000" lon="34.856177000"><ele>7.5</ele><time>2014-05-25T07:56:54Z</time></trkpt>
<trkpt lat="32.251411000" lon="34.856129000"><ele>7.3</ele><time>2014-05-25T07:56:56Z</time></trkpt>
<trkpt lat="32.251324000" lon="34.856090000"><ele>7.0</ele><time>2014-05-25T07:56:58Z</time></trkpt>
<trkpt lat="32.251242000" lon="34.856055000"><ele>7.0</ele><time>2014-05-25T07:57:00Z</time></trkpt>
<trkpt lat="32.251139000" lon="34.856013000"><ele>7.0</ele><time>2014-05-25T07:57:03Z</time></trkpt>
<trkpt lat="32.251061000" lon="34.855986000"><ele>7.0</ele><time>2014-05-25T07:57:09Z</time></trkpt>
<trkpt lat="32.250974000" lon="34.855955000"><ele>7.0</ele><time>2014-05-25T07:57:16Z</time></trkpt>
<trkpt lat="32.250885000" lon="34.855918000"><ele>7.0</ele><time>2014-05-25T07:57:23Z</time></trkpt>
<trkpt lat="32.250800000" lon="34.855884000"><ele>7.1</ele><time>2014-05-25T07:57:29Z</time></trkpt>
<trkpt lat="32.250715000" lon="34.855835000"><ele>7.2</ele><time>2014-05-25T07:57:35Z</time></trkpt>
<trkpt lat="32.250627000" lon="34.855818000"><ele>7.3</ele><time>2014-05-25T07:57:41Z</time></trkpt>
<trkpt lat="32.250527000" lon="34.855772000"><ele>7.4</ele><time>2014-05-25T07:57:54Z</time></trkpt>
<trkpt lat="32.250441000" lon="34.855739000"><ele>7.5</ele><time>2014-05-25T07:57:57Z</time></trkpt>
<trkpt lat="32.250352000" lon="34.855704000"><ele>7.5</ele><time>2014-05-25T07:58:01Z</time></trkpt>
<trkpt lat="32.250290000" lon="34.855640000"><ele>7.6</ele><time>2014-05-25T07:58:05Z</time></trkpt>
<trkpt lat="32.250210000" lon="34.855572000"><ele>7.7</ele><time>2014-05-25T07:58:09Z</time></trkpt>
<trkpt lat="32.250101000" lon="34.855550000"><ele>7.8</ele><time>2014-05-25T07:58:12Z</time></trkpt>
<trkpt lat="32.250007000" lon="34.855542000"><ele>7.8</ele><time>2014-05-25T07:58:15Z</time></trkpt>
<trkpt lat="32.249903000" lon="34.855511000"><ele>7.8</ele><time>2014-05-25T07:58:19Z</time></trkpt>
<trkpt lat="32.249808000" lon="34.855473000"><ele>7.7</ele><time>2014-05-25T07:58:22Z</time></trkpt>
<trkpt lat="32.249700000" lon="34.855416000"><ele>7.6</ele><time>2014-05-25T07:58:25Z</time></trkpt>
<trkpt lat="32.249628000" lon="34.855367000"><ele>7.5</ele><time>2014-05-25T07:58:27Z</time></trkpt>
<trkpt lat="32.249552000" lon="34.855320000"><ele>7.5</ele><time>2014-05-25T07:58:29Z</time></trkpt>
<trkpt lat="32.249476000" lon="34.855281000"><ele>7.4</ele><time>2014-05-25T07:58:31Z</time></trkpt>
<trkpt lat="32.249400000" lon="34.855245000"><ele>7.3</ele><time>2014-05-25T07:58:33Z</time></trkpt>
<trkpt lat="32.249295000" lon="34.855185000"><ele>7.2</ele><time>2014-05-25T07:58:36Z</time></trkpt>
<trkpt lat="32.249193000" lon="34.855132000"><ele>7.1</ele><time>2014-05-25T07:58:39Z</time></trkpt>
<trkpt lat="32.249088000" lon="34.855092000"><ele>7.0</ele><time>2014-05-25T07:58:42Z</time></trkpt>
<trkpt lat="32.248973000" lon="34.855057000"><ele>7.0</ele><time>2014-05-25T07:58:45Z</time></trkpt>
<trkpt lat="32.248891000" lon="34.855050000"><ele>7.0</ele><time>2014-05-25T07:58:47Z</time></trkpt>
<trkpt lat="32.248808000" lon="34.855047000"><ele>7.0</ele><time>2014-05-25T07:58:49Z</time></trkpt>
<trkpt lat="32.248725000" lon="34.855046000"><ele>7.0</ele><time>2014-05-25T07:58:51Z</time></trkpt>
<trkpt lat="32.248643000" lon="34.855038000"><ele>7.0</ele><time>2014-05-25T07:58:53Z</time></trkpt>
<trkpt lat="32.248526000" lon="34.855014000"><ele>7.0</ele><time>2014-05-25T07:58:56Z</time></trkpt>
<trkpt lat="32.248413000" lon="34.854975000"><ele>6.9</ele><time>2014-05-25T07:58:59Z</time></trkpt>
<trkpt lat="32.248302000" lon="34.854934000"><ele>6.8</ele><time>2014-05-25T07:59:02Z</time></trkpt>
<trkpt lat="32.248223000" lon="34.854906000"><ele>6.7</ele><time>2014-05-25T07:59:04Z</time></trkpt>
<trkpt lat="32.248129000" lon="34.854872000"><ele>6.6</ele><time>2014-05-25T07:59:06Z</time></trkpt>
<trkpt lat="32.248051000" lon="34.854841000"><ele>6.5</ele><time>2014-05-25T07:59:08Z</time></trkpt>
<trkpt lat="32.247946000" lon="34.854790000"><ele>6.3</ele><time>2014-05-25T07:59:11Z</time></trkpt>
<trkpt lat="32.247837000" lon="34.854735000"><ele>6.1</ele><time>2014-05-25T07:59:14Z</time></trkpt>
<trkpt lat="32.247755000" lon="34.854702000"><ele>5.9</ele><time>2014-05-25T07:59:16Z</time></trkpt>
<trkpt lat="32.247675000" lon="34.854672000"><ele>5.7</ele><time>2014-05-25T07:59:18Z</time></trkpt>
<trkpt lat="32.247597000" lon="34.854643000"><ele>5.5</ele><time>2014-05-25T07:59:20Z</time></trkpt>
<trkpt lat="32.247483000" lon="34.854608000"><ele>5.5</ele><time>2014-05-25T07:59:23Z</time></trkpt>
<trkpt lat="32.247366000" lon="34.854574000"><ele>5.5</ele><time>2014-05-25T07:59:26Z</time></trkpt>
<trkpt lat="32.247288000" lon="34.854541000"><ele>5.5</ele><time>2014-05-25T07:59:28Z</time></trkpt>
<trkpt lat="32.247208000" lon="34.854507000"><ele>5.5</ele><time>2014-05-25T07:59:30Z</time></trkpt>
<trkpt lat="32.247130000" lon="34.854472000"><ele>5.5</ele><time>2014-05-25T07:59:32Z</time></trkpt>
<trkpt lat="32.247020000" lon="34.854418000"><ele>5.5</ele><time>2014-05-25T07:59:35Z</time></trkpt>
<trkpt lat="32.246936000" lon="34.854385000"><ele>5.6</ele><time>2014-05-25T07:59:37Z</time></trkpt>
<trkpt lat="32.246847000" lon="34.854358000"><ele>5.7</ele><time>2014-05-25T07:59:39Z</time></trkpt>
<trkpt lat="32.246762000" lon="34.854321000"><ele>5.8</ele><time>2014-05-25T07:59:41Z</time></trkpt>
<trkpt lat="32.246683000" lon="34.854287000"><ele>5.9</ele><time>2014-05-25T07:59:43Z</time></trkpt>
<trkpt lat="32.246575000" lon="34.854245000"><ele>6.0</ele><time>2014-05-25T07:59:46Z</time></trkpt>
<trkpt lat="32.246467000" lon="34.854196000"><ele>6.0</ele><time>2014-05-25T07:59:49Z</time></trkpt>
<trkpt lat="32.246388000" lon="34.854162000"><ele>6.0</ele><time>2014-05-25T07:59:51Z</time></trkpt>
<trkpt lat="32.246301000" lon="34.854134000"><ele>6.0</ele><time>2014-05-25T07:59:53Z</time></trkpt>
<trkpt lat="32.246196000" lon="34.854102000"><ele>6.0</ele><time>2014-05-25T07:59:55Z</time></trkpt>
<trkpt lat="32.246117000" lon="34.854064000"><ele>6.0</ele><time>2014-05-25T07:59:57Z</time></trkpt>
<trkpt lat="32.246035000" lon="34.854024000"><ele>6.0</ele><time>2014-05-25T07:59:59Z</time></trkpt>
<trkpt lat="32.245947000" lon="34.853987000"><ele>6.0</ele><time>2014-05-25T08:00:01Z</time></trkpt>
<trkpt lat="32.245861000" lon="34.853958000"><ele>5.9</ele><time>2014-05-25T08:00:03Z</time></trkpt>
<trkpt lat="32.245780000" lon="34.853930000"><ele>5.8</ele><time>2014-05-25T08:00:05Z</time></trkpt>
<trkpt lat="32.245701000" lon="34.853900000"><ele>5.7</ele><time>2014-05-25T08:00:07Z</time></trkpt>
<trkpt lat="32.245578000" lon="34.853858000"><ele>5.6</ele><time>2014-05-25T08:00:10Z</time></trkpt>
<trkpt lat="32.245494000" lon="34.853835000"><ele>5.5</ele><time>2014-05-25T08:00:12Z</time></trkpt>
<trkpt lat="32.245410000" lon="34.853812000"><ele>5.5</ele><time>2014-05-25T08:00:14Z</time></trkpt>
<trkpt lat="32.245331000" lon="34.853780000"><ele>5.4</ele><time>2014-05-25T08:00:16Z</time></trkpt>
<trkpt lat="32.245255000" lon="34.853744000"><ele>5.3</ele><time>2014-05-25T08:00:18Z</time></trkpt>
<trkpt lat="32.245177000" lon="34.853709000"><ele>5.2</ele><time>2014-05-25T08:00:20Z</time></trkpt>
<trkpt lat="32.245098000" lon="34.853673000"><ele>5.1</ele><time>2014-05-25T08:00:22Z</time></trkpt>
<trkpt lat="32.245017000" lon="34.853635000"><ele>5.0</ele><time>2014-05-25T08:00:24Z</time></trkpt>
<trkpt lat="32.244929000" lon="34.853579000"><ele>5.0</ele><time>2014-05-25T08:00:26Z</time></trkpt>
<trkpt lat="32.244854000" lon="34.853526000"><ele>5.0</ele><time>2014-05-25T08:00:28Z</time></trkpt>
<trkpt lat="32.244772000" lon="34.853491000"><ele>5.0</ele><time>2014-05-25T08:00:30Z</time></trkpt>
<trkpt lat="32.244692000" lon="34.853467000"><ele>5.0</ele><time>2014-05-25T08:00:32Z</time></trkpt>
<trkpt lat="32.244605000" lon="34.853438000"><ele>5.0</ele><time>2014-05-25T08:00:34Z</time></trkpt>
<trkpt lat="32.244491000" lon="34.853406000"><ele>5.0</ele><time>2014-05-25T08:00:37Z</time></trkpt>
<trkpt lat="32.244411000" lon="34.853378000"><ele>5.0</ele><time>2014-05-25T08:00:39Z</time></trkpt>
<trkpt lat="32.244331000" lon="34.853338000"><ele>5.0</ele><time>2014-05-25T08:00:41Z</time></trkpt>
<trkpt lat="32.244249000" lon="34.853302000"><ele>5.0</ele><time>2014-05-25T08:00:43Z</time></trkpt>
<trkpt lat="32.244158000" lon="34.853268000"><ele>5.0</ele><time>2014-05-25T08:00:45Z</time></trkpt>
<trkpt lat="32.244053000" lon="34.853239000"><ele>5.0</ele><time>2014-05-25T08:00:47Z</time></trkpt>
<trkpt lat="32.243970000" lon="34.853200000"><ele>5.0</ele><time>2014-05-25T08:00:49Z</time></trkpt>
<trkpt lat="32.243883000" lon="34.853166000"><ele>5.1</ele><time>2014-05-25T08:00:51Z</time></trkpt>
<trkpt lat="32.243796000" lon="34.853125000"><ele>5.2</ele><time>2014-05-25T08:00:53Z</time></trkpt>
<trkpt lat="32.243705000" lon="34.853091000"><ele>5.3</ele><time>2014-05-25T08:00:55Z</time></trkpt>
<trkpt lat="32.243612000" lon="34.853056000"><ele>5.4</ele><time>2014-05-25T08:00:57Z</time></trkpt>
<trkpt lat="32.243524000" lon="34.853032000"><ele>5.5</ele><time>2014-05-25T08:00:59Z</time></trkpt>
<trkpt lat="32.243437000" lon="34.853002000"><ele>5.5</ele><time>2014-05-25T08:01:01Z</time></trkpt>
<trkpt lat="32.243350000" lon="34.852968000"><ele>5.7</ele><time>2014-05-25T08:01:03Z</time></trkpt>
<trkpt lat="32.243265000" lon="34.852938000"><ele>5.9</ele><time>2014-05-25T08:01:05Z</time></trkpt>
<trkpt lat="32.243176000" lon="34.852905000"><ele>6.1</ele><time>2014-05-25T08:01:07Z</time></trkpt>
<trkpt lat="32.243065000" lon="34.852857000"><ele>6.3</ele><time>2014-05-25T08:01:10Z</time></trkpt>
<trkpt lat="32.242988000" lon="34.852825000"><ele>6.5</ele><time>2014-05-25T08:01:12Z</time></trkpt>
<trkpt lat="32.242899000" lon="34.852800000"><ele>6.5</ele><time>2014-05-25T08:01:14Z</time></trkpt>
<trkpt lat="32.242817000" lon="34.852762000"><ele>6.6</ele><time>2014-05-25T08:01:16Z</time></trkpt>
<trkpt lat="32.242736000" lon="34.852729000"><ele>6.7</ele><time>2014-05-25T08:01:18Z</time></trkpt>
<trkpt lat="32.242651000" lon="34.852705000"><ele>6.8</ele><time>2014-05-25T08:01:20Z</time></trkpt>
<trkpt lat="32.242572000" lon="34.852673000"><ele>7.2</ele><time>2014-05-25T08:01:22Z</time></trkpt>
<trkpt lat="32.242495000" lon="34.852637000"><ele>7.5</ele><time>2014-05-25T08:01:24Z</time></trkpt>
<trkpt lat="32.242388000" lon="34.852577000"><ele>7.8</ele><time>2014-05-25T08:01:27Z</time></trkpt>
<trkpt lat="32.242286000" lon="34.852527000"><ele>8.1</ele><time>2014-05-25T08:01:30Z</time></trkpt>
<trkpt lat="32.242184000" lon="34.852484000"><ele>8.4</ele><time>2014-05-25T08:01:33Z</time></trkpt>
<trkpt lat="32.242087000" lon="34.852450000"><ele>8.6</ele><time>2014-05-25T08:01:36Z</time></trkpt>
<trkpt lat="32.241989000" lon="34.852421000"><ele>8.9</ele><time>2014-05-25T08:01:39Z</time></trkpt>
<trkpt lat="32.241889000" lon="34.852408000"><ele>9.0</ele><time>2014-05-25T08:01:42Z</time></trkpt>
<trkpt lat="32.241790000" lon="34.852377000"><ele>9.3</ele><time>2014-05-25T08:01:45Z</time></trkpt>
<trkpt lat="32.241690000" lon="34.852325000"><ele>9.5</ele><time>2014-05-25T08:01:48Z</time></trkpt>
<trkpt lat="32.241587000" lon="34.852271000"><ele>9.8</ele><time>2014-05-25T08:01:51Z</time></trkpt>
<trkpt lat="32.241475000" lon="34.852233000"><ele>9.8</ele><time>2014-05-25T08:01:54Z</time></trkpt>
<trkpt lat="32.241360000" lon="34.852189000"><ele>9.8</ele><time>2014-05-25T08:01:57Z</time></trkpt>
<trkpt lat="32.241280000" lon="34.852155000"><ele>9.8</ele><time>2014-05-25T08:01:59Z</time></trkpt>
<trkpt lat="32.241183000" lon="34.852107000"><ele>9.8</ele><time>2014-05-25T08:02:01Z</time></trkpt>
<trkpt lat="32.241094000" lon="34.852076000"><ele>9.8</ele><time>2014-05-25T08:02:03Z</time></trkpt>
<trkpt lat="32.241007000" lon="34.852036000"><ele>9.8</ele><time>2014-05-25T08:02:05Z</time></trkpt>
<trkpt lat="32.240926000" lon="34.851998000"><ele>9.8</ele><time>2014-05-25T08:02:07Z</time></trkpt>
<trkpt lat="32.240839000" lon="34.851964000"><ele>10.0</ele><time>2014-05-25T08:02:09Z</time></trkpt>
<trkpt lat="32.240758000" lon="34.851916000"><ele>9.9</ele><time>2014-05-25T08:02:11Z</time></trkpt>
<trkpt lat="32.240667000" lon="34.851875000"><ele>9.8</ele><time>2014-05-25T08:02:13Z</time></trkpt>
<trkpt lat="32.240582000" lon="34.851834000"><ele>9.7</ele><time>2014-05-25T08:02:15Z</time></trkpt>
<trkpt lat="32.240505000" lon="34.851797000"><ele>9.6</ele><time>2014-05-25T08:02:17Z</time></trkpt>
<trkpt lat="32.240423000" lon="34.851768000"><ele>9.5</ele><time>2014-05-25T08:02:19Z</time></trkpt>
<trkpt lat="32.240342000" lon="34.851729000"><ele>9.5</ele><time>2014-05-25T08:02:21Z</time></trkpt>
<trkpt lat="32.240256000" lon="34.851678000"><ele>9.4</ele><time>2014-05-25T08:02:23Z</time></trkpt>
<trkpt lat="32.240166000" lon="34.851643000"><ele>9.3</ele><time>2014-05-25T08:02:25Z</time></trkpt>
<trkpt lat="32.240087000" lon="34.851607000"><ele>9.2</ele><time>2014-05-25T08:02:27Z</time></trkpt>
<trkpt lat="32.240007000" lon="34.851554000"><ele>9.3</ele><time>2014-05-25T08:02:29Z</time></trkpt>
<trkpt lat="32.239923000" lon="34.851513000"><ele>9.3</ele><time>2014-05-25T08:02:31Z</time></trkpt>
<trkpt lat="32.239836000" lon="34.851484000"><ele>9.4</ele><time>2014-05-25T08:02:33Z</time></trkpt>
<trkpt lat="32.239750000" lon="34.851473000"><ele>9.5</ele><time>2014-05-25T08:02:35Z</time></trkpt>
<trkpt lat="32.239655000" lon="34.851438000"><ele>9.5</ele><time>2014-05-25T08:02:37Z</time></trkpt>
<trkpt lat="32.239550000" lon="34.851412000"><ele>9.6</ele><time>2014-05-25T08:02:39Z</time></trkpt>
<trkpt lat="32.239467000" lon="34.851372000"><ele>9.7</ele><time>2014-05-25T08:02:41Z</time></trkpt>
<trkpt lat="32.239398000" lon="34.851315000"><ele>9.8</ele><time>2014-05-25T08:02:43Z</time></trkpt>
<trkpt lat="32.239317000" lon="34.851246000"><ele>9.9</ele><time>2014-05-25T08:02:45Z</time></trkpt>
<trkpt lat="32.239223000" lon="34.851230000"><ele>10.0</ele><time>2014-05-25T08:02:47Z</time></trkpt>
<trkpt lat="32.239134000" lon="34.851209000"><ele>10.1</ele><time>2014-05-25T08:02:49Z</time></trkpt>
<trkpt lat="32.239044000" lon="34.851162000"><ele>10.0</ele><time>2014-05-25T08:02:51Z</time></trkpt>
<trkpt lat="32.238958000" lon="34.851087000"><ele>10.0</ele><time>2014-05-25T08:02:53Z</time></trkpt>
<trkpt lat="32.238864000" lon="34.851017000"><ele>10.0</ele><time>2014-05-25T08:02:55Z</time></trkpt>
<trkpt lat="32.238774000" lon="34.850968000"><ele>10.0</ele><time>2014-05-25T08:02:57Z</time></trkpt>
<trkpt lat="32.238681000" lon="34.850942000"><ele>10.0</ele><time>2014-05-25T08:02:59Z</time></trkpt>
<trkpt lat="32.238588000" lon="34.850916000"><ele>10.0</ele><time>2014-05-25T08:03:01Z</time></trkpt>
<trkpt lat="32.238499000" lon="34.850886000"><ele>10.0</ele><time>2014-05-25T08:03:03Z</time></trkpt>
<trkpt lat="32.238409000" lon="34.850867000"><ele>10.0</ele><time>2014-05-25T08:03:05Z</time></trkpt>
<trkpt lat="32.238322000" lon="34.850825000"><ele>10.1</ele><time>2014-05-25T08:03:07Z</time></trkpt>
<trkpt lat="32.238238000" lon="34.850796000"><ele>10.2</ele><time>2014-05-25T08:03:09Z</time></trkpt>
<trkpt lat="32.238141000" lon="34.850772000"><ele>10.3</ele><time>2014-05-25T08:03:11Z</time></trkpt>
<trkpt lat="32.238051000" lon="34.850757000"><ele>10.1</ele><time>2014-05-25T08:03:13Z</time></trkpt>
<trkpt lat="32.237961000" lon="34.850718000"><ele>9.9</ele><time>2014-05-25T08:03:15Z</time></trkpt>
<trkpt lat="32.237877000" lon="34.850684000"><ele>9.7</ele><time>2014-05-25T08:03:17Z</time></trkpt>
<trkpt lat="32.237792000" lon="34.850640000"><ele>9.5</ele><time>2014-05-25T08:03:19Z</time></trkpt>
<trkpt lat="32.237703000" lon="34.850593000"><ele>9.4</ele><time>2014-05-25T08:03:21Z</time></trkpt>
<trkpt lat="32.237612000" lon="34.850545000"><ele>9.4</ele><time>2014-05-25T08:03:23Z</time></trkpt>
<trkpt lat="32.237524000" lon="34.850510000"><ele>9.4</ele><time>2014-05-25T08:03:25Z</time></trkpt>
<trkpt lat="32.237430000" lon="34.850490000"><ele>9.4</ele><time>2014-05-25T08:03:27Z</time></trkpt>
<trkpt lat="32.237330000" lon="34.850474000"><ele>9.3</ele><time>2014-05-25T08:03:29Z</time></trkpt>
<trkpt lat="32.237228000" lon="34.850462000"><ele>9.2</ele><time>2014-05-25T08:03:31Z</time></trkpt>
<trkpt lat="32.237129000" lon="34.850466000"><ele>9.1</ele><time>2014-05-25T08:03:33Z</time></trkpt>
<trkpt lat="32.237041000" lon="34.850465000"><ele>9.3</ele><time>2014-05-25T08:03:35Z</time></trkpt>
<trkpt lat="32.236960000" lon="34.850439000"><ele>9.5</ele><time>2014-05-25T08:03:37Z</time></trkpt>
<trkpt lat="32.236889000" lon="34.850384000"><ele>9.6</ele><time>2014-05-25T08:03:39Z</time></trkpt>
<trkpt lat="32.236816000" lon="34.850314000"><ele>9.8</ele><time>2014-05-25T08:03:41Z</time></trkpt>
<trkpt lat="32.236741000" lon="34.850246000"><ele>10.0</ele><time>2014-05-25T08:03:43Z</time></trkpt>
<trkpt lat="32.236665000" lon="34.850204000"><ele>10.0</ele><time>2014-05-25T08:03:45Z</time></trkpt>
<trkpt lat="32.236586000" lon="34.850156000"><ele>10.0</ele><time>2014-05-25T08:03:47Z</time></trkpt>
<trkpt lat="32.236506000" lon="34.850111000"><ele>10.0</ele><time>2014-05-25T08:03:49Z</time></trkpt>
<trkpt lat="32.236421000" lon="34.850070000"><ele>10.0</ele><time>2014-05-25T08:03:51Z</time></trkpt>
<trkpt lat="32.236332000" lon="34.850048000"><ele>10.0</ele><time>2014-05-25T08:03:53Z</time></trkpt>
<trkpt lat="32.236221000" lon="34.850024000"><ele>10.0</ele><time>2014-05-25T08:03:56Z</time></trkpt>
<trkpt lat="32.236132000" lon="34.849986000"><ele>10.0</ele><time>2014-05-25T08:03:59Z</time></trkpt>
<trkpt lat="32.236022000" lon="34.849944000"><ele>10.0</ele><time>2014-05-25T08:04:01Z</time></trkpt>
<trkpt lat="32.235922000" lon="34.849909000"><ele>10.0</ele><time>2014-05-25T08:04:04Z</time></trkpt>
<trkpt lat="32.235831000" lon="34.849868000"><ele>10.0</ele><time>2014-05-25T08:04:07Z</time></trkpt>
<trkpt lat="32.235740000" lon="34.849820000"><ele>9.8</ele><time>2014-05-25T08:04:10Z</time></trkpt>
<trkpt lat="32.235646000" lon="34.849766000"><ele>9.6</ele><time>2014-05-25T08:04:13Z</time></trkpt>
<trkpt lat="32.235546000" lon="34.849708000"><ele>9.5</ele><time>2014-05-25T08:04:16Z</time></trkpt>
<trkpt lat="32.235438000" lon="34.849660000"><ele>9.3</ele><time>2014-05-25T08:04:19Z</time></trkpt>
<trkpt lat="32.235329000" lon="34.849620000"><ele>9.1</ele><time>2014-05-25T08:04:22Z</time></trkpt>
<trkpt lat="32.235217000" lon="34.849592000"><ele>8.9</ele><time>2014-05-25T08:04:25Z</time></trkpt>
<trkpt lat="32.235099000" lon="34.849562000"><ele>8.7</ele><time>2014-05-25T08:04:28Z</time></trkpt>
<trkpt lat="32.235018000" lon="34.849538000"><ele>8.7</ele><time>2014-05-25T08:04:30Z</time></trkpt>
<trkpt lat="32.234938000" lon="34.849507000"><ele>8.7</ele><time>2014-05-25T08:04:32Z</time></trkpt>
<trkpt lat="32.234821000" lon="34.849487000"><ele>8.7</ele><time>2014-05-25T08:04:35Z</time></trkpt>
<trkpt lat="32.234699000" lon="34.849485000"><ele>8.7</ele><time>2014-05-25T08:04:38Z</time></trkpt>
<trkpt lat="32.234617000" lon="34.849471000"><ele>8.9</ele><time>2014-05-25T08:04:40Z</time></trkpt>
<trkpt lat="32.234537000" lon="34.849446000"><ele>9.1</ele><time>2014-05-25T08:04:42Z</time></trkpt>
<trkpt lat="32.234457000" lon="34.849422000"><ele>9.3</ele><time>2014-05-25T08:04:44Z</time></trkpt>
<trkpt lat="32.234376000" lon="34.849393000"><ele>9.5</ele><time>2014-05-25T08:04:46Z</time></trkpt>
<trkpt lat="32.234292000" lon="34.849368000"><ele>9.6</ele><time>2014-05-25T08:04:48Z</time></trkpt>
<trkpt lat="32.234191000" lon="34.849351000"><ele>9.9</ele><time>2014-05-25T08:04:50Z</time></trkpt>
<trkpt lat="32.234113000" lon="34.849322000"><ele>10.2</ele><time>2014-05-25T08:04:52Z</time></trkpt>
<trkpt lat="32.234033000" lon="34.849279000"><ele>10.3</ele><time>2014-05-25T08:04:54Z</time></trkpt>
<trkpt lat="32.233931000" lon="34.849214000"><ele>10.4</ele><time>2014-05-25T08:04:57Z</time></trkpt>
<trkpt lat="32.233817000" lon="34.849131000"><ele>10.5</ele><time>2014-05-25T08:05:00Z</time></trkpt>
<trkpt lat="32.233718000" lon="34.849079000"><ele>10.5</ele><time>2014-05-25T08:05:03Z</time></trkpt>
<trkpt lat="32.233635000" lon="34.849008000"><ele>10.6</ele><time>2014-05-25T08:05:06Z</time></trkpt>
<trkpt lat="32.233562000" lon="34.848906000"><ele>10.7</ele><time>2014-05-25T08:05:09Z</time></trkpt>
<trkpt lat="32.233485000" lon="34.848804000"><ele>10.8</ele><time>2014-05-25T08:05:12Z</time></trkpt>
<trkpt lat="32.233403000" lon="34.848707000"><ele>10.9</ele><time>2014-05-25T08:05:15Z</time></trkpt>
<trkpt lat="32.233329000" lon="34.848662000"><ele>11.0</ele><time>2014-05-25T08:05:17Z</time></trkpt>
<trkpt lat="32.233222000" lon="34.848601000"><ele>11.0</ele><time>2014-05-25T08:05:20Z</time></trkpt>
<trkpt lat="32.233145000" lon="34.848566000"><ele>11.0</ele><time>2014-05-25T08:05:22Z</time></trkpt>
<trkpt lat="32.233066000" lon="34.848541000"><ele>11.0</ele><time>2014-05-25T08:05:24Z</time></trkpt>
<trkpt lat="32.232985000" lon="34.848516000"><ele>11.0</ele><time>2014-05-25T08:05:26Z</time></trkpt>
<trkpt lat="32.232904000" lon="34.848488000"><ele>11.0</ele><time>2014-05-25T08:05:28Z</time></trkpt>
<trkpt lat="32.232820000" lon="34.848460000"><ele>11.0</ele><time>2014-05-25T08:05:30Z</time></trkpt>
<trkpt lat="32.232720000" lon="34.848428000"><ele>11.0</ele><time>2014-05-25T08:05:32Z</time></trkpt>
<trkpt lat="32.232628000" lon="34.848390000"><ele>11.0</ele><time>2014-05-25T08:05:34Z</time></trkpt>
<trkpt lat="32.232545000" lon="34.848342000"><ele>11.1</ele><time>2014-05-25T08:05:36Z</time></trkpt>
<trkpt lat="32.232462000" lon="34.848301000"><ele>11.2</ele><time>2014-05-25T08:05:38Z</time></trkpt>
<trkpt lat="32.232379000" lon="34.848268000"><ele>11.3</ele><time>2014-05-25T08:05:40Z</time></trkpt>
<trkpt lat="32.232291000" lon="34.848226000"><ele>11.4</ele><time>2014-05-25T08:05:42Z</time></trkpt>
<trkpt lat="32.232207000" lon="34.848184000"><ele>11.5</ele><time>2014-05-25T08:05:44Z</time></trkpt>
<trkpt lat="32.232114000" lon="34.848141000"><ele>11.5</ele><time>2014-05-25T08:05:46Z</time></trkpt>
<trkpt lat="32.232022000" lon="34.848099000"><ele>11.7</ele><time>2014-05-25T08:05:48Z</time></trkpt>
<trkpt lat="32.231933000" lon="34.848055000"><ele>11.9</ele><time>2014-05-25T08:05:50Z</time></trkpt>
<trkpt lat="32.231827000" lon="34.848036000"><ele>12.1</ele><time>2014-05-25T08:05:52Z</time></trkpt>
<trkpt lat="32.231729000" lon="34.848013000"><ele>12.3</ele><time>2014-05-25T08:05:54Z</time></trkpt>
<trkpt lat="32.231633000" lon="34.847983000"><ele>12.5</ele><time>2014-05-25T08:05:56Z</time></trkpt>
<trkpt lat="32.231546000" lon="34.847946000"><ele>12.5</ele><time>2014-05-25T08:05:58Z</time></trkpt>
<trkpt lat="32.231459000" lon="34.847913000"><ele>12.6</ele><time>2014-05-25T08:06:00Z</time></trkpt>
<trkpt lat="32.231379000" lon="34.847884000"><ele>12.7</ele><time>2014-05-25T08:06:02Z</time></trkpt>
<trkpt lat="32.231297000" lon="34.847847000"><ele>12.8</ele><time>2014-05-25T08:06:04Z</time></trkpt>
<trkpt lat="32.231188000" lon="34.847793000"><ele>12.9</ele><time>2014-05-25T08:06:07Z</time></trkpt>
<trkpt lat="32.231109000" lon="34.847761000"><ele>13.0</ele><time>2014-05-25T08:06:09Z</time></trkpt>
<trkpt lat="32.230999000" lon="34.847690000"><ele>13.0</ele><time>2014-05-25T08:06:12Z</time></trkpt>
<trkpt lat="32.230925000" lon="34.847646000"><ele>13.0</ele><time>2014-05-25T08:06:14Z</time></trkpt>
<trkpt lat="32.230814000" lon="34.847587000"><ele>12.8</ele><time>2014-05-25T08:06:17Z</time></trkpt>
<trkpt lat="32.230700000" lon="34.847553000"><ele>12.6</ele><time>2014-05-25T08:06:20Z</time></trkpt>
<trkpt lat="32.230625000" lon="34.847510000"><ele>12.5</ele><time>2014-05-25T08:06:22Z</time></trkpt>
<trkpt lat="32.230525000" lon="34.847442000"><ele>12.5</ele><time>2014-05-25T08:06:25Z</time></trkpt>
<trkpt lat="32.230424000" lon="34.847368000"><ele>12.6</ele><time>2014-05-25T08:06:28Z</time></trkpt>
<trkpt lat="32.230323000" lon="34.847294000"><ele>12.7</ele><time>2014-05-25T08:06:31Z</time></trkpt>
<trkpt lat="32.230220000" lon="34.847219000"><ele>12.8</ele><time>2014-05-25T08:06:34Z</time></trkpt>
<trkpt lat="32.230121000" lon="34.847154000"><ele>12.9</ele><time>2014-05-25T08:06:37Z</time></trkpt>
<trkpt lat="32.230026000" lon="34.847091000"><ele>12.9</ele><time>2014-05-25T08:06:40Z</time></trkpt>
<trkpt lat="32.229929000" lon="34.847027000"><ele>12.9</ele><time>2014-05-25T08:06:43Z</time></trkpt>
<trkpt lat="32.229830000" lon="34.846973000"><ele>12.9</ele><time>2014-05-25T08:06:46Z</time></trkpt>
<trkpt lat="32.229733000" lon="34.846919000"><ele>13.1</ele><time>2014-05-25T08:06:49Z</time></trkpt>
<trkpt lat="32.229637000" lon="34.846859000"><ele>13.3</ele><time>2014-05-25T08:06:52Z</time></trkpt>
<trkpt lat="32.229533000" lon="34.846801000"><ele>13.5</ele><time>2014-05-25T08:06:55Z</time></trkpt>
<trkpt lat="32.229430000" lon="34.846739000"><ele>13.4</ele><time>2014-05-25T08:06:58Z</time></trkpt>
<trkpt lat="32.229326000" lon="34.846684000"><ele>13.3</ele><time>2014-05-25T08:07:01Z</time></trkpt>
<trkpt lat="32.229223000" lon="34.846621000"><ele>13.2</ele><time>2014-05-25T08:07:04Z</time></trkpt>
<trkpt lat="32.229113000" lon="34.846565000"><ele>13.3</ele><time>2014-05-25T08:07:07Z</time></trkpt>
<trkpt lat="32.229002000" lon="34.846512000"><ele>13.4</ele><time>2014-05-25T08:07:10Z</time></trkpt>
<trkpt lat="32.228894000" lon="34.846456000"><ele>13.5</ele><time>2014-05-25T08:07:13Z</time></trkpt>
<trkpt lat="32.228792000" lon="34.846394000"><ele>13.7</ele><time>2014-05-25T08:07:16Z</time></trkpt>
<trkpt lat="32.228684000" lon="34.846336000"><ele>13.9</ele><time>2014-05-25T08:07:19Z</time></trkpt>
<trkpt lat="32.228573000" lon="34.846284000"><ele>14.1</ele><time>2014-05-25T08:07:22Z</time></trkpt>
<trkpt lat="32.228473000" lon="34.846224000"><ele>14.1</ele><time>2014-05-25T08:07:25Z</time></trkpt>
<trkpt lat="32.228370000" lon="34.846171000"><ele>14.1</ele><time>2014-05-25T08:07:28Z</time></trkpt>
<trkpt lat="32.228270000" lon="34.846115000"><ele>14.1</ele><time>2014-05-25T08:07:31Z</time></trkpt>
<trkpt lat="32.228163000" lon="34.846069000"><ele>14.1</ele><time>2014-05-25T08:07:34Z</time></trkpt>
<trkpt lat="32.228053000" lon="34.846019000"><ele>14.1</ele><time>2014-05-25T08:07:37Z</time></trkpt>
<trkpt lat="32.227941000" lon="34.845963000"><ele>13.9</ele><time>2014-05-25T08:07:40Z</time></trkpt>
<trkpt lat="32.227847000" lon="34.845917000"><ele>13.7</ele><time>2014-05-25T08:07:42Z</time></trkpt>
<trkpt lat="32.227757000" lon="34.845872000"><ele>13.5</ele><time>2014-05-25T08:07:44Z</time></trkpt>
<trkpt lat="32.227668000" lon="34.845826000"><ele>13.4</ele><time>2014-05-25T08:07:46Z</time></trkpt>
<trkpt lat="32.227582000" lon="34.845779000"><ele>13.3</ele><time>2014-05-25T08:07:48Z</time></trkpt>
<trkpt lat="32.227500000" lon="34.845715000"><ele>13.1</ele><time>2014-05-25T08:07:50Z</time></trkpt>
<trkpt lat="32.227426000" lon="34.845646000"><ele>13.1</ele><time>2014-05-25T08:07:52Z</time></trkpt>
<trkpt lat="32.227342000" lon="34.845566000"><ele>13.1</ele><time>2014-05-25T08:07:54Z</time></trkpt>
<trkpt lat="32.227276000" lon="34.845487000"><ele>13.1</ele><time>2014-05-25T08:07:56Z</time></trkpt>
<trkpt lat="32.227194000" lon="34.845402000"><ele>13.1</ele><time>2014-05-25T08:07:58Z</time></trkpt>
<trkpt lat="32.227122000" lon="34.845310000"><ele>13.1</ele><time>2014-05-25T08:08:01Z</time></trkpt>
<trkpt lat="32.227045000" lon="34.845236000"><ele>13.1</ele><time>2014-05-25T08:08:02Z</time></trkpt>
<trkpt lat="32.226963000" lon="34.845153000"><ele>13.1</ele><time>2014-05-25T08:08:04Z</time></trkpt>
<trkpt lat="32.226881000" lon="34.845085000"><ele>13.1</ele><time>2014-05-25T08:08:06Z</time></trkpt>
<trkpt lat="32.226793000" lon="34.845007000"><ele>13.1</ele><time>2014-05-25T08:08:08Z</time></trkpt>
<trkpt lat="32.226708000" lon="34.844959000"><ele>13.0</ele><time>2014-05-25T08:08:10Z</time></trkpt>
<trkpt lat="32.226619000" lon="34.844914000"><ele>13.0</ele><time>2014-05-25T08:08:12Z</time></trkpt>
<trkpt lat="32.226528000" lon="34.844862000"><ele>13.0</ele><time>2014-05-25T08:08:14Z</time></trkpt>
<trkpt lat="32.226448000" lon="34.844815000"><ele>13.1</ele><time>2014-05-25T08:08:16Z</time></trkpt>
<trkpt lat="32.226351000" lon="34.844794000"><ele>13.2</ele><time>2014-05-25T08:08:18Z</time></trkpt>
<trkpt lat="32.226265000" lon="34.844760000"><ele>13.3</ele><time>2014-05-25T08:08:20Z</time></trkpt>
<trkpt lat="32.226180000" lon="34.844706000"><ele>13.4</ele><time>2014-05-25T08:08:22Z</time></trkpt>
<trkpt lat="32.226101000" lon="34.844666000"><ele>13.5</ele><time>2014-05-25T08:08:24Z</time></trkpt>
<trkpt lat="32.226020000" lon="34.844608000"><ele>13.5</ele><time>2014-05-25T08:08:26Z</time></trkpt>
<trkpt lat="32.225949000" lon="34.844542000"><ele>13.6</ele><time>2014-05-25T08:08:28Z</time></trkpt>
<trkpt lat="32.225880000" lon="34.844492000"><ele>13.7</ele><time>2014-05-25T08:08:31Z</time></trkpt>
<trkpt lat="32.225796000" lon="34.844458000"><ele>13.7</ele><time>2014-05-25T08:08:33Z</time></trkpt>
<trkpt lat="32.225708000" lon="34.844444000"><ele>13.7</ele><time>2014-05-25T08:08:35Z</time></trkpt>
<trkpt lat="32.225628000" lon="34.844434000"><ele>13.7</ele><time>2014-05-25T08:08:36Z</time></trkpt>
<trkpt lat="32.225543000" lon="34.844429000"><ele>13.6</ele><time>2014-05-25T08:08:38Z</time></trkpt>
<trkpt lat="32.225459000" lon="34.844437000"><ele>13.5</ele><time>2014-05-25T08:08:40Z</time></trkpt>
<trkpt lat="32.225346000" lon="34.844450000"><ele>13.5</ele><time>2014-05-25T08:08:43Z</time></trkpt>
<trkpt lat="32.225239000" lon="34.844437000"><ele>13.5</ele><time>2014-05-25T08:08:46Z</time></trkpt>
<trkpt lat="32.225147000" lon="34.844404000"><ele>13.5</ele><time>2014-05-25T08:08:49Z</time></trkpt>
<trkpt lat="32.225067000" lon="34.844463000"><ele>13.5</ele><time>2014-05-25T08:09:02Z</time></trkpt>
<trkpt lat="32.225015000" lon="34.844563000"><ele>13.5</ele><time>2014-05-25T08:09:05Z</time></trkpt>
<trkpt lat="32.224974000" lon="34.844684000"><ele>13.5</ele><time>2014-05-25T08:09:08Z</time></trkpt>
<trkpt lat="32.224933000" lon="34.844809000"><ele>13.6</ele><time>2014-05-25T08:09:11Z</time></trkpt>
<trkpt lat="32.224882000" lon="34.844986000"><ele>13.7</ele><time>2014-05-25T08:09:14Z</time></trkpt>
<trkpt lat="32.224852000" lon="34.845109000"><ele>13.8</ele><time>2014-05-25T08:09:16Z</time></trkpt>
<trkpt lat="32.224799000" lon="34.845254000"><ele>13.9</ele><time>2014-05-25T08:09:18Z</time></trkpt>
<trkpt lat="32.224756000" lon="34.845382000"><ele>14.0</ele><time>2014-05-25T08:09:20Z</time></trkpt>
<trkpt lat="32.224710000" lon="34.845505000"><ele>13.9</ele><time>2014-05-25T08:09:22Z</time></trkpt>
<trkpt lat="32.224687000" lon="34.845622000"><ele>13.8</ele><time>2014-05-25T08:09:24Z</time></trkpt>
<trkpt lat="32.224682000" lon="34.845745000"><ele>13.7</ele><time>2014-05-25T08:09:26Z</time></trkpt>
<trkpt lat="32.224662000" lon="34.845847000"><ele>13.6</ele><time>2014-05-25T08:09:28Z</time></trkpt>
<trkpt lat="32.224611000" lon="34.845931000"><ele>13.5</ele><time>2014-05-25T08:09:30Z</time></trkpt>
<trkpt lat="32.224508000" lon="34.845924000"><ele>13.5</ele><time>2014-05-25T08:09:32Z</time></trkpt>
<trkpt lat="32.224421000" lon="34.845891000"><ele>13.4</ele><time>2014-05-25T08:09:34Z</time></trkpt>
<trkpt lat="32.224332000" lon="34.845857000"><ele>13.3</ele><time>2014-05-25T08:09:36Z</time></trkpt>
<trkpt lat="32.224249000" lon="34.845826000"><ele>13.2</ele><time>2014-05-25T08:09:38Z</time></trkpt>
<trkpt lat="32.224166000" lon="34.845791000"><ele>13.1</ele><time>2014-05-25T08:09:40Z</time></trkpt>
<trkpt lat="32.224073000" lon="34.845762000"><ele>13.0</ele><time>2014-05-25T08:09:42Z</time></trkpt>
<trkpt lat="32.223977000" lon="34.845724000"><ele>13.0</ele><time>2014-05-25T08:09:44Z</time></trkpt>
<trkpt lat="32.223878000" lon="34.845706000"><ele>13.0</ele><time>2014-05-25T08:09:46Z</time></trkpt>
<trkpt lat="32.223784000" lon="34.845686000"><ele>13.0</ele><time>2014-05-25T08:09:48Z</time></trkpt>
<trkpt lat="32.223681000" lon="34.845660000"><ele>13.0</ele><time>2014-05-25T08:09:50Z</time></trkpt>
<trkpt lat="32.223580000" lon="34.845646000"><ele>13.0</ele><time>2014-05-25T08:09:52Z</time></trkpt>
<trkpt lat="32.223484000" lon="34.845606000"><ele>12.9</ele><time>2014-05-25T08:09:54Z</time></trkpt>
<trkpt lat="32.223381000" lon="34.845579000"><ele>13.0</ele><time>2014-05-25T08:09:56Z</time></trkpt>
<trkpt lat="32.223277000" lon="34.845557000"><ele>13.1</ele><time>2014-05-25T08:09:58Z</time></trkpt>
<trkpt lat="32.223177000" lon="34.845532000"><ele>13.2</ele><time>2014-05-25T08:10:01Z</time></trkpt>
<trkpt lat="32.223075000" lon="34.845512000"><ele>13.3</ele><time>2014-05-25T08:10:02Z</time></trkpt>
<trkpt lat="32.222973000" lon="34.845479000"><ele>13.4</ele><time>2014-05-25T08:10:04Z</time></trkpt>
<trkpt lat="32.222862000" lon="34.845455000"><ele>13.5</ele><time>2014-05-25T08:10:06Z</time></trkpt>
<trkpt lat="32.222758000" lon="34.845436000"><ele>13.5</ele><time>2014-05-25T08:10:08Z</time></trkpt>
<trkpt lat="32.222663000" lon="34.845413000"><ele>13.6</ele><time>2014-05-25T08:10:10Z</time></trkpt>
<trkpt lat="32.222556000" lon="34.845382000"><ele>13.8</ele><time>2014-05-25T08:10:12Z</time></trkpt>
<trkpt lat="32.222462000" lon="34.845349000"><ele>14.0</ele><time>2014-05-25T08:10:14Z</time></trkpt>
<trkpt lat="32.222381000" lon="34.845328000"><ele>14.3</ele><time>2014-05-25T08:10:16Z</time></trkpt>
<trkpt lat="32.222282000" lon="34.845302000"><ele>14.4</ele><time>2014-05-25T08:10:19Z</time></trkpt>
<trkpt lat="32.222169000" lon="34.845273000"><ele>14.5</ele><time>2014-05-25T08:10:22Z</time></trkpt>
<trkpt lat="32.222086000" lon="34.845248000"><ele>14.5</ele><time>2014-05-25T08:10:24Z</time></trkpt>
<trkpt lat="32.222006000" lon="34.845231000"><ele>14.6</ele><time>2014-05-25T08:10:26Z</time></trkpt>
<trkpt lat="32.221891000" lon="34.845201000"><ele>14.7</ele><time>2014-05-25T08:10:29Z</time></trkpt>
<trkpt lat="32.221809000" lon="34.845185000"><ele>14.8</ele><time>2014-05-25T08:10:31Z</time></trkpt>
<trkpt lat="32.221716000" lon="34.845170000"><ele>14.9</ele><time>2014-05-25T08:10:33Z</time></trkpt>
<trkpt lat="32.221629000" lon="34.845136000"><ele>15.0</ele><time>2014-05-25T08:10:35Z</time></trkpt>
<trkpt lat="32.221527000" lon="34.845107000"><ele>15.0</ele><time>2014-05-25T08:10:37Z</time></trkpt>
<trkpt lat="32.221436000" lon="34.845071000"><ele>15.0</ele><time>2014-05-25T08:10:39Z</time></trkpt>
<trkpt lat="32.221348000" lon="34.845039000"><ele>15.0</ele><time>2014-05-25T08:10:41Z</time></trkpt>
<trkpt lat="32.221251000" lon="34.845018000"><ele>15.0</ele><time>2014-05-25T08:10:43Z</time></trkpt>
<trkpt lat="32.221158000" lon="34.844981000"><ele>15.0</ele><time>2014-05-25T08:10:45Z</time></trkpt>
<trkpt lat="32.221051000" lon="34.844964000"><ele>15.0</ele><time>2014-05-25T08:10:47Z</time></trkpt>
<trkpt lat="32.220963000" lon="34.844950000"><ele>15.0</ele><time>2014-05-25T08:10:49Z</time></trkpt>
<trkpt lat="32.220858000" lon="34.844902000"><ele>15.0</ele><time>2014-05-25T08:10:51Z</time></trkpt>
<trkpt lat="32.220764000" lon="34.844836000"><ele>15.0</ele><time>2014-05-25T08:10:53Z</time></trkpt>
<trkpt lat="32.220680000" lon="34.844779000"><ele>15.0</ele><time>2014-05-25T08:10:55Z</time></trkpt>
<trkpt lat="32.220608000" lon="34.844726000"><ele>15.0</ele><time>2014-05-25T08:10:57Z</time></trkpt>
<trkpt lat="32.220532000" lon="34.844651000"><ele>15.0</ele><time>2014-05-25T08:10:59Z</time></trkpt>
<trkpt lat="32.220463000" lon="34.844583000"><ele>15.0</ele><time>2014-05-25T08:11:01Z</time></trkpt>
<trkpt lat="32.220379000" lon="34.844513000"><ele>15.0</ele><time>2014-05-25T08:11:03Z</time></trkpt>
<trkpt lat="32.220285000" lon="34.844457000"><ele>15.0</ele><time>2014-05-25T08:11:05Z</time></trkpt>
<trkpt lat="32.220221000" lon="34.844369000"><ele>15.0</ele><time>2014-05-25T08:11:07Z</time></trkpt>
<trkpt lat="32.220148000" lon="34.844298000"><ele>15.0</ele><time>2014-05-25T08:11:09Z</time></trkpt>
<trkpt lat="32.220070000" lon="34.844232000"><ele>15.0</ele><time>2014-05-25T08:11:11Z</time></trkpt>
<trkpt lat="32.219989000" lon="34.844186000"><ele>14.8</ele><time>2014-05-25T08:11:13Z</time></trkpt>
<trkpt lat="32.219912000" lon="34.844120000"><ele>14.6</ele><time>2014-05-25T08:11:15Z</time></trkpt>
<trkpt lat="32.219827000" lon="34.844068000"><ele>14.5</ele><time>2014-05-25T08:11:17Z</time></trkpt>
<trkpt lat="32.219738000" lon="34.844026000"><ele>14.3</ele><time>2014-05-25T08:11:19Z</time></trkpt>
<trkpt lat="32.219648000" lon="34.843995000"><ele>14.1</ele><time>2014-05-25T08:11:21Z</time></trkpt>
<trkpt lat="32.219555000" lon="34.843960000"><ele>13.9</ele><time>2014-05-25T08:11:23Z</time></trkpt>
<trkpt lat="32.219477000" lon="34.843923000"><ele>13.7</ele><time>2014-05-25T08:11:25Z</time></trkpt>
<trkpt lat="32.219368000" lon="34.843887000"><ele>13.6</ele><time>2014-05-25T08:11:28Z</time></trkpt>
<trkpt lat="32.219284000" lon="34.843881000"><ele>13.5</ele><time>2014-05-25T08:11:31Z</time></trkpt>
<trkpt lat="32.219193000" lon="34.843871000"><ele>13.5</ele><time>2014-05-25T08:11:32Z</time></trkpt>
<trkpt lat="32.219105000" lon="34.843868000"><ele>13.4</ele><time>2014-05-25T08:11:35Z</time></trkpt>
<trkpt lat="32.219021000" lon="34.843848000"><ele>13.5</ele><time>2014-05-25T08:11:36Z</time></trkpt>
<trkpt lat="32.218920000" lon="34.843812000"><ele>13.5</ele><time>2014-05-25T08:11:38Z</time></trkpt>
<trkpt lat="32.218817000" lon="34.843804000"><ele>13.6</ele><time>2014-05-25T08:11:40Z</time></trkpt>
<trkpt lat="32.218727000" lon="34.843781000"><ele>13.7</ele><time>2014-05-25T08:11:42Z</time></trkpt>
<trkpt lat="32.218631000" lon="34.843747000"><ele>13.8</ele><time>2014-05-25T08:11:44Z</time></trkpt>
<trkpt lat="32.218550000" lon="34.843679000"><ele>13.9</ele><time>2014-05-25T08:11:46Z</time></trkpt>
<trkpt lat="32.218480000" lon="34.843627000"><ele>14.0</ele><time>2014-05-25T08:11:48Z</time></trkpt>
<trkpt lat="32.218406000" lon="34.843567000"><ele>14.0</ele><time>2014-05-25T08:11:50Z</time></trkpt>
<trkpt lat="32.218324000" lon="34.843496000"><ele>14.0</ele><time>2014-05-25T08:11:52Z</time></trkpt>
<trkpt lat="32.218244000" lon="34.843424000"><ele>14.1</ele><time>2014-05-25T08:11:54Z</time></trkpt>
<trkpt lat="32.218172000" lon="34.843348000"><ele>14.2</ele><time>2014-05-25T08:11:56Z</time></trkpt>
<trkpt lat="32.218109000" lon="34.843274000"><ele>14.3</ele><time>2014-05-25T08:11:58Z</time></trkpt>
<trkpt lat="32.218041000" lon="34.843187000"><ele>14.4</ele><time>2014-05-25T08:12:00Z</time></trkpt>
<trkpt lat="32.217979000" lon="34.843089000"><ele>14.5</ele><time>2014-05-25T08:12:03Z</time></trkpt>
<trkpt lat="32.217928000" lon="34.842982000"><ele>14.5</ele><time>2014-05-25T08:12:04Z</time></trkpt>
<trkpt lat="32.217893000" lon="34.842878000"><ele>14.6</ele><time>2014-05-25T08:12:06Z</time></trkpt>
<trkpt lat="32.217855000" lon="34.842773000"><ele>14.7</ele><time>2014-05-25T08:12:08Z</time></trkpt>
<trkpt lat="32.217829000" lon="34.842666000"><ele>14.8</ele><time>2014-05-25T08:12:10Z</time></trkpt>
<trkpt lat="32.217785000" lon="34.842568000"><ele>14.8</ele><time>2014-05-25T08:12:12Z</time></trkpt>
<trkpt lat="32.217740000" lon="34.842476000"><ele>14.8</ele><time>2014-05-25T08:12:14Z</time></trkpt>
<trkpt lat="32.217681000" lon="34.842398000"><ele>14.7</ele><time>2014-05-25T08:12:16Z</time></trkpt>
<trkpt lat="32.217614000" lon="34.842333000"><ele>14.6</ele><time>2014-05-25T08:12:23Z</time></trkpt>
<trkpt lat="32.217535000" lon="34.842240000"><ele>14.5</ele><time>2014-05-25T08:12:28Z</time></trkpt>
<trkpt lat="32.217449000" lon="34.842156000"><ele>14.5</ele><time>2014-05-25T08:12:30Z</time></trkpt>
<trkpt lat="32.217383000" lon="34.842094000"><ele>14.4</ele><time>2014-05-25T08:12:33Z</time></trkpt>
<trkpt lat="32.217280000" lon="34.842021000"><ele>14.3</ele><time>2014-05-25T08:12:34Z</time></trkpt>
<trkpt lat="32.217202000" lon="34.841953000"><ele>14.2</ele><time>2014-05-25T08:12:36Z</time></trkpt>
<trkpt lat="32.217133000" lon="34.841883000"><ele>14.1</ele><time>2014-05-25T08:12:38Z</time></trkpt>
<trkpt lat="32.217061000" lon="34.841810000"><ele>14.0</ele><time>2014-05-25T08:12:40Z</time></trkpt>
<trkpt lat="32.216983000" lon="34.841732000"><ele>14.0</ele><time>2014-05-25T08:12:42Z</time></trkpt>
<trkpt lat="32.216914000" lon="34.841656000"><ele>14.2</ele><time>2014-05-25T08:12:44Z</time></trkpt>
<trkpt lat="32.216837000" lon="34.841596000"><ele>14.4</ele><time>2014-05-25T08:12:46Z</time></trkpt>
<trkpt lat="32.216759000" lon="34.841524000"><ele>14.5</ele><time>2014-05-25T08:12:48Z</time></trkpt>
<trkpt lat="32.216683000" lon="34.841449000"><ele>14.7</ele><time>2014-05-25T08:12:50Z</time></trkpt>
<trkpt lat="32.216608000" lon="34.841380000"><ele>14.9</ele><time>2014-05-25T08:12:52Z</time></trkpt>
<trkpt lat="32.216544000" lon="34.841312000"><ele>15.1</ele><time>2014-05-25T08:12:54Z</time></trkpt>
<trkpt lat="32.216476000" lon="34.841237000"><ele>15.3</ele><time>2014-05-25T08:12:56Z</time></trkpt>
<trkpt lat="32.216412000" lon="34.841159000"><ele>15.5</ele><time>2014-05-25T08:12:58Z</time></trkpt>
<trkpt lat="32.216359000" lon="34.841085000"><ele>15.6</ele><time>2014-05-25T08:13:01Z</time></trkpt>
<trkpt lat="32.216279000" lon="34.840993000"><ele>15.8</ele><time>2014-05-25T08:13:03Z</time></trkpt>
<trkpt lat="32.216200000" lon="34.840896000"><ele>16.0</ele><time>2014-05-25T08:13:06Z</time></trkpt>
<trkpt lat="32.216107000" lon="34.840809000"><ele>16.1</ele><time>2014-05-25T08:13:09Z</time></trkpt>
<trkpt lat="32.216044000" lon="34.840747000"><ele>16.2</ele><time>2014-05-25T08:13:11Z</time></trkpt>
<trkpt lat="32.215979000" lon="34.840682000"><ele>16.3</ele><time>2014-05-25T08:13:13Z</time></trkpt>
<trkpt lat="32.215913000" lon="34.840618000"><ele>16.4</ele><time>2014-05-25T08:13:15Z</time></trkpt>
<trkpt lat="32.215845000" lon="34.840557000"><ele>16.5</ele><time>2014-05-25T08:13:17Z</time></trkpt>
<trkpt lat="32.215772000" lon="34.840502000"><ele>16.6</ele><time>2014-05-25T08:13:19Z</time></trkpt>
<trkpt lat="32.215684000" lon="34.840443000"><ele>16.8</ele><time>2014-05-25T08:13:21Z</time></trkpt>
<trkpt lat="32.215608000" lon="34.840396000"><ele>17.0</ele><time>2014-05-25T08:13:23Z</time></trkpt>
<trkpt lat="32.215532000" lon="34.840348000"><ele>17.2</ele><time>2014-05-25T08:13:25Z</time></trkpt>
<trkpt lat="32.215453000" lon="34.840320000"><ele>17.4</ele><time>2014-05-25T08:13:27Z</time></trkpt>
<trkpt lat="32.215376000" lon="34.840276000"><ele>17.5</ele><time>2014-05-25T08:13:29Z</time></trkpt>
<trkpt lat="32.215298000" lon="34.840229000"><ele>17.6</ele><time>2014-05-25T08:13:31Z</time></trkpt>
<trkpt lat="32.215219000" lon="34.840181000"><ele>17.7</ele><time>2014-05-25T08:13:34Z</time></trkpt>
<trkpt lat="32.215134000" lon="34.840137000"><ele>17.8</ele><time>2014-05-25T08:13:35Z</time></trkpt>
<trkpt lat="32.215047000" lon="34.840095000"><ele>17.8</ele><time>2014-05-25T08:13:37Z</time></trkpt>
<trkpt lat="32.214941000" lon="34.840040000"><ele>17.8</ele><time>2014-05-25T08:13:39Z</time></trkpt>
<trkpt lat="32.214855000" lon="34.840007000"><ele>17.7</ele><time>2014-05-25T08:13:41Z</time></trkpt>
<trkpt lat="32.214775000" lon="34.839969000"><ele>17.6</ele><time>2014-05-25T08:13:43Z</time></trkpt>
<trkpt lat="32.214680000" lon="34.839921000"><ele>17.5</ele><time>2014-05-25T08:13:45Z</time></trkpt>
<trkpt lat="32.214587000" lon="34.839870000"><ele>17.5</ele><time>2014-05-25T08:13:47Z</time></trkpt>
<trkpt lat="32.214505000" lon="34.839825000"><ele>17.4</ele><time>2014-05-25T08:13:49Z</time></trkpt>
<trkpt lat="32.214419000" lon="34.839784000"><ele>17.5</ele><time>2014-05-25T08:13:51Z</time></trkpt>
<trkpt lat="32.214335000" lon="34.839743000"><ele>17.5</ele><time>2014-05-25T08:13:53Z</time></trkpt>
<trkpt lat="32.214240000" lon="34.839698000"><ele>17.6</ele><time>2014-05-25T08:13:55Z</time></trkpt>
<trkpt lat="32.214154000" lon="34.839655000"><ele>17.6</ele><time>2014-05-25T08:13:57Z</time></trkpt>
<trkpt lat="32.214067000" lon="34.839602000"><ele>17.7</ele><time>2014-05-25T08:13:59Z</time></trkpt>
<trkpt lat="32.213986000" lon="34.839557000"><ele>17.8</ele><time>2014-05-25T08:14:01Z</time></trkpt>
<trkpt lat="32.213896000" lon="34.839510000"><ele>17.9</ele><time>2014-05-25T08:14:03Z</time></trkpt>
<trkpt lat="32.213812000" lon="34.839453000"><ele>18.0</ele><time>2014-05-25T08:14:05Z</time></trkpt>
<trkpt lat="32.213721000" lon="34.839400000"><ele>18.1</ele><time>2014-05-25T08:14:07Z</time></trkpt>
<trkpt lat="32.213635000" lon="34.839361000"><ele>18.2</ele><time>2014-05-25T08:14:09Z</time></trkpt>
<trkpt lat="32.213538000" lon="34.839319000"><ele>18.3</ele><time>2014-05-25T08:14:11Z</time></trkpt>
<trkpt lat="32.213456000" lon="34.839281000"><ele>18.2</ele><time>2014-05-25T08:14:13Z</time></trkpt>
<trkpt lat="32.213377000" lon="34.839247000"><ele>18.1</ele><time>2014-05-25T08:14:15Z</time></trkpt>
<trkpt lat="32.213294000" lon="34.839207000"><ele>17.7</ele><time>2014-05-25T08:14:17Z</time></trkpt>
<trkpt lat="32.213213000" lon="34.839167000"><ele>17.5</ele><time>2014-05-25T08:14:19Z</time></trkpt>
<trkpt lat="32.213139000" lon="34.839120000"><ele>17.3</ele><time>2014-05-25T08:14:21Z</time></trkpt>
<trkpt lat="32.213062000" lon="34.839065000"><ele>17.1</ele><time>2014-05-25T08:14:23Z</time></trkpt>
<trkpt lat="32.212992000" lon="34.839002000"><ele>16.9</ele><time>2014-05-25T08:14:25Z</time></trkpt>
<trkpt lat="32.212914000" lon="34.838933000"><ele>16.7</ele><time>2014-05-25T08:14:27Z</time></trkpt>
<trkpt lat="32.212836000" lon="34.838844000"><ele>16.5</ele><time>2014-05-25T08:14:29Z</time></trkpt>
<trkpt lat="32.212753000" lon="34.838767000"><ele>16.4</ele><time>2014-05-25T08:14:31Z</time></trkpt>
<trkpt lat="32.212672000" lon="34.838710000"><ele>16.2</ele><time>2014-05-25T08:14:33Z</time></trkpt>
<trkpt lat="32.212591000" lon="34.838633000"><ele>16.0</ele><time>2014-05-25T08:14:35Z</time></trkpt>
<trkpt lat="32.212505000" lon="34.838580000"><ele>15.7</ele><time>2014-05-25T08:14:37Z</time></trkpt>
<trkpt lat="32.212430000" lon="34.838528000"><ele>15.7</ele><time>2014-05-25T08:14:39Z</time></trkpt>
<trkpt lat="32.212348000" lon="34.838484000"><ele>15.7</ele><time>2014-05-25T08:14:41Z</time></trkpt>
<trkpt lat="32.212268000" lon="34.838436000"><ele>15.6</ele><time>2014-05-25T08:14:43Z</time></trkpt>
<trkpt lat="32.212183000" lon="34.838405000"><ele>15.5</ele><time>2014-05-25T08:14:45Z</time></trkpt>
<trkpt lat="32.212103000" lon="34.838374000"><ele>15.5</ele><time>2014-05-25T08:14:47Z</time></trkpt>
<trkpt lat="32.212027000" lon="34.838331000"><ele>15.4</ele><time>2014-05-25T08:14:49Z</time></trkpt>
<trkpt lat="32.211942000" lon="34.838282000"><ele>15.3</ele><time>2014-05-25T08:14:51Z</time></trkpt>
<trkpt lat="32.211852000" lon="34.838234000"><ele>15.2</ele><time>2014-05-25T08:14:53Z</time></trkpt>
<trkpt lat="32.211764000" lon="34.838180000"><ele>15.2</ele><time>2014-05-25T08:14:55Z</time></trkpt>
<trkpt lat="32.211683000" lon="34.838137000"><ele>15.3</ele><time>2014-05-25T08:14:57Z</time></trkpt>
<trkpt lat="32.211595000" lon="34.838088000"><ele>15.5</ele><time>2014-05-25T08:14:59Z</time></trkpt>
<trkpt lat="32.211511000" lon="34.838031000"><ele>15.6</ele><time>2014-05-25T08:15:01Z</time></trkpt>
<trkpt lat="32.211430000" lon="34.837967000"><ele>15.8</ele><time>2014-05-25T08:15:03Z</time></trkpt>
<trkpt lat="32.211352000" lon="34.837911000"><ele>16.0</ele><time>2014-05-25T08:15:05Z</time></trkpt>
<trkpt lat="32.211251000" lon="34.837844000"><ele>16.2</ele><time>2014-05-25T08:15:08Z</time></trkpt>
<trkpt lat="32.211170000" lon="34.837794000"><ele>16.4</ele><time>2014-05-25T08:15:10Z</time></trkpt>
<trkpt lat="32.211097000" lon="34.837739000"><ele>16.5</ele><time>2014-05-25T08:15:12Z</time></trkpt>
<trkpt lat="32.211012000" lon="34.837693000"><ele>16.7</ele><time>2014-05-25T08:15:14Z</time></trkpt>
<trkpt lat="32.210930000" lon="34.837651000"><ele>16.9</ele><time>2014-05-25T08:15:16Z</time></trkpt>
<trkpt lat="32.210855000" lon="34.837603000"><ele>17.0</ele><time>2014-05-25T08:15:18Z</time></trkpt>
<trkpt lat="32.210769000" lon="34.837548000"><ele>17.0</ele><time>2014-05-25T08:15:20Z</time></trkpt>
<trkpt lat="32.210692000" lon="34.837513000"><ele>17.0</ele><time>2014-05-25T08:15:22Z</time></trkpt>
<trkpt lat="32.210610000" lon="34.837478000"><ele>17.0</ele><time>2014-05-25T08:15:24Z</time></trkpt>
<trkpt lat="32.210533000" lon="34.837440000"><ele>17.0</ele><time>2014-05-25T08:15:26Z</time></trkpt>
<trkpt lat="32.210419000" lon="34.837411000"><ele>17.0</ele><time>2014-05-25T08:15:29Z</time></trkpt>
<trkpt lat="32.210327000" lon="34.837372000"><ele>17.0</ele><time>2014-05-25T08:15:31Z</time></trkpt>
<trkpt lat="32.210236000" lon="34.837321000"><ele>16.9</ele><time>2014-05-25T08:15:33Z</time></trkpt>
<trkpt lat="32.210140000" lon="34.837274000"><ele>16.8</ele><time>2014-05-25T08:15:35Z</time></trkpt>
<trkpt lat="32.210065000" lon="34.837235000"><ele>16.7</ele><time>2014-05-25T08:15:37Z</time></trkpt>
<trkpt lat="32.209985000" lon="34.837189000"><ele>16.7</ele><time>2014-05-25T08:15:39Z</time></trkpt>
<trkpt lat="32.209907000" lon="34.837145000"><ele>16.7</ele><time>2014-05-25T08:15:41Z</time></trkpt>
<trkpt lat="32.209796000" lon="34.837088000"><ele>16.7</ele><time>2014-05-25T08:15:44Z</time></trkpt>
<trkpt lat="32.209715000" lon="34.837044000"><ele>16.7</ele><time>2014-05-25T08:15:46Z</time></trkpt>
<trkpt lat="32.209636000" lon="34.837005000"><ele>16.7</ele><time>2014-05-25T08:15:48Z</time></trkpt>
<trkpt lat="32.209559000" lon="34.836964000"><ele>16.7</ele><time>2014-05-25T08:15:50Z</time></trkpt>
<trkpt lat="32.209477000" lon="34.836910000"><ele>16.7</ele><time>2014-05-25T08:15:52Z</time></trkpt>
<trkpt lat="32.209389000" lon="34.836866000"><ele>16.7</ele><time>2014-05-25T08:15:54Z</time></trkpt>
<trkpt lat="32.209303000" lon="34.836823000"><ele>16.8</ele><time>2014-05-25T08:15:56Z</time></trkpt>
<trkpt lat="32.209221000" lon="34.836773000"><ele>16.9</ele><time>2014-05-25T08:15:58Z</time></trkpt>
<trkpt lat="32.209134000" lon="34.836729000"><ele>17.0</ele><time>2014-05-25T08:16:00Z</time></trkpt>
<trkpt lat="32.209052000" lon="34.836680000"><ele>17.0</ele><time>2014-05-25T08:16:02Z</time></trkpt>
<trkpt lat="32.208971000" lon="34.836640000"><ele>17.0</ele><time>2014-05-25T08:16:05Z</time></trkpt>
<trkpt lat="32.208884000" lon="34.836589000"><ele>17.0</ele><time>2014-05-25T08:16:06Z</time></trkpt>
<trkpt lat="32.208800000" lon="34.836545000"><ele>17.0</ele><time>2014-05-25T08:16:08Z</time></trkpt>
<trkpt lat="32.208718000" lon="34.836497000"><ele>17.0</ele><time>2014-05-25T08:16:10Z</time></trkpt>
<trkpt lat="32.208640000" lon="34.836442000"><ele>17.0</ele><time>2014-05-25T08:16:12Z</time></trkpt>
<trkpt lat="32.208544000" lon="34.836390000"><ele>17.0</ele><time>2014-05-25T08:16:14Z</time></trkpt>
<trkpt lat="32.208465000" lon="34.836337000"><ele>17.0</ele><time>2014-05-25T08:16:16Z</time></trkpt>
<trkpt lat="32.208380000" lon="34.836292000"><ele>17.0</ele><time>2014-05-25T08:16:18Z</time></trkpt>
<trkpt lat="32.208293000" lon="34.836242000"><ele>17.0</ele><time>2014-05-25T08:16:20Z</time></trkpt>
<trkpt lat="32.208202000" lon="34.836189000"><ele>17.0</ele><time>2014-05-25T08:16:22Z</time></trkpt>
<trkpt lat="32.208106000" lon="34.836140000"><ele>17.0</ele><time>2014-05-25T08:16:24Z</time></trkpt>
<trkpt lat="32.208008000" lon="34.836093000"><ele>17.0</ele><time>2014-05-25T08:16:26Z</time></trkpt>
<trkpt lat="32.207925000" lon="34.836048000"><ele>17.0</ele><time>2014-05-25T08:16:28Z</time></trkpt>
<trkpt lat="32.207839000" lon="34.835998000"><ele>17.0</ele><time>2014-05-25T08:16:30Z</time></trkpt>
<trkpt lat="32.207745000" lon="34.835951000"><ele>17.0</ele><time>2014-05-25T08:16:32Z</time></trkpt>
<trkpt lat="32.207652000" lon="34.835913000"><ele>17.0</ele><time>2014-05-25T08:16:35Z</time></trkpt>
<trkpt lat="32.207558000" lon="34.835868000"><ele>17.1</ele><time>2014-05-25T08:16:36Z</time></trkpt>
<trkpt lat="32.207475000" lon="34.835819000"><ele>17.2</ele><time>2014-05-25T08:16:38Z</time></trkpt>
<trkpt lat="32.207381000" lon="34.835789000"><ele>17.3</ele><time>2014-05-25T08:16:40Z</time></trkpt>
<trkpt lat="32.207277000" lon="34.835739000"><ele>17.4</ele><time>2014-05-25T08:16:42Z</time></trkpt>
<trkpt lat="32.207196000" lon="34.835669000"><ele>17.5</ele><time>2014-05-25T08:16:44Z</time></trkpt>
<trkpt lat="32.207093000" lon="34.835607000"><ele>17.5</ele><time>2014-05-25T08:16:46Z</time></trkpt>
<trkpt lat="32.206994000" lon="34.835544000"><ele>17.6</ele><time>2014-05-25T08:16:48Z</time></trkpt>
<trkpt lat="32.206897000" lon="34.835486000"><ele>17.7</ele><time>2014-05-25T08:16:50Z</time></trkpt>
<trkpt lat="32.206789000" lon="34.835413000"><ele>17.9</ele><time>2014-05-25T08:16:52Z</time></trkpt>
<trkpt lat="32.206682000" lon="34.835351000"><ele>18.1</ele><time>2014-05-25T08:16:54Z</time></trkpt>
<trkpt lat="32.206583000" lon="34.835302000"><ele>18.3</ele><time>2014-05-25T08:16:56Z</time></trkpt>
<trkpt lat="32.206477000" lon="34.835262000"><ele>18.4</ele><time>2014-05-25T08:16:58Z</time></trkpt>
<trkpt lat="32.206382000" lon="34.835218000"><ele>18.5</ele><time>2014-05-25T08:17:00Z</time></trkpt>
<trkpt lat="32.206289000" lon="34.835162000"><ele>18.5</ele><time>2014-05-25T08:17:02Z</time></trkpt>
<trkpt lat="32.206194000" lon="34.835114000"><ele>18.6</ele><time>2014-05-25T08:17:04Z</time></trkpt>
<trkpt lat="32.206113000" lon="34.835058000"><ele>18.7</ele><time>2014-05-25T08:17:06Z</time></trkpt>
<trkpt lat="32.206021000" lon="34.835011000"><ele>18.8</ele><time>2014-05-25T08:17:08Z</time></trkpt>
<trkpt lat="32.205929000" lon="34.834959000"><ele>18.9</ele><time>2014-05-25T08:17:10Z</time></trkpt>
<trkpt lat="32.205843000" lon="34.834920000"><ele>18.9</ele><time>2014-05-25T08:17:12Z</time></trkpt>
<trkpt lat="32.205759000" lon="34.834868000"><ele>18.9</ele><time>2014-05-25T08:17:14Z</time></trkpt>
<trkpt lat="32.205668000" lon="34.834808000"><ele>18.9</ele><time>2014-05-25T08:17:16Z</time></trkpt>
<trkpt lat="32.205572000" lon="34.834761000"><ele>18.9</ele><time>2014-05-25T08:17:18Z</time></trkpt>
<trkpt lat="32.205477000" lon="34.834726000"><ele>18.9</ele><time>2014-05-25T08:17:20Z</time></trkpt>
<trkpt lat="32.205383000" lon="34.834672000"><ele>18.9</ele><time>2014-05-25T08:17:22Z</time></trkpt>
<trkpt lat="32.205293000" lon="34.834615000"><ele>18.9</ele><time>2014-05-25T08:17:24Z</time></trkpt>
<trkpt lat="32.205204000" lon="34.834572000"><ele>18.9</ele><time>2014-05-25T08:17:26Z</time></trkpt>
<trkpt lat="32.205125000" lon="34.834521000"><ele>18.9</ele><time>2014-05-25T08:17:28Z</time></trkpt>
<trkpt lat="32.205040000" lon="34.834476000"><ele>18.9</ele><time>2014-05-25T08:17:30Z</time></trkpt>
<trkpt lat="32.204949000" lon="34.834427000"><ele>18.9</ele><time>2014-05-25T08:17:32Z</time></trkpt>
<trkpt lat="32.204867000" lon="34.834390000"><ele>19.0</ele><time>2014-05-25T08:17:34Z</time></trkpt>
<trkpt lat="32.204780000" lon="34.834351000"><ele>19.0</ele><time>2014-05-25T08:17:36Z</time></trkpt>
<trkpt lat="32.204700000" lon="34.834316000"><ele>19.0</ele><time>2014-05-25T08:17:38Z</time></trkpt>
<trkpt lat="32.204617000" lon="34.834283000"><ele>19.0</ele><time>2014-05-25T08:17:40Z</time></trkpt>
<trkpt lat="32.204531000" lon="34.834247000"><ele>19.0</ele><time>2014-05-25T08:17:42Z</time></trkpt>
<trkpt lat="32.204453000" lon="34.834211000"><ele>19.0</ele><time>2014-05-25T08:17:44Z</time></trkpt>
<trkpt lat="32.204370000" lon="34.834177000"><ele>19.0</ele><time>2014-05-25T08:17:46Z</time></trkpt>
<trkpt lat="32.204289000" lon="34.834145000"><ele>19.0</ele><time>2014-05-25T08:17:48Z</time></trkpt>
<trkpt lat="32.204209000" lon="34.834106000"><ele>19.0</ele><time>2014-05-25T08:17:50Z</time></trkpt>
<trkpt lat="32.204128000" lon="34.834065000"><ele>18.9</ele><time>2014-05-25T08:17:52Z</time></trkpt>
<trkpt lat="32.204037000" lon="34.834018000"><ele>18.8</ele><time>2014-05-25T08:17:54Z</time></trkpt>
<trkpt lat="32.203923000" lon="34.833953000"><ele>18.7</ele><time>2014-05-25T08:17:57Z</time></trkpt>
<trkpt lat="32.203838000" lon="34.833916000"><ele>18.6</ele><time>2014-05-25T08:17:59Z</time></trkpt>
<trkpt lat="32.203764000" lon="34.833867000"><ele>18.5</ele><time>2014-05-25T08:18:01Z</time></trkpt>
<trkpt lat="32.203690000" lon="34.833819000"><ele>18.5</ele><time>2014-05-25T08:18:03Z</time></trkpt>
<trkpt lat="32.203604000" lon="34.833773000"><ele>18.4</ele><time>2014-05-25T08:18:05Z</time></trkpt>
<trkpt lat="32.203527000" lon="34.833737000"><ele>18.3</ele><time>2014-05-25T08:18:07Z</time></trkpt>
<trkpt lat="32.203453000" lon="34.833694000"><ele>18.2</ele><time>2014-05-25T08:18:09Z</time></trkpt>
<trkpt lat="32.203378000" lon="34.833654000"><ele>18.1</ele><time>2014-05-25T08:18:11Z</time></trkpt>
<trkpt lat="32.203300000" lon="34.833601000"><ele>18.2</ele><time>2014-05-25T08:18:13Z</time></trkpt>
<trkpt lat="32.203219000" lon="34.833562000"><ele>18.4</ele><time>2014-05-25T08:18:16Z</time></trkpt>
<trkpt lat="32.203138000" lon="34.833521000"><ele>18.5</ele><time>2014-05-25T08:18:17Z</time></trkpt>
<trkpt lat="32.203054000" lon="34.833476000"><ele>18.7</ele><time>2014-05-25T08:18:19Z</time></trkpt>
<trkpt lat="32.202979000" lon="34.833425000"><ele>18.9</ele><time>2014-05-25T08:18:21Z</time></trkpt>
<trkpt lat="32.202892000" lon="34.833373000"><ele>19.1</ele><time>2014-05-25T08:18:23Z</time></trkpt>
<trkpt lat="32.202809000" lon="34.833328000"><ele>19.3</ele><time>2014-05-25T08:18:25Z</time></trkpt>
<trkpt lat="32.202729000" lon="34.833272000"><ele>19.5</ele><time>2014-05-25T08:18:27Z</time></trkpt>
<trkpt lat="32.202639000" lon="34.833221000"><ele>19.8</ele><time>2014-05-25T08:18:29Z</time></trkpt>
<trkpt lat="32.202563000" lon="34.833188000"><ele>20.2</ele><time>2014-05-25T08:18:31Z</time></trkpt>
<trkpt lat="32.202486000" lon="34.833145000"><ele>20.5</ele><time>2014-05-25T08:18:33Z</time></trkpt>
<trkpt lat="32.202394000" lon="34.833095000"><ele>20.5</ele><time>2014-05-25T08:18:35Z</time></trkpt>
<trkpt lat="32.202305000" lon="34.833044000"><ele>20.6</ele><time>2014-05-25T08:18:37Z</time></trkpt>
<trkpt lat="32.202223000" lon="34.833001000"><ele>20.7</ele><time>2014-05-25T08:18:39Z</time></trkpt>
<trkpt lat="32.202139000" lon="34.832953000"><ele>20.8</ele><time>2014-05-25T08:18:41Z</time></trkpt>
<trkpt lat="32.202049000" lon="34.832907000"><ele>20.9</ele><time>2014-05-25T08:18:43Z</time></trkpt>
<trkpt lat="32.201959000" lon="34.832867000"><ele>21.0</ele><time>2014-05-25T08:18:45Z</time></trkpt>
<trkpt lat="32.201875000" lon="34.832822000"><ele>21.1</ele><time>2014-05-25T08:18:47Z</time></trkpt>
<trkpt lat="32.201794000" lon="34.832770000"><ele>21.2</ele><time>2014-05-25T08:18:49Z</time></trkpt>
<trkpt lat="32.201714000" lon="34.832710000"><ele>21.1</ele><time>2014-05-25T08:18:51Z</time></trkpt>
<trkpt lat="32.201626000" lon="34.832670000"><ele>21.0</ele><time>2014-05-25T08:18:53Z</time></trkpt>
<trkpt lat="32.201527000" lon="34.832638000"><ele>21.0</ele><time>2014-05-25T08:18:55Z</time></trkpt>
<trkpt lat="32.201446000" lon="34.832586000"><ele>21.0</ele><time>2014-05-25T08:18:57Z</time></trkpt>
<trkpt lat="32.201350000" lon="34.832553000"><ele>21.0</ele><time>2014-05-25T08:18:59Z</time></trkpt>
<trkpt lat="32.201259000" lon="34.832518000"><ele>21.0</ele><time>2014-05-25T08:19:01Z</time></trkpt>
<trkpt lat="32.201171000" lon="34.832469000"><ele>21.0</ele><time>2014-05-25T08:19:03Z</time></trkpt>
<trkpt lat="32.201080000" lon="34.832417000"><ele>20.8</ele><time>2014-05-25T08:19:05Z</time></trkpt>
<trkpt lat="32.200987000" lon="34.832375000"><ele>20.6</ele><time>2014-05-25T08:19:07Z</time></trkpt>
<trkpt lat="32.200899000" lon="34.832333000"><ele>20.5</ele><time>2014-05-25T08:19:09Z</time></trkpt>
<trkpt lat="32.200810000" lon="34.832280000"><ele>20.4</ele><time>2014-05-25T08:19:11Z</time></trkpt>
<trkpt lat="32.200726000" lon="34.832236000"><ele>20.3</ele><time>2014-05-25T08:19:13Z</time></trkpt>
<trkpt lat="32.200637000" lon="34.832193000"><ele>20.2</ele><time>2014-05-25T08:19:15Z</time></trkpt>
<trkpt lat="32.200548000" lon="34.832150000"><ele>20.1</ele><time>2014-05-25T08:19:17Z</time></trkpt>
<trkpt lat="32.200462000" lon="34.832106000"><ele>20.0</ele><time>2014-05-25T08:19:19Z</time></trkpt>
<trkpt lat="32.200376000" lon="34.832073000"><ele>19.9</ele><time>2014-05-25T08:19:22Z</time></trkpt>
<trkpt lat="32.200294000" lon="34.832026000"><ele>19.8</ele><time>2014-05-25T08:19:23Z</time></trkpt>
<trkpt lat="32.200209000" lon="34.831983000"><ele>19.7</ele><time>2014-05-25T08:19:25Z</time></trkpt>
<trkpt lat="32.200125000" lon="34.831946000"><ele>19.8</ele><time>2014-05-25T08:19:27Z</time></trkpt>
<trkpt lat="32.200040000" lon="34.831886000"><ele>19.9</ele><time>2014-05-25T08:19:29Z</time></trkpt>
<trkpt lat="32.199952000" lon="34.831848000"><ele>19.9</ele><time>2014-05-25T08:19:31Z</time></trkpt>
<trkpt lat="32.199879000" lon="34.831801000"><ele>19.8</ele><time>2014-05-25T08:19:33Z</time></trkpt>
<trkpt lat="32.199794000" lon="34.831764000"><ele>19.7</ele><time>2014-05-25T08:19:35Z</time></trkpt>
<trkpt lat="32.199717000" lon="34.831725000"><ele>19.6</ele><time>2014-05-25T08:19:37Z</time></trkpt>
<trkpt lat="32.199637000" lon="34.831679000"><ele>19.5</ele><time>2014-05-25T08:19:39Z</time></trkpt>
<trkpt lat="32.199564000" lon="34.831628000"><ele>19.5</ele><time>2014-05-25T08:19:41Z</time></trkpt>
<trkpt lat="32.199479000" lon="34.831590000"><ele>19.3</ele><time>2014-05-25T08:19:43Z</time></trkpt>
<trkpt lat="32.199396000" lon="34.831547000"><ele>19.1</ele><time>2014-05-25T08:19:45Z</time></trkpt>
<trkpt lat="32.199289000" lon="34.831490000"><ele>18.9</ele><time>2014-05-25T08:19:48Z</time></trkpt>
<trkpt lat="32.199179000" lon="34.831446000"><ele>19.0</ele><time>2014-05-25T08:19:51Z</time></trkpt>
<trkpt lat="32.199095000" lon="34.831409000"><ele>19.1</ele><time>2014-05-25T08:19:53Z</time></trkpt>
<trkpt lat="32.199013000" lon="34.831362000"><ele>19.3</ele><time>2014-05-25T08:19:55Z</time></trkpt>
<trkpt lat="32.198923000" lon="34.831322000"><ele>19.5</ele><time>2014-05-25T08:19:57Z</time></trkpt>
<trkpt lat="32.198838000" lon="34.831266000"><ele>19.6</ele><time>2014-05-25T08:19:59Z</time></trkpt>
<trkpt lat="32.198752000" lon="34.831223000"><ele>19.8</ele><time>2014-05-25T08:20:01Z</time></trkpt>
<trkpt lat="32.198661000" lon="34.831181000"><ele>20.0</ele><time>2014-05-25T08:20:03Z</time></trkpt>
<trkpt lat="32.198576000" lon="34.831148000"><ele>20.2</ele><time>2014-05-25T08:20:05Z</time></trkpt>
<trkpt lat="32.198502000" lon="34.831108000"><ele>20.5</ele><time>2014-05-25T08:20:07Z</time></trkpt>
<trkpt lat="32.198423000" lon="34.831057000"><ele>20.7</ele><time>2014-05-25T08:20:10Z</time></trkpt>
<trkpt lat="32.198446000" lon="34.830953000"><ele>21.1</ele><time>2014-05-25T08:20:17Z</time></trkpt>
<trkpt lat="32.198470000" lon="34.830836000"><ele>21.2</ele><time>2014-05-25T08:20:22Z</time></trkpt>
<trkpt lat="32.198507000" lon="34.830728000"><ele>21.3</ele><time>2014-05-25T08:20:26Z</time></trkpt>
<trkpt lat="32.198584000" lon="34.830686000"><ele>21.4</ele><time>2014-05-25T08:20:30Z</time></trkpt>
<trkpt lat="32.198564000" lon="34.830591000"><ele>21.5</ele><time>2014-05-25T08:20:33Z</time></trkpt>
<trkpt lat="32.198529000" lon="34.830500000"><ele>21.5</ele><time>2014-05-25T08:20:35Z</time></trkpt>
<trkpt lat="32.198528000" lon="34.830358000"><ele>21.6</ele><time>2014-05-25T08:20:37Z</time></trkpt>
<trkpt lat="32.198556000" lon="34.830225000"><ele>21.3</ele><time>2014-05-25T08:20:39Z</time></trkpt>
<trkpt lat="32.198595000" lon="34.830100000"><ele>21.1</ele><time>2014-05-25T08:20:41Z</time></trkpt>
<trkpt lat="32.198648000" lon="34.829975000"><ele>20.9</ele><time>2014-05-25T08:20:43Z</time></trkpt>
<trkpt lat="32.198693000" lon="34.829849000"><ele>20.7</ele><time>2014-05-25T08:20:45Z</time></trkpt>
<trkpt lat="32.198742000" lon="34.829727000"><ele>20.5</ele><time>2014-05-25T08:20:47Z</time></trkpt>
<trkpt lat="32.198784000" lon="34.829616000"><ele>20.2</ele><time>2014-05-25T08:20:49Z</time></trkpt>
<trkpt lat="32.198816000" lon="34.829506000"><ele>19.9</ele><time>2014-05-25T08:20:51Z</time></trkpt>
<trkpt lat="32.198853000" lon="34.829398000"><ele>19.6</ele><time>2014-05-25T08:20:53Z</time></trkpt>
<trkpt lat="32.198897000" lon="34.829287000"><ele>19.5</ele><time>2014-05-25T08:20:55Z</time></trkpt>
<trkpt lat="32.198934000" lon="34.829184000"><ele>19.5</ele><time>2014-05-25T08:20:57Z</time></trkpt>
<trkpt lat="32.198976000" lon="34.829081000"><ele>19.4</ele><time>2014-05-25T08:20:59Z</time></trkpt>
<trkpt lat="32.199012000" lon="34.828969000"><ele>19.7</ele><time>2014-05-25T08:21:01Z</time></trkpt>
<trkpt lat="32.199054000" lon="34.828856000"><ele>19.9</ele><time>2014-05-25T08:21:03Z</time></trkpt>
<trkpt lat="32.199096000" lon="34.828731000"><ele>20.1</ele><time>2014-05-25T08:21:05Z</time></trkpt>
<trkpt lat="32.199131000" lon="34.828608000"><ele>20.3</ele><time>2014-05-25T08:21:07Z</time></trkpt>
<trkpt lat="32.199176000" lon="34.828490000"><ele>20.4</ele><time>2014-05-25T08:21:09Z</time></trkpt>
<trkpt lat="32.199245000" lon="34.828314000"><ele>20.5</ele><time>2014-05-25T08:21:13Z</time></trkpt>
<trkpt lat="32.199287000" lon="34.828208000"><ele>20.5</ele><time>2014-05-25T08:21:14Z</time></trkpt>
<trkpt lat="32.199344000" lon="34.828095000"><ele>20.6</ele><time>2014-05-25T08:21:16Z</time></trkpt>
<trkpt lat="32.199382000" lon="34.827982000"><ele>20.5</ele><time>2014-05-25T08:21:18Z</time></trkpt>
<trkpt lat="32.199425000" lon="34.827856000"><ele>20.3</ele><time>2014-05-25T08:21:20Z</time></trkpt>
<trkpt lat="32.199467000" lon="34.827729000"><ele>20.1</ele><time>2014-05-25T08:21:22Z</time></trkpt>
<trkpt lat="32.199512000" lon="34.827608000"><ele>20.0</ele><time>2014-05-25T08:21:25Z</time></trkpt>
<trkpt lat="32.199557000" lon="34.827492000"><ele>19.9</ele><time>2014-05-25T08:21:26Z</time></trkpt>
<trkpt lat="32.199614000" lon="34.827376000"><ele>19.8</ele><time>2014-05-25T08:21:28Z</time></trkpt>
<trkpt lat="32.199666000" lon="34.827256000"><ele>19.7</ele><time>2014-05-25T08:21:30Z</time></trkpt>
<trkpt lat="32.199715000" lon="34.827134000"><ele>19.7</ele><time>2014-05-25T08:21:32Z</time></trkpt>
<trkpt lat="32.199759000" lon="34.827015000"><ele>19.7</ele><time>2014-05-25T08:21:34Z</time></trkpt>
<trkpt lat="32.199804000" lon="34.826895000"><ele>19.7</ele><time>2014-05-25T08:21:36Z</time></trkpt>
<trkpt lat="32.199848000" lon="34.826783000"><ele>19.9</ele><time>2014-05-25T08:21:38Z</time></trkpt>
<trkpt lat="32.199897000" lon="34.826663000"><ele>20.2</ele><time>2014-05-25T08:21:40Z</time></trkpt>
<trkpt lat="32.199940000" lon="34.826541000"><ele>20.5</ele><time>2014-05-25T08:21:42Z</time></trkpt>
<trkpt lat="32.199994000" lon="34.826429000"><ele>20.7</ele><time>2014-05-25T08:21:44Z</time></trkpt>
<trkpt lat="32.200033000" lon="34.826309000"><ele>20.9</ele><time>2014-05-25T08:21:46Z</time></trkpt>
<trkpt lat="32.200076000" lon="34.826200000"><ele>21.1</ele><time>2014-05-25T08:21:48Z</time></trkpt>
<trkpt lat="32.200119000" lon="34.826083000"><ele>21.3</ele><time>2014-05-25T08:21:51Z</time></trkpt>
<trkpt lat="32.200161000" lon="34.825964000"><ele>21.5</ele><time>2014-05-25T08:21:52Z</time></trkpt>
<trkpt lat="32.200213000" lon="34.825861000"><ele>22.2</ele><time>2014-05-25T08:21:54Z</time></trkpt>
<trkpt lat="32.200260000" lon="34.825761000"><ele>22.9</ele><time>2014-05-25T08:21:56Z</time></trkpt>
<trkpt lat="32.200326000" lon="34.825675000"><ele>23.6</ele><time>2014-05-25T08:21:58Z</time></trkpt>
<trkpt lat="32.200390000" lon="34.825595000"><ele>24.2</ele><time>2014-05-25T08:22:00Z</time></trkpt>
<trkpt lat="32.200428000" lon="34.825492000"><ele>24.7</ele><time>2014-05-25T08:22:02Z</time></trkpt>
<trkpt lat="32.200437000" lon="34.825384000"><ele>25.3</ele><time>2014-05-25T08:22:04Z</time></trkpt>
<trkpt lat="32.200473000" lon="34.825285000"><ele>25.8</ele><time>2014-05-25T08:22:06Z</time></trkpt>
<trkpt lat="32.200519000" lon="34.825166000"><ele>26.4</ele><time>2014-05-25T08:22:09Z</time></trkpt>
<trkpt lat="32.200560000" lon="34.825057000"><ele>27.4</ele><time>2014-05-25T08:22:12Z</time></trkpt>
<trkpt lat="32.200605000" lon="34.824956000"><ele>28.4</ele><time>2014-05-25T08:22:15Z</time></trkpt>
<trkpt lat="32.200643000" lon="34.824859000"><ele>29.4</ele><time>2014-05-25T08:22:18Z</time></trkpt>
<trkpt lat="32.200678000" lon="34.824762000"><ele>29.8</ele><time>2014-05-25T08:22:21Z</time></trkpt>
<trkpt lat="32.200700000" lon="34.824663000"><ele>30.3</ele><time>2014-05-25T08:22:24Z</time></trkpt>
<trkpt lat="32.200713000" lon="34.824546000"><ele>30.7</ele><time>2014-05-25T08:22:28Z</time></trkpt>
<trkpt lat="32.200729000" lon="34.824429000"><ele>31.2</ele><time>2014-05-25T08:22:32Z</time></trkpt>
<trkpt lat="32.200745000" lon="34.824310000"><ele>31.6</ele><time>2014-05-25T08:22:37Z</time></trkpt>
<trkpt lat="32.200760000" lon="34.824195000"><ele>32.1</ele><time>2014-05-25T08:22:40Z</time></trkpt>
<trkpt lat="32.200738000" lon="34.824091000"><ele>32.5</ele><time>2014-05-25T08:22:44Z</time></trkpt>
<trkpt lat="32.200665000" lon="34.824044000"><ele>33.0</ele><time>2014-05-25T08:22:47Z</time></trkpt>
<trkpt lat="32.200583000" lon="34.824008000"><ele>33.0</ele><time>2014-05-25T08:22:50Z</time></trkpt>
<trkpt lat="32.200491000" lon="34.823978000"><ele>33.1</ele><time>2014-05-25T08:22:53Z</time></trkpt>
<trkpt lat="32.200376000" lon="34.823936000"><ele>33.2</ele><time>2014-05-25T08:22:56Z</time></trkpt>
<trkpt lat="32.200276000" lon="34.823902000"><ele>33.3</ele><time>2014-05-25T08:22:59Z</time></trkpt>
<trkpt lat="32.200177000" lon="34.823878000"><ele>33.4</ele><time>2014-05-25T08:23:02Z</time></trkpt>
<trkpt lat="32.200092000" lon="34.823854000"><ele>33.5</ele><time>2014-05-25T08:23:05Z</time></trkpt>
<trkpt lat="32.200007000" lon="34.823824000"><ele>33.8</ele><time>2014-05-25T08:23:08Z</time></trkpt>
<trkpt lat="32.199923000" lon="34.823800000"><ele>34.2</ele><time>2014-05-25T08:23:11Z</time></trkpt>
<trkpt lat="32.199835000" lon="34.823789000"><ele>34.5</ele><time>2014-05-25T08:23:14Z</time></trkpt>
<trkpt lat="32.199745000" lon="34.823778000"><ele>34.9</ele><time>2014-05-25T08:23:17Z</time></trkpt>
<trkpt lat="32.199661000" lon="34.823750000"><ele>35.3</ele><time>2014-05-25T08:23:20Z</time></trkpt>
<trkpt lat="32.199578000" lon="34.823712000"><ele>35.6</ele><time>2014-05-25T08:23:23Z</time></trkpt>
<trkpt lat="32.199500000" lon="34.823679000"><ele>35.9</ele><time>2014-05-25T08:23:26Z</time></trkpt>
<trkpt lat="32.199415000" lon="34.823641000"><ele>36.2</ele><time>2014-05-25T08:23:29Z</time></trkpt>
<trkpt lat="32.199315000" lon="34.823611000"><ele>36.5</ele><time>2014-05-25T08:23:32Z</time></trkpt>
<trkpt lat="32.199212000" lon="34.823582000"><ele>36.8</ele><time>2014-05-25T08:23:35Z</time></trkpt>
<trkpt lat="32.199103000" lon="34.823553000"><ele>37.2</ele><time>2014-05-25T08:23:38Z</time></trkpt>
<trkpt lat="32.198990000" lon="34.823515000"><ele>37.3</ele><time>2014-05-25T08:23:41Z</time></trkpt>
<trkpt lat="32.198903000" lon="34.823484000"><ele>37.4</ele><time>2014-05-25T08:23:43Z</time></trkpt>
<trkpt lat="32.198817000" lon="34.823455000"><ele>37.5</ele><time>2014-05-25T08:23:45Z</time></trkpt>
<trkpt lat="32.198718000" lon="34.823412000"><ele>37.5</ele><time>2014-05-25T08:23:47Z</time></trkpt>
<trkpt lat="32.198637000" lon="34.823377000"><ele>37.6</ele><time>2014-05-25T08:23:49Z</time></trkpt>
<trkpt lat="32.198552000" lon="34.823350000"><ele>37.7</ele><time>2014-05-25T08:23:51Z</time></trkpt>
<trkpt lat="32.198467000" lon="34.823319000"><ele>37.8</ele><time>2014-05-25T08:23:53Z</time></trkpt>
<trkpt lat="32.198380000" lon="34.823283000"><ele>37.5</ele><time>2014-05-25T08:23:55Z</time></trkpt>
<trkpt lat="32.198300000" lon="34.823245000"><ele>37.2</ele><time>2014-05-25T08:23:58Z</time></trkpt>
<trkpt lat="32.198187000" lon="34.823188000"><ele>36.7</ele><time>2014-05-25T08:24:00Z</time></trkpt>
<trkpt lat="32.198112000" lon="34.823143000"><ele>36.3</ele><time>2014-05-25T08:24:02Z</time></trkpt>
<trkpt lat="32.198034000" lon="34.823096000"><ele>35.8</ele><time>2014-05-25T08:24:04Z</time></trkpt>
<trkpt lat="32.197937000" lon="34.823030000"><ele>35.4</ele><time>2014-05-25T08:24:07Z</time></trkpt>
<trkpt lat="32.197832000" lon="34.822970000"><ele>34.9</ele><time>2014-05-25T08:24:08Z</time></trkpt>
<trkpt lat="32.197721000" lon="34.822893000"><ele>34.5</ele><time>2014-05-25T08:24:10Z</time></trkpt>
<trkpt lat="32.197590000" lon="34.822812000"><ele>34.0</ele><time>2014-05-25T08:24:13Z</time></trkpt>
<trkpt lat="32.197461000" lon="34.822742000"><ele>33.5</ele><time>2014-05-25T08:24:15Z</time></trkpt>
<trkpt lat="32.197344000" lon="34.822680000"><ele>33.1</ele><time>2014-05-25T08:24:16Z</time></trkpt>
<trkpt lat="32.197203000" lon="34.822585000"><ele>33.0</ele><time>2014-05-25T08:24:18Z</time></trkpt>
<trkpt lat="32.197132000" lon="34.822539000"><ele>32.8</ele><time>2014-05-25T08:24:19Z</time></trkpt>
<trkpt lat="32.197000000" lon="34.822451000"><ele>32.6</ele><time>2014-05-25T08:24:21Z</time></trkpt>
<trkpt lat="32.196871000" lon="34.822374000"><ele>32.4</ele><time>2014-05-25T08:24:23Z</time></trkpt>
<trkpt lat="32.196802000" lon="34.822321000"><ele>32.1</ele><time>2014-05-25T08:24:24Z</time></trkpt>
<trkpt lat="32.196675000" lon="34.822226000"><ele>31.8</ele><time>2014-05-25T08:24:26Z</time></trkpt>
<trkpt lat="32.196545000" lon="34.822133000"><ele>31.5</ele><time>2014-05-25T08:24:28Z</time></trkpt>
<trkpt lat="32.196421000" lon="34.822041000"><ele>31.3</ele><time>2014-05-25T08:24:30Z</time></trkpt>
<trkpt lat="32.196295000" lon="34.821954000"><ele>31.0</ele><time>2014-05-25T08:24:32Z</time></trkpt>
<trkpt lat="32.196163000" lon="34.821861000"><ele>30.7</ele><time>2014-05-25T08:24:34Z</time></trkpt>
<trkpt lat="32.196023000" lon="34.821770000"><ele>30.4</ele><time>2014-05-25T08:24:36Z</time></trkpt>
<trkpt lat="32.195896000" lon="34.821684000"><ele>30.0</ele><time>2014-05-25T08:24:38Z</time></trkpt>
<trkpt lat="32.195771000" lon="34.821587000"><ele>29.8</ele><time>2014-05-25T08:24:40Z</time></trkpt>
<trkpt lat="32.195640000" lon="34.821498000"><ele>29.6</ele><time>2014-05-25T08:24:42Z</time></trkpt>
<trkpt lat="32.195514000" lon="34.821404000"><ele>29.5</ele><time>2014-05-25T08:24:44Z</time></trkpt>
<trkpt lat="32.195394000" lon="34.821303000"><ele>29.5</ele><time>2014-05-25T08:24:46Z</time></trkpt>
<trkpt lat="32.195269000" lon="34.821211000"><ele>29.4</ele><time>2014-05-25T08:24:48Z</time></trkpt>
<trkpt lat="32.195149000" lon="34.821127000"><ele>29.5</ele><time>2014-05-25T08:24:50Z</time></trkpt>
<trkpt lat="32.195032000" lon="34.821033000"><ele>29.7</ele><time>2014-05-25T08:24:53Z</time></trkpt>
<trkpt lat="32.194907000" lon="34.820952000"><ele>29.9</ele><time>2014-05-25T08:24:54Z</time></trkpt>
<trkpt lat="32.194784000" lon="34.820870000"><ele>30.1</ele><time>2014-05-25T08:24:56Z</time></trkpt>
<trkpt lat="32.194663000" lon="34.820796000"><ele>30.2</ele><time>2014-05-25T08:24:58Z</time></trkpt>
<trkpt lat="32.194546000" lon="34.820722000"><ele>30.3</ele><time>2014-05-25T08:25:01Z</time></trkpt>
<trkpt lat="32.194438000" lon="34.820664000"><ele>30.4</ele><time>2014-05-25T08:25:03Z</time></trkpt>
<trkpt lat="32.194353000" lon="34.820608000"><ele>30.5</ele><time>2014-05-25T08:25:05Z</time></trkpt>
<trkpt lat="32.194256000" lon="34.820566000"><ele>30.5</ele><time>2014-05-25T08:25:07Z</time></trkpt>
<trkpt lat="32.194135000" lon="34.820528000"><ele>30.6</ele><time>2014-05-25T08:25:09Z</time></trkpt>
<trkpt lat="32.194044000" lon="34.820512000"><ele>30.7</ele><time>2014-05-25T08:25:10Z</time></trkpt>
<trkpt lat="32.193965000" lon="34.820442000"><ele>30.6</ele><time>2014-05-25T08:25:12Z</time></trkpt>
<trkpt lat="32.193925000" lon="34.820328000"><ele>30.5</ele><time>2014-05-25T08:25:15Z</time></trkpt>
<trkpt lat="32.193900000" lon="34.820213000"><ele>30.5</ele><time>2014-05-25T08:25:17Z</time></trkpt>
<trkpt lat="32.193871000" lon="34.820089000"><ele>30.4</ele><time>2014-05-25T08:25:19Z</time></trkpt>
<trkpt lat="32.193821000" lon="34.819962000"><ele>30.5</ele><time>2014-05-25T08:25:21Z</time></trkpt>
<trkpt lat="32.193763000" lon="34.819860000"><ele>30.5</ele><time>2014-05-25T08:25:23Z</time></trkpt>
<trkpt lat="32.193685000" lon="34.819800000"><ele>30.6</ele><time>2014-05-25T08:25:25Z</time></trkpt>
<trkpt lat="32.193574000" lon="34.819791000"><ele>30.7</ele><time>2014-05-25T08:25:27Z</time></trkpt>
<trkpt lat="32.193471000" lon="34.819799000"><ele>30.9</ele><time>2014-05-25T08:25:29Z</time></trkpt>
<trkpt lat="32.193343000" lon="34.819814000"><ele>31.1</ele><time>2014-05-25T08:25:31Z</time></trkpt>
<trkpt lat="32.193219000" lon="34.819824000"><ele>31.3</ele><time>2014-05-25T08:25:33Z</time></trkpt>
<trkpt lat="32.193104000" lon="34.819847000"><ele>31.4</ele><time>2014-05-25T08:25:35Z</time></trkpt>
<trkpt lat="32.192985000" lon="34.819871000"><ele>31.5</ele><time>2014-05-25T08:25:37Z</time></trkpt>
<trkpt lat="32.192867000" lon="34.819891000"><ele>31.5</ele><time>2014-05-25T08:25:39Z</time></trkpt>
<trkpt lat="32.192760000" lon="34.819916000"><ele>31.6</ele><time>2014-05-25T08:25:41Z</time></trkpt>
<trkpt lat="32.192649000" lon="34.819932000"><ele>31.7</ele><time>2014-05-25T08:25:43Z</time></trkpt>
<trkpt lat="32.192553000" lon="34.819952000"><ele>32.0</ele><time>2014-05-25T08:25:45Z</time></trkpt>
<trkpt lat="32.192451000" lon="34.819975000"><ele>32.3</ele><time>2014-05-25T08:25:47Z</time></trkpt>
<trkpt lat="32.192348000" lon="34.819998000"><ele>32.5</ele><time>2014-05-25T08:25:49Z</time></trkpt>
<trkpt lat="32.192247000" lon="34.820018000"><ele>32.7</ele><time>2014-05-25T08:25:51Z</time></trkpt>
<trkpt lat="32.192143000" lon="34.820034000"><ele>32.9</ele><time>2014-05-25T08:25:53Z</time></trkpt>
<trkpt lat="32.192059000" lon="34.820059000"><ele>33.1</ele><time>2014-05-25T08:25:55Z</time></trkpt>
<trkpt lat="32.191966000" lon="34.820083000"><ele>33.3</ele><time>2014-05-25T08:25:57Z</time></trkpt>
<trkpt lat="32.191883000" lon="34.820120000"><ele>33.5</ele><time>2014-05-25T08:25:59Z</time></trkpt>
<trkpt lat="32.191793000" lon="34.820122000"><ele>34.0</ele><time>2014-05-25T08:26:01Z</time></trkpt>
<trkpt lat="32.191707000" lon="34.820133000"><ele>34.5</ele><time>2014-05-25T08:26:03Z</time></trkpt>
<trkpt lat="32.191577000" lon="34.820174000"><ele>35.1</ele><time>2014-05-25T08:26:06Z</time></trkpt>
<trkpt lat="32.191482000" lon="34.820192000"><ele>35.5</ele><time>2014-05-25T08:26:08Z</time></trkpt>
<trkpt lat="32.191371000" lon="34.820231000"><ele>35.8</ele><time>2014-05-25T08:26:11Z</time></trkpt>
<trkpt lat="32.191286000" lon="34.820260000"><ele>36.2</ele><time>2014-05-25T08:26:13Z</time></trkpt>
<trkpt lat="32.191202000" lon="34.820299000"><ele>36.5</ele><time>2014-05-25T08:26:15Z</time></trkpt>
<trkpt lat="32.191122000" lon="34.820334000"><ele>36.9</ele><time>2014-05-25T08:26:17Z</time></trkpt>
<trkpt lat="32.191030000" lon="34.820352000"><ele>37.3</ele><time>2014-05-25T08:26:19Z</time></trkpt>
<trkpt lat="32.190923000" lon="34.820389000"><ele>37.6</ele><time>2014-05-25T08:26:22Z</time></trkpt>
<trkpt lat="32.190833000" lon="34.820402000"><ele>37.9</ele><time>2014-05-25T08:26:24Z</time></trkpt>
<trkpt lat="32.190727000" lon="34.820375000"><ele>37.8</ele><time>2014-05-25T08:26:27Z</time></trkpt>
<trkpt lat="32.190609000" lon="34.820363000"><ele>37.7</ele><time>2014-05-25T08:26:30Z</time></trkpt>
<trkpt lat="32.190527000" lon="34.820348000"><ele>37.6</ele><time>2014-05-25T08:26:32Z</time></trkpt>
<trkpt lat="32.190438000" lon="34.820337000"><ele>37.5</ele><time>2014-05-25T08:26:34Z</time></trkpt>
<trkpt lat="32.190348000" lon="34.820322000"><ele>37.5</ele><time>2014-05-25T08:26:36Z</time></trkpt>
<trkpt lat="32.190253000" lon="34.820306000"><ele>37.4</ele><time>2014-05-25T08:26:38Z</time></trkpt>
<trkpt lat="32.190158000" lon="34.820280000"><ele>37.3</ele><time>2014-05-25T08:26:40Z</time></trkpt>
<trkpt lat="32.190046000" lon="34.820251000"><ele>37.2</ele><time>2014-05-25T08:26:43Z</time></trkpt>
<trkpt lat="32.189950000" lon="34.820251000"><ele>37.1</ele><time>2014-05-25T08:26:45Z</time></trkpt>
<trkpt lat="32.189854000" lon="34.820219000"><ele>37.0</ele><time>2014-05-25T08:26:47Z</time></trkpt>
<trkpt lat="32.189750000" lon="34.820185000"><ele>37.0</ele><time>2014-05-25T08:26:48Z</time></trkpt>
<trkpt lat="32.189639000" lon="34.820148000"><ele>37.0</ele><time>2014-05-25T08:26:50Z</time></trkpt>
<trkpt lat="32.189514000" lon="34.820110000"><ele>37.0</ele><time>2014-05-25T08:26:52Z</time></trkpt>
<trkpt lat="32.189398000" lon="34.820070000"><ele>36.7</ele><time>2014-05-25T08:26:54Z</time></trkpt>
<trkpt lat="32.189305000" lon="34.819997000"><ele>36.5</ele><time>2014-05-25T08:26:57Z</time></trkpt>
<trkpt lat="32.189273000" lon="34.819874000"><ele>36.2</ele><time>2014-05-25T08:26:59Z</time></trkpt>
<trkpt lat="32.189278000" lon="34.819743000"><ele>35.9</ele><time>2014-05-25T08:27:01Z</time></trkpt>
<trkpt lat="32.189282000" lon="34.819598000"><ele>35.6</ele><time>2014-05-25T08:27:03Z</time></trkpt>
<trkpt lat="32.189299000" lon="34.819445000"><ele>35.2</ele><time>2014-05-25T08:27:04Z</time></trkpt>
<trkpt lat="32.189310000" lon="34.819277000"><ele>34.7</ele><time>2014-05-25T08:27:06Z</time></trkpt>
<trkpt lat="32.189324000" lon="34.819117000"><ele>34.3</ele><time>2014-05-25T08:27:08Z</time></trkpt>
<trkpt lat="32.189340000" lon="34.818949000"><ele>33.8</ele><time>2014-05-25T08:27:10Z</time></trkpt>
<trkpt lat="32.189354000" lon="34.818789000"><ele>33.4</ele><time>2014-05-25T08:27:12Z</time></trkpt>
<trkpt lat="32.189370000" lon="34.818629000"><ele>32.6</ele><time>2014-05-25T08:27:14Z</time></trkpt>
<trkpt lat="32.189388000" lon="34.818465000"><ele>32.2</ele><time>2014-05-25T08:27:16Z</time></trkpt>
<trkpt lat="32.189399000" lon="34.818299000"><ele>31.7</ele><time>2014-05-25T08:27:18Z</time></trkpt>
<trkpt lat="32.189414000" lon="34.818132000"><ele>31.3</ele><time>2014-05-25T08:27:21Z</time></trkpt>
<trkpt lat="32.189396000" lon="34.817992000"><ele>30.8</ele><time>2014-05-25T08:27:22Z</time></trkpt>
<trkpt lat="32.189312000" lon="34.817919000"><ele>30.3</ele><time>2014-05-25T08:27:24Z</time></trkpt>
<trkpt lat="32.189217000" lon="34.817904000"><ele>29.9</ele><time>2014-05-25T08:27:26Z</time></trkpt>
<trkpt lat="32.189100000" lon="34.817893000"><ele>29.5</ele><time>2014-05-25T08:27:28Z</time></trkpt>
<trkpt lat="32.188977000" lon="34.817874000"><ele>29.2</ele><time>2014-05-25T08:27:30Z</time></trkpt>
<trkpt lat="32.188851000" lon="34.817853000"><ele>28.8</ele><time>2014-05-25T08:27:32Z</time></trkpt>
<trkpt lat="32.188723000" lon="34.817858000"><ele>28.5</ele><time>2014-05-25T08:27:34Z</time></trkpt>
<trkpt lat="32.188607000" lon="34.817843000"><ele>28.4</ele><time>2014-05-25T08:27:36Z</time></trkpt>
<trkpt lat="32.188487000" lon="34.817835000"><ele>28.4</ele><time>2014-05-25T08:27:38Z</time></trkpt>
<trkpt lat="32.188362000" lon="34.817809000"><ele>28.4</ele><time>2014-05-25T08:27:40Z</time></trkpt>
<trkpt lat="32.188243000" lon="34.817776000"><ele>28.4</ele><time>2014-05-25T08:27:42Z</time></trkpt>
<trkpt lat="32.188127000" lon="34.817723000"><ele>28.4</ele><time>2014-05-25T08:27:44Z</time></trkpt>
<trkpt lat="32.188012000" lon="34.817678000"><ele>28.5</ele><time>2014-05-25T08:27:46Z</time></trkpt>
<trkpt lat="32.187896000" lon="34.817640000"><ele>28.5</ele><time>2014-05-25T08:27:48Z</time></trkpt>
<trkpt lat="32.187778000" lon="34.817589000"><ele>28.6</ele><time>2014-05-25T08:27:50Z</time></trkpt>
<trkpt lat="32.187658000" lon="34.817545000"><ele>28.7</ele><time>2014-05-25T08:27:52Z</time></trkpt>
<trkpt lat="32.187544000" lon="34.817497000"><ele>28.8</ele><time>2014-05-25T08:27:54Z</time></trkpt>
<trkpt lat="32.187438000" lon="34.817450000"><ele>28.7</ele><time>2014-05-25T08:27:56Z</time></trkpt>
<trkpt lat="32.187326000" lon="34.817422000"><ele>28.6</ele><time>2014-05-25T08:27:58Z</time></trkpt>
<trkpt lat="32.187229000" lon="34.817373000"><ele>28.5</ele><time>2014-05-25T08:28:00Z</time></trkpt>
<trkpt lat="32.187186000" lon="34.817264000"><ele>28.3</ele><time>2014-05-25T08:28:02Z</time></trkpt>
<trkpt lat="32.187203000" lon="34.817161000"><ele>28.1</ele><time>2014-05-25T08:28:04Z</time></trkpt>
<trkpt lat="32.187239000" lon="34.817044000"><ele>27.9</ele><time>2014-05-25T08:28:06Z</time></trkpt>
<trkpt lat="32.187274000" lon="34.816914000"><ele>27.7</ele><time>2014-05-25T08:28:09Z</time></trkpt>
<trkpt lat="32.187290000" lon="34.816776000"><ele>27.5</ele><time>2014-05-25T08:28:10Z</time></trkpt>
<trkpt lat="32.187315000" lon="34.816650000"><ele>27.4</ele><time>2014-05-25T08:28:12Z</time></trkpt>
<trkpt lat="32.187347000" lon="34.816520000"><ele>27.2</ele><time>2014-05-25T08:28:14Z</time></trkpt>
<trkpt lat="32.187391000" lon="34.816396000"><ele>27.0</ele><time>2014-05-25T08:28:17Z</time></trkpt>
<trkpt lat="32.187407000" lon="34.816282000"><ele>27.0</ele><time>2014-05-25T08:28:19Z</time></trkpt>
<trkpt lat="32.187420000" lon="34.816149000"><ele>27.0</ele><time>2014-05-25T08:28:21Z</time></trkpt>
<trkpt lat="32.187444000" lon="34.816039000"><ele>27.0</ele><time>2014-05-25T08:28:25Z</time></trkpt>
<trkpt lat="32.187364000" lon="34.816010000"><ele>27.0</ele><time>2014-05-25T08:28:28Z</time></trkpt>
<trkpt lat="32.187275000" lon="34.815961000"><ele>27.0</ele><time>2014-05-25T08:28:33Z</time></trkpt>
<trkpt lat="32.187179000" lon="34.815940000"><ele>27.0</ele><time>2014-05-25T08:28:37Z</time></trkpt>
<trkpt lat="32.187091000" lon="34.815915000"><ele>27.0</ele><time>2014-05-25T08:28:40Z</time></trkpt>
<trkpt lat="32.186998000" lon="34.815885000"><ele>27.0</ele><time>2014-05-25T08:28:42Z</time></trkpt>
<trkpt lat="32.186915000" lon="34.815854000"><ele>27.0</ele><time>2014-05-25T08:28:45Z</time></trkpt>
<trkpt lat="32.187021000" lon="34.815866000"><ele>27.0</ele><time>2014-05-25T08:28:51Z</time></trkpt>
<trkpt lat="32.187113000" lon="34.815906000"><ele>27.1</ele><time>2014-05-25T08:28:54Z</time></trkpt>
<trkpt lat="32.187185000" lon="34.815842000"><ele>27.3</ele><time>2014-05-25T08:28:58Z</time></trkpt>
<trkpt lat="32.187200000" lon="34.815727000"><ele>27.4</ele><time>2014-05-25T08:29:01Z</time></trkpt>
<trkpt lat="32.187223000" lon="34.815602000"><ele>27.5</ele><time>2014-05-25T08:29:05Z</time></trkpt>
<trkpt lat="32.187246000" lon="34.815487000"><ele>27.5</ele><time>2014-05-25T08:29:07Z</time></trkpt>
<trkpt lat="32.187187000" lon="34.815421000"><ele>27.6</ele><time>2014-05-25T08:29:11Z</time></trkpt>
<trkpt lat="32.187096000" lon="34.815413000"><ele>27.7</ele><time>2014-05-25T08:29:14Z</time></trkpt>
<trkpt lat="32.187205000" lon="34.815423000"><ele>27.8</ele><time>2014-05-25T08:29:25Z</time></trkpt>
<trkpt lat="32.187292000" lon="34.815450000"><ele>27.9</ele><time>2014-05-25T08:29:26Z</time></trkpt>
<trkpt lat="32.187374000" lon="34.815457000"><ele>28.0</ele><time>2014-05-25T08:29:28Z</time></trkpt>
<trkpt lat="32.187479000" lon="34.815455000"><ele>28.1</ele><time>2014-05-25T08:29:31Z</time></trkpt>
<trkpt lat="32.187542000" lon="34.815363000"><ele>28.1</ele><time>2014-05-25T08:29:34Z</time></trkpt>
<trkpt lat="32.187569000" lon="34.815226000"><ele>28.0</ele><time>2014-05-25T08:29:37Z</time></trkpt>
<trkpt lat="32.187582000" lon="34.815131000"><ele>28.0</ele><time>2014-05-25T08:29:39Z</time></trkpt>
<trkpt lat="32.187595000" lon="34.815035000"><ele>28.0</ele><time>2014-05-25T08:29:41Z</time></trkpt>
<trkpt lat="32.187597000" lon="34.814935000"><ele>28.0</ele><time>2014-05-25T08:29:44Z</time></trkpt>
<trkpt lat="32.187591000" lon="34.814839000"><ele>28.0</ele><time>2014-05-25T08:29:45Z</time></trkpt>
<trkpt lat="32.187565000" lon="34.814743000"><ele>28.1</ele><time>2014-05-25T08:29:48Z</time></trkpt>
<trkpt lat="32.187455000" lon="34.814746000"><ele>28.2</ele><time>2014-05-25T08:29:51Z</time></trkpt>
<trkpt lat="32.187354000" lon="34.814758000"><ele>28.3</ele><time>2014-05-25T08:29:53Z</time></trkpt>
<trkpt lat="32.187258000" lon="34.814755000"><ele>28.4</ele><time>2014-05-25T08:29:55Z</time></trkpt>
<trkpt lat="32.187166000" lon="34.814751000"><ele>28.5</ele><time>2014-05-25T08:29:57Z</time></trkpt>
<trkpt lat="32.187077000" lon="34.814744000"><ele>28.5</ele><time>2014-05-25T08:29:59Z</time></trkpt>
<trkpt lat="32.186995000" lon="34.814736000"><ele>28.9</ele><time>2014-05-25T08:30:01Z</time></trkpt>
<trkpt lat="32.186903000" lon="34.814723000"><ele>29.3</ele><time>2014-05-25T08:30:03Z</time></trkpt>
<trkpt lat="32.186772000" lon="34.814712000"><ele>29.5</ele><time>2014-05-25T08:30:05Z</time></trkpt>
<trkpt lat="32.186662000" lon="34.814704000"><ele>29.8</ele><time>2014-05-25T08:30:07Z</time></trkpt>
<trkpt lat="32.186561000" lon="34.814686000"><ele>30.1</ele><time>2014-05-25T08:30:09Z</time></trkpt>
<trkpt lat="32.186444000" lon="34.814655000"><ele>30.3</ele><time>2014-05-25T08:30:11Z</time></trkpt>
<trkpt lat="32.186324000" lon="34.814638000"><ele>30.5</ele><time>2014-05-25T08:30:13Z</time></trkpt>
<trkpt lat="32.186212000" lon="34.814627000"><ele>30.6</ele><time>2014-05-25T08:30:15Z</time></trkpt>
<trkpt lat="32.186110000" lon="34.814626000"><ele>30.8</ele><time>2014-05-25T08:30:17Z</time></trkpt>
<trkpt lat="32.186008000" lon="34.814585000"><ele>31.0</ele><time>2014-05-25T08:30:19Z</time></trkpt>
<trkpt lat="32.185931000" lon="34.814525000"><ele>31.2</ele><time>2014-05-25T08:30:21Z</time></trkpt>
<trkpt lat="32.185841000" lon="34.814518000"><ele>30.9</ele><time>2014-05-25T08:30:23Z</time></trkpt>
<trkpt lat="32.185750000" lon="34.814540000"><ele>30.6</ele><time>2014-05-25T08:30:25Z</time></trkpt>
<trkpt lat="32.185667000" lon="34.814528000"><ele>30.5</ele><time>2014-05-25T08:30:27Z</time></trkpt>
<trkpt lat="32.185582000" lon="34.814504000"><ele>30.3</ele><time>2014-05-25T08:30:29Z</time></trkpt>
<trkpt lat="32.185497000" lon="34.814511000"><ele>30.1</ele><time>2014-05-25T08:30:32Z</time></trkpt>
<trkpt lat="32.185386000" lon="34.814513000"><ele>29.9</ele><time>2014-05-25T08:30:35Z</time></trkpt>
<trkpt lat="32.185285000" lon="34.814503000"><ele>29.7</ele><time>2014-05-25T08:30:37Z</time></trkpt>
<trkpt lat="32.185179000" lon="34.814492000"><ele>29.5</ele><time>2014-05-25T08:30:39Z</time></trkpt>
<trkpt lat="32.185064000" lon="34.814481000"><ele>29.2</ele><time>2014-05-25T08:30:41Z</time></trkpt>
<trkpt lat="32.184948000" lon="34.814464000"><ele>28.9</ele><time>2014-05-25T08:30:43Z</time></trkpt>
<trkpt lat="32.184824000" lon="34.814433000"><ele>28.6</ele><time>2014-05-25T08:30:45Z</time></trkpt>
<trkpt lat="32.184687000" lon="34.814456000"><ele>28.5</ele><time>2014-05-25T08:30:47Z</time></trkpt>
<trkpt lat="32.184555000" lon="34.814456000"><ele>28.5</ele><time>2014-05-25T08:30:49Z</time></trkpt>
<trkpt lat="32.184433000" lon="34.814451000"><ele>28.4</ele><time>2014-05-25T08:30:51Z</time></trkpt>
<trkpt lat="32.184299000" lon="34.814438000"><ele>28.2</ele><time>2014-05-25T08:30:53Z</time></trkpt>
<trkpt lat="32.184158000" lon="34.814427000"><ele>28.0</ele><time>2014-05-25T08:30:55Z</time></trkpt>
<trkpt lat="32.184041000" lon="34.814419000"><ele>27.8</ele><time>2014-05-25T08:30:57Z</time></trkpt>
<trkpt lat="32.183925000" lon="34.814411000"><ele>27.6</ele><time>2014-05-25T08:30:59Z</time></trkpt>
<trkpt lat="32.183802000" lon="34.814440000"><ele>27.5</ele><time>2014-05-25T08:31:01Z</time></trkpt>
<trkpt lat="32.183683000" lon="34.814462000"><ele>27.5</ele><time>2014-05-25T08:31:03Z</time></trkpt>
<trkpt lat="32.183566000" lon="34.814471000"><ele>27.4</ele><time>2014-05-25T08:31:05Z</time></trkpt>
<trkpt lat="32.183456000" lon="34.814502000"><ele>27.2</ele><time>2014-05-25T08:31:07Z</time></trkpt>
<trkpt lat="32.183336000" lon="34.814535000"><ele>26.9</ele><time>2014-05-25T08:31:09Z</time></trkpt>
<trkpt lat="32.183222000" lon="34.814545000"><ele>26.6</ele><time>2014-05-25T08:31:11Z</time></trkpt>
<trkpt lat="32.183103000" lon="34.814557000"><ele>26.4</ele><time>2014-05-25T08:31:13Z</time></trkpt>
<trkpt lat="32.182972000" lon="34.814591000"><ele>26.2</ele><time>2014-05-25T08:31:15Z</time></trkpt>
<trkpt lat="32.182835000" lon="34.814625000"><ele>26.0</ele><time>2014-05-25T08:31:17Z</time></trkpt>
<trkpt lat="32.182703000" lon="34.814673000"><ele>25.6</ele><time>2014-05-25T08:31:19Z</time></trkpt>
<trkpt lat="32.182562000" lon="34.814710000"><ele>25.3</ele><time>2014-05-25T08:31:21Z</time></trkpt>
<trkpt lat="32.182421000" lon="34.814748000"><ele>24.9</ele><time>2014-05-25T08:31:23Z</time></trkpt>
<trkpt lat="32.182283000" lon="34.814776000"><ele>24.5</ele><time>2014-05-25T08:31:25Z</time></trkpt>
<trkpt lat="32.182145000" lon="34.814777000"><ele>24.2</ele><time>2014-05-25T08:31:27Z</time></trkpt>
<trkpt lat="32.181993000" lon="34.814785000"><ele>24.0</ele><time>2014-05-25T08:31:29Z</time></trkpt>
<trkpt lat="32.181850000" lon="34.814780000"><ele>23.9</ele><time>2014-05-25T08:31:31Z</time></trkpt>
<trkpt lat="32.181700000" lon="34.814781000"><ele>23.8</ele><time>2014-05-25T08:31:33Z</time></trkpt>
<trkpt lat="32.181550000" lon="34.814781000"><ele>23.7</ele><time>2014-05-25T08:31:35Z</time></trkpt>
<trkpt lat="32.181419000" lon="34.814780000"><ele>23.6</ele><time>2014-05-25T08:31:37Z</time></trkpt>
<trkpt lat="32.181292000" lon="34.814795000"><ele>23.5</ele><time>2014-05-25T08:31:39Z</time></trkpt>
<trkpt lat="32.181164000" lon="34.814818000"><ele>23.6</ele><time>2014-05-25T08:31:41Z</time></trkpt>
<trkpt lat="32.181054000" lon="34.814798000"><ele>23.7</ele><time>2014-05-25T08:31:43Z</time></trkpt>
<trkpt lat="32.180923000" lon="34.814760000"><ele>23.7</ele><time>2014-05-25T08:31:45Z</time></trkpt>
<trkpt lat="32.180795000" lon="34.814740000"><ele>23.7</ele><time>2014-05-25T08:31:47Z</time></trkpt>
<trkpt lat="32.180652000" lon="34.814739000"><ele>23.7</ele><time>2014-05-25T08:31:49Z</time></trkpt>
<trkpt lat="32.180538000" lon="34.814715000"><ele>23.6</ele><time>2014-05-25T08:31:51Z</time></trkpt>
<trkpt lat="32.180437000" lon="34.814644000"><ele>23.5</ele><time>2014-05-25T08:31:53Z</time></trkpt>
<trkpt lat="32.180352000" lon="34.814675000"><ele>23.5</ele><time>2014-05-25T08:31:56Z</time></trkpt>
<trkpt lat="32.180336000" lon="34.814780000"><ele>23.4</ele><time>2014-05-25T08:31:59Z</time></trkpt>
<trkpt lat="32.180329000" lon="34.814895000"><ele>23.3</ele><time>2014-05-25T08:32:03Z</time></trkpt>
<trkpt lat="32.180325000" lon="34.814998000"><ele>23.2</ele><time>2014-05-25T08:32:04Z</time></trkpt>
<trkpt lat="32.180311000" lon="34.815126000"><ele>23.1</ele><time>2014-05-25T08:32:07Z</time></trkpt>
<trkpt lat="32.180244000" lon="34.815209000"><ele>23.0</ele><time>2014-05-25T08:32:18Z</time></trkpt>
<trkpt lat="32.180151000" lon="34.815186000"><ele>23.0</ele><time>2014-05-25T08:32:26Z</time></trkpt>
<trkpt lat="32.180064000" lon="34.815132000"><ele>23.0</ele><time>2014-05-25T08:32:31Z</time></trkpt>
<trkpt lat="32.179957000" lon="34.815121000"><ele>23.0</ele><time>2014-05-25T08:32:34Z</time></trkpt>
<trkpt lat="32.179865000" lon="34.815101000"><ele>23.0</ele><time>2014-05-25T08:32:36Z</time></trkpt>
<trkpt lat="32.179745000" lon="34.815069000"><ele>23.0</ele><time>2014-05-25T08:32:38Z</time></trkpt>
<trkpt lat="32.179633000" lon="34.815050000"><ele>23.0</ele><time>2014-05-25T08:32:40Z</time></trkpt>
<trkpt lat="32.179526000" lon="34.815044000"><ele>23.0</ele><time>2014-05-25T08:32:41Z</time></trkpt>
<trkpt lat="32.179425000" lon="34.815007000"><ele>23.0</ele><time>2014-05-25T08:32:43Z</time></trkpt>
<trkpt lat="32.179314000" lon="34.814969000"><ele>23.0</ele><time>2014-05-25T08:32:45Z</time></trkpt>
<trkpt lat="32.179205000" lon="34.814938000"><ele>23.0</ele><time>2014-05-25T08:32:47Z</time></trkpt>
<trkpt lat="32.179087000" lon="34.814910000"><ele>23.0</ele><time>2014-05-25T08:32:49Z</time></trkpt>
<trkpt lat="32.178969000" lon="34.814877000"><ele>23.0</ele><time>2014-05-25T08:32:51Z</time></trkpt>
<trkpt lat="32.178846000" lon="34.814839000"><ele>23.0</ele><time>2014-05-25T08:32:53Z</time></trkpt>
<trkpt lat="32.178727000" lon="34.814799000"><ele>23.0</ele><time>2014-05-25T08:32:55Z</time></trkpt>
<trkpt lat="32.178611000" lon="34.814772000"><ele>23.0</ele><time>2014-05-25T08:32:57Z</time></trkpt>
<trkpt lat="32.178490000" lon="34.814745000"><ele>23.2</ele><time>2014-05-25T08:32:59Z</time></trkpt>
<trkpt lat="32.178371000" lon="34.814729000"><ele>23.4</ele><time>2014-05-25T08:33:01Z</time></trkpt>
<trkpt lat="32.178260000" lon="34.814701000"><ele>23.5</ele><time>2014-05-25T08:33:03Z</time></trkpt>
<trkpt lat="32.178148000" lon="34.814676000"><ele>23.7</ele><time>2014-05-25T08:33:05Z</time></trkpt>
<trkpt lat="32.178033000" lon="34.814665000"><ele>23.9</ele><time>2014-05-25T08:33:08Z</time></trkpt>
<trkpt lat="32.177919000" lon="34.814634000"><ele>24.1</ele><time>2014-05-25T08:33:10Z</time></trkpt>
<trkpt lat="32.177800000" lon="34.814602000"><ele>24.3</ele><time>2014-05-25T08:33:12Z</time></trkpt>
<trkpt lat="32.177692000" lon="34.814575000"><ele>24.5</ele><time>2014-05-25T08:33:13Z</time></trkpt>
<trkpt lat="32.177590000" lon="34.814551000"><ele>24.6</ele><time>2014-05-25T08:33:15Z</time></trkpt>
<trkpt lat="32.177494000" lon="34.814509000"><ele>25.0</ele><time>2014-05-25T08:33:17Z</time></trkpt>
<trkpt lat="32.177408000" lon="34.814468000"><ele>25.4</ele><time>2014-05-25T08:33:20Z</time></trkpt>
<trkpt lat="32.177314000" lon="34.814465000"><ele>25.5</ele><time>2014-05-25T08:33:21Z</time></trkpt>
<trkpt lat="32.177230000" lon="34.814437000"><ele>25.7</ele><time>2014-05-25T08:33:23Z</time></trkpt>
<trkpt lat="32.177141000" lon="34.814404000"><ele>25.9</ele><time>2014-05-25T08:33:25Z</time></trkpt>
<trkpt lat="32.177038000" lon="34.814376000"><ele>26.1</ele><time>2014-05-25T08:33:27Z</time></trkpt>
<trkpt lat="32.176937000" lon="34.814341000"><ele>26.3</ele><time>2014-05-25T08:33:29Z</time></trkpt>
<trkpt lat="32.176818000" lon="34.814321000"><ele>26.5</ele><time>2014-05-25T08:33:31Z</time></trkpt>
<trkpt lat="32.176718000" lon="34.814309000"><ele>26.6</ele><time>2014-05-25T08:33:33Z</time></trkpt>
<trkpt lat="32.176627000" lon="34.814268000"><ele>26.8</ele><time>2014-05-25T08:33:36Z</time></trkpt>
<trkpt lat="32.176530000" lon="34.814246000"><ele>27.0</ele><time>2014-05-25T08:33:37Z</time></trkpt>
<trkpt lat="32.176439000" lon="34.814206000"><ele>27.0</ele><time>2014-05-25T08:33:39Z</time></trkpt>
<trkpt lat="32.176342000" lon="34.814176000"><ele>27.0</ele><time>2014-05-25T08:33:41Z</time></trkpt>
<trkpt lat="32.176230000" lon="34.814147000"><ele>27.0</ele><time>2014-05-25T08:33:43Z</time></trkpt>
<trkpt lat="32.176137000" lon="34.814132000"><ele>27.0</ele><time>2014-05-25T08:33:45Z</time></trkpt>
<trkpt lat="32.176042000" lon="34.814088000"><ele>27.0</ele><time>2014-05-25T08:33:47Z</time></trkpt>
<trkpt lat="32.175939000" lon="34.814062000"><ele>27.0</ele><time>2014-05-25T08:33:49Z</time></trkpt>
<trkpt lat="32.175853000" lon="34.814031000"><ele>27.1</ele><time>2014-05-25T08:33:51Z</time></trkpt>
<trkpt lat="32.175753000" lon="34.814010000"><ele>27.2</ele><time>2014-05-25T08:33:53Z</time></trkpt>
<trkpt lat="32.175652000" lon="34.813977000"><ele>27.3</ele><time>2014-05-25T08:33:55Z</time></trkpt>
<trkpt lat="32.175557000" lon="34.813936000"><ele>27.4</ele><time>2014-05-25T08:33:57Z</time></trkpt>
<trkpt lat="32.175453000" lon="34.813907000"><ele>27.5</ele><time>2014-05-25T08:34:00Z</time></trkpt>
<trkpt lat="32.175356000" lon="34.813871000"><ele>27.5</ele><time>2014-05-25T08:34:01Z</time></trkpt>
<trkpt lat="32.175255000" lon="34.813840000"><ele>27.6</ele><time>2014-05-25T08:34:03Z</time></trkpt>
<trkpt lat="32.175161000" lon="34.813802000"><ele>27.7</ele><time>2014-05-25T08:34:05Z</time></trkpt>
<trkpt lat="32.175067000" lon="34.813739000"><ele>27.8</ele><time>2014-05-25T08:34:07Z</time></trkpt>
<trkpt lat="32.174972000" lon="34.813677000"><ele>27.9</ele><time>2014-05-25T08:34:09Z</time></trkpt>
<trkpt lat="32.174884000" lon="34.813633000"><ele>28.0</ele><time>2014-05-25T08:34:11Z</time></trkpt>
<trkpt lat="32.174795000" lon="34.813580000"><ele>28.0</ele><time>2014-05-25T08:34:14Z</time></trkpt>
<trkpt lat="32.174711000" lon="34.813516000"><ele>28.0</ele><time>2014-05-25T08:34:15Z</time></trkpt>
<trkpt lat="32.174625000" lon="34.813455000"><ele>28.0</ele><time>2014-05-25T08:34:17Z</time></trkpt>
<trkpt lat="32.174531000" lon="34.813396000"><ele>28.0</ele><time>2014-05-25T08:34:19Z</time></trkpt>
<trkpt lat="32.174438000" lon="34.813333000"><ele>27.6</ele><time>2014-05-25T08:34:21Z</time></trkpt>
<trkpt lat="32.174352000" lon="34.813253000"><ele>27.3</ele><time>2014-05-25T08:34:24Z</time></trkpt>
<trkpt lat="32.174261000" lon="34.813182000"><ele>26.9</ele><time>2014-05-25T08:34:25Z</time></trkpt>
<trkpt lat="32.174167000" lon="34.813100000"><ele>26.5</ele><time>2014-05-25T08:34:27Z</time></trkpt>
<trkpt lat="32.174060000" lon="34.813032000"><ele>26.2</ele><time>2014-05-25T08:34:29Z</time></trkpt>
<trkpt lat="32.173969000" lon="34.812956000"><ele>25.8</ele><time>2014-05-25T08:34:31Z</time></trkpt>
<trkpt lat="32.173873000" lon="34.812886000"><ele>25.5</ele><time>2014-05-25T08:34:33Z</time></trkpt>
<trkpt lat="32.173777000" lon="34.812816000"><ele>25.1</ele><time>2014-05-25T08:34:35Z</time></trkpt>
<trkpt lat="32.173664000" lon="34.812752000"><ele>24.7</ele><time>2014-05-25T08:34:37Z</time></trkpt>
<trkpt lat="32.173571000" lon="34.812670000"><ele>24.4</ele><time>2014-05-25T08:34:40Z</time></trkpt>
<trkpt lat="32.173448000" lon="34.812606000"><ele>24.0</ele><time>2014-05-25T08:34:41Z</time></trkpt>
<trkpt lat="32.173337000" lon="34.812533000"><ele>24.0</ele><time>2014-05-25T08:34:44Z</time></trkpt>
<trkpt lat="32.173215000" lon="34.812474000"><ele>23.9</ele><time>2014-05-25T08:34:45Z</time></trkpt>
<trkpt lat="32.173086000" lon="34.812418000"><ele>23.8</ele><time>2014-05-25T08:34:47Z</time></trkpt>
<trkpt lat="32.172973000" lon="34.812370000"><ele>23.7</ele><time>2014-05-25T08:34:49Z</time></trkpt>
<trkpt lat="32.172860000" lon="34.812309000"><ele>23.6</ele><time>2014-05-25T08:34:51Z</time></trkpt>
<trkpt lat="32.172747000" lon="34.812224000"><ele>23.5</ele><time>2014-05-25T08:34:53Z</time></trkpt>
<trkpt lat="32.172618000" lon="34.812174000"><ele>23.3</ele><time>2014-05-25T08:34:55Z</time></trkpt>
<trkpt lat="32.172477000" lon="34.812139000"><ele>23.1</ele><time>2014-05-25T08:34:57Z</time></trkpt>
<trkpt lat="32.172351000" lon="34.812094000"><ele>22.9</ele><time>2014-05-25T08:34:59Z</time></trkpt>
<trkpt lat="32.172210000" lon="34.812029000"><ele>22.7</ele><time>2014-05-25T08:35:01Z</time></trkpt>
<trkpt lat="32.172070000" lon="34.811977000"><ele>22.5</ele><time>2014-05-25T08:35:03Z</time></trkpt>
<trkpt lat="32.171924000" lon="34.811926000"><ele>22.4</ele><time>2014-05-25T08:35:05Z</time></trkpt>
<trkpt lat="32.171782000" lon="34.811868000"><ele>22.2</ele><time>2014-05-25T08:35:07Z</time></trkpt>
<trkpt lat="32.171635000" lon="34.811807000"><ele>22.0</ele><time>2014-05-25T08:35:10Z</time></trkpt>
<trkpt lat="32.171553000" lon="34.811774000"><ele>21.8</ele><time>2014-05-25T08:35:10Z</time></trkpt>
<trkpt lat="32.171479000" lon="34.811734000"><ele>21.6</ele><time>2014-05-25T08:35:11Z</time></trkpt>
<trkpt lat="32.171334000" lon="34.811669000"><ele>21.4</ele><time>2014-05-25T08:35:13Z</time></trkpt>
<trkpt lat="32.171191000" lon="34.811598000"><ele>21.1</ele><time>2014-05-25T08:35:15Z</time></trkpt>
<trkpt lat="32.171050000" lon="34.811526000"><ele>20.8</ele><time>2014-05-25T08:35:17Z</time></trkpt>
<trkpt lat="32.170912000" lon="34.811453000"><ele>20.6</ele><time>2014-05-25T08:35:19Z</time></trkpt>
<trkpt lat="32.170835000" lon="34.811415000"><ele>20.5</ele><time>2014-05-25T08:35:20Z</time></trkpt>
<trkpt lat="32.170697000" lon="34.811340000"><ele>20.3</ele><time>2014-05-25T08:35:22Z</time></trkpt>
<trkpt lat="32.170567000" lon="34.811260000"><ele>20.1</ele><time>2014-05-25T08:35:24Z</time></trkpt>
<trkpt lat="32.170433000" lon="34.811181000"><ele>20.0</ele><time>2014-05-25T08:35:26Z</time></trkpt>
<trkpt lat="32.170291000" lon="34.811109000"><ele>19.9</ele><time>2014-05-25T08:35:29Z</time></trkpt>
<trkpt lat="32.170144000" lon="34.811052000"><ele>19.7</ele><time>2014-05-25T08:35:30Z</time></trkpt>
<trkpt lat="32.169999000" lon="34.810991000"><ele>19.5</ele><time>2014-05-25T08:35:32Z</time></trkpt>
<trkpt lat="32.169863000" lon="34.810937000"><ele>19.5</ele><time>2014-05-25T08:35:34Z</time></trkpt>
<trkpt lat="32.169729000" lon="34.810877000"><ele>19.5</ele><time>2014-05-25T08:35:36Z</time></trkpt>
<trkpt lat="32.169598000" lon="34.810800000"><ele>19.5</ele><time>2014-05-25T08:35:38Z</time></trkpt>
<trkpt lat="32.169463000" lon="34.810747000"><ele>19.4</ele><time>2014-05-25T08:35:40Z</time></trkpt>
<trkpt lat="32.169312000" lon="34.810699000"><ele>19.2</ele><time>2014-05-25T08:35:42Z</time></trkpt>
<trkpt lat="32.169153000" lon="34.810649000"><ele>19.0</ele><time>2014-05-25T08:35:44Z</time></trkpt>
<trkpt lat="32.169005000" lon="34.810600000"><ele>18.8</ele><time>2014-05-25T08:35:46Z</time></trkpt>
<trkpt lat="32.168857000" lon="34.810540000"><ele>18.6</ele><time>2014-05-25T08:35:48Z</time></trkpt>
<trkpt lat="32.168704000" lon="34.810474000"><ele>18.5</ele><time>2014-05-25T08:35:50Z</time></trkpt>
<trkpt lat="32.168626000" lon="34.810441000"><ele>18.4</ele><time>2014-05-25T08:35:51Z</time></trkpt>
<trkpt lat="32.168475000" lon="34.810381000"><ele>18.3</ele><time>2014-05-25T08:35:53Z</time></trkpt>
<trkpt lat="32.168397000" lon="34.810354000"><ele>18.2</ele><time>2014-05-25T08:35:54Z</time></trkpt>
<trkpt lat="32.168306000" lon="34.810332000"><ele>18.1</ele><time>2014-05-25T08:35:55Z</time></trkpt>
<trkpt lat="32.168228000" lon="34.810290000"><ele>18.0</ele><time>2014-05-25T08:35:56Z</time></trkpt>
<trkpt lat="32.168150000" lon="34.810251000"><ele>18.0</ele><time>2014-05-25T08:35:57Z</time></trkpt>
<trkpt lat="32.168073000" lon="34.810212000"><ele>18.0</ele><time>2014-05-25T08:35:58Z</time></trkpt>
<trkpt lat="32.168000000" lon="34.810144000"><ele>17.9</ele><time>2014-05-25T08:36:00Z</time></trkpt>
<trkpt lat="32.167869000" lon="34.810027000"><ele>17.8</ele><time>2014-05-25T08:36:01Z</time></trkpt>
<trkpt lat="32.167760000" lon="34.809898000"><ele>17.7</ele><time>2014-05-25T08:36:03Z</time></trkpt>
<trkpt lat="32.167640000" lon="34.809779000"><ele>17.6</ele><time>2014-05-25T08:36:05Z</time></trkpt>
<trkpt lat="32.167525000" lon="34.809646000"><ele>17.7</ele><time>2014-05-25T08:36:07Z</time></trkpt>
<trkpt lat="32.167466000" lon="34.809579000"><ele>17.8</ele><time>2014-05-25T08:36:09Z</time></trkpt>
<trkpt lat="32.167405000" lon="34.809511000"><ele>17.9</ele><time>2014-05-25T08:36:09Z</time></trkpt>
<trkpt lat="32.167307000" lon="34.809370000"><ele>18.0</ele><time>2014-05-25T08:36:11Z</time></trkpt>
<trkpt lat="32.167205000" lon="34.809247000"><ele>18.1</ele><time>2014-05-25T08:36:13Z</time></trkpt>
<trkpt lat="32.167103000" lon="34.809124000"><ele>18.2</ele><time>2014-05-25T08:36:15Z</time></trkpt>
<trkpt lat="32.167006000" lon="34.809021000"><ele>18.3</ele><time>2014-05-25T08:36:17Z</time></trkpt>
<trkpt lat="32.166910000" lon="34.808949000"><ele>18.2</ele><time>2014-05-25T08:36:19Z</time></trkpt>
<trkpt lat="32.166818000" lon="34.808970000"><ele>18.1</ele><time>2014-05-25T08:36:23Z</time></trkpt>
<trkpt lat="32.166723000" lon="34.808957000"><ele>18.0</ele><time>2014-05-25T08:36:27Z</time></trkpt>
<trkpt lat="32.166647000" lon="34.808885000"><ele>17.9</ele><time>2014-05-25T08:36:40Z</time></trkpt>
<trkpt lat="32.166576000" lon="34.808779000"><ele>17.6</ele><time>2014-05-25T08:36:43Z</time></trkpt>
<trkpt lat="32.166515000" lon="34.808713000"><ele>17.4</ele><time>2014-05-25T08:36:45Z</time></trkpt>
<trkpt lat="32.166449000" lon="34.808655000"><ele>17.1</ele><time>2014-05-25T08:36:47Z</time></trkpt>
<trkpt lat="32.166357000" lon="34.808559000"><ele>16.8</ele><time>2014-05-25T08:36:49Z</time></trkpt>
<trkpt lat="32.166279000" lon="34.808478000"><ele>16.5</ele><time>2014-05-25T08:36:51Z</time></trkpt>
<trkpt lat="32.166194000" lon="34.808395000"><ele>16.3</ele><time>2014-05-25T08:36:53Z</time></trkpt>
<trkpt lat="32.166097000" lon="34.808304000"><ele>15.9</ele><time>2014-05-25T08:36:55Z</time></trkpt>
<trkpt lat="32.165997000" lon="34.808205000"><ele>15.8</ele><time>2014-05-25T08:36:57Z</time></trkpt>
<trkpt lat="32.165899000" lon="34.808135000"><ele>15.5</ele><time>2014-05-25T08:36:59Z</time></trkpt>
<trkpt lat="32.165802000" lon="34.808053000"><ele>15.3</ele><time>2014-05-25T08:37:02Z</time></trkpt>
<trkpt lat="32.165702000" lon="34.807957000"><ele>15.0</ele><time>2014-05-25T08:37:03Z</time></trkpt>
<trkpt lat="32.165605000" lon="34.807863000"><ele>14.7</ele><time>2014-05-25T08:37:05Z</time></trkpt>
<trkpt lat="32.165509000" lon="34.807762000"><ele>14.5</ele><time>2014-05-25T08:37:08Z</time></trkpt>
<trkpt lat="32.165407000" lon="34.807664000"><ele>14.2</ele><time>2014-05-25T08:37:09Z</time></trkpt>
<trkpt lat="32.165308000" lon="34.807564000"><ele>14.1</ele><time>2014-05-25T08:37:12Z</time></trkpt>
<trkpt lat="32.165203000" lon="34.807462000"><ele>14.0</ele><time>2014-05-25T08:37:13Z</time></trkpt>
<trkpt lat="32.165108000" lon="34.807356000"><ele>13.9</ele><time>2014-05-25T08:37:15Z</time></trkpt>
<trkpt lat="32.165011000" lon="34.807253000"><ele>13.8</ele><time>2014-05-25T08:37:17Z</time></trkpt>
<trkpt lat="32.164955000" lon="34.807183000"><ele>13.7</ele><time>2014-05-25T08:37:19Z</time></trkpt>
<trkpt lat="32.164860000" lon="34.807108000"><ele>13.8</ele><time>2014-05-25T08:37:20Z</time></trkpt>
<trkpt lat="32.164742000" lon="34.807031000"><ele>13.9</ele><time>2014-05-25T08:37:22Z</time></trkpt>
<trkpt lat="32.164628000" lon="34.806954000"><ele>14.0</ele><time>2014-05-25T08:37:24Z</time></trkpt>
<trkpt lat="32.164509000" lon="34.806883000"><ele>14.1</ele><time>2014-05-25T08:37:26Z</time></trkpt>
<trkpt lat="32.164376000" lon="34.806812000"><ele>14.2</ele><time>2014-05-25T08:37:28Z</time></trkpt>
<trkpt lat="32.164253000" lon="34.806751000"><ele>14.1</ele><time>2014-05-25T08:37:30Z</time></trkpt>
<trkpt lat="32.164137000" lon="34.806678000"><ele>13.8</ele><time>2014-05-25T08:37:32Z</time></trkpt>
<trkpt lat="32.164024000" lon="34.806617000"><ele>13.5</ele><time>2014-05-25T08:37:34Z</time></trkpt>
<trkpt lat="32.163918000" lon="34.806532000"><ele>13.1</ele><time>2014-05-25T08:37:36Z</time></trkpt>
<trkpt lat="32.163805000" lon="34.806445000"><ele>12.8</ele><time>2014-05-25T08:37:38Z</time></trkpt>
<trkpt lat="32.163686000" lon="34.806379000"><ele>12.5</ele><time>2014-05-25T08:37:40Z</time></trkpt>
<trkpt lat="32.163574000" lon="34.806321000"><ele>12.3</ele><time>2014-05-25T08:37:42Z</time></trkpt>
<trkpt lat="32.163457000" lon="34.806296000"><ele>12.0</ele><time>2014-05-25T08:37:44Z</time></trkpt>
<trkpt lat="32.163366000" lon="34.806217000"><ele>11.7</ele><time>2014-05-25T08:37:46Z</time></trkpt>
<trkpt lat="32.163271000" lon="34.806160000"><ele>11.5</ele><time>2014-05-25T08:37:49Z</time></trkpt>
<trkpt lat="32.163172000" lon="34.806135000"><ele>11.2</ele><time>2014-05-25T08:37:52Z</time></trkpt>
<trkpt lat="32.163097000" lon="34.806075000"><ele>11.1</ele><time>2014-05-25T08:37:54Z</time></trkpt>
<trkpt lat="32.163015000" lon="34.806036000"><ele>11.0</ele><time>2014-05-25T08:37:56Z</time></trkpt>
<trkpt lat="32.162897000" lon="34.806040000"><ele>11.0</ele><time>2014-05-25T08:37:58Z</time></trkpt>
<trkpt lat="32.162794000" lon="34.806003000"><ele>11.0</ele><time>2014-05-25T08:38:00Z</time></trkpt>
<trkpt lat="32.162693000" lon="34.805952000"><ele>11.0</ele><time>2014-05-25T08:38:02Z</time></trkpt>
<trkpt lat="32.162596000" lon="34.805902000"><ele>11.1</ele><time>2014-05-25T08:38:04Z</time></trkpt>
<trkpt lat="32.162496000" lon="34.805833000"><ele>11.2</ele><time>2014-05-25T08:38:06Z</time></trkpt>
<trkpt lat="32.162401000" lon="34.805784000"><ele>11.3</ele><time>2014-05-25T08:38:08Z</time></trkpt>
<trkpt lat="32.162311000" lon="34.805748000"><ele>11.4</ele><time>2014-05-25T08:38:10Z</time></trkpt>
<trkpt lat="32.162208000" lon="34.805722000"><ele>11.5</ele><time>2014-05-25T08:38:12Z</time></trkpt>
<trkpt lat="32.162082000" lon="34.805708000"><ele>11.5</ele><time>2014-05-25T08:38:14Z</time></trkpt>
<trkpt lat="32.161988000" lon="34.805670000"><ele>11.6</ele><time>2014-05-25T08:38:16Z</time></trkpt>
<trkpt lat="32.161889000" lon="34.805715000"><ele>11.7</ele><time>2014-05-25T08:38:17Z</time></trkpt>
<trkpt lat="32.161781000" lon="34.805727000"><ele>12.1</ele><time>2014-05-25T08:38:19Z</time></trkpt>
<trkpt lat="32.161670000" lon="34.805676000"><ele>12.5</ele><time>2014-05-25T08:38:21Z</time></trkpt>
<trkpt lat="32.161554000" lon="34.805630000"><ele>12.8</ele><time>2014-05-25T08:38:23Z</time></trkpt>
<trkpt lat="32.161447000" lon="34.805584000"><ele>13.1</ele><time>2014-05-25T08:38:25Z</time></trkpt>
<trkpt lat="32.161344000" lon="34.805543000"><ele>13.4</ele><time>2014-05-25T08:38:27Z</time></trkpt>
<trkpt lat="32.161237000" lon="34.805488000"><ele>13.6</ele><time>2014-05-25T08:38:30Z</time></trkpt>
<trkpt lat="32.161136000" lon="34.805425000"><ele>13.9</ele><time>2014-05-25T08:38:31Z</time></trkpt>
<trkpt lat="32.161030000" lon="34.805405000"><ele>14.2</ele><time>2014-05-25T08:38:33Z</time></trkpt>
<trkpt lat="32.160948000" lon="34.805344000"><ele>14.5</ele><time>2014-05-25T08:38:35Z</time></trkpt>
<trkpt lat="32.160866000" lon="34.805314000"><ele>14.6</ele><time>2014-05-25T08:38:38Z</time></trkpt>
<trkpt lat="32.160779000" lon="34.805280000"><ele>14.8</ele><time>2014-05-25T08:38:39Z</time></trkpt>
<trkpt lat="32.160678000" lon="34.805234000"><ele>14.7</ele><time>2014-05-25T08:38:41Z</time></trkpt>
<trkpt lat="32.160584000" lon="34.805178000"><ele>14.6</ele><time>2014-05-25T08:38:43Z</time></trkpt>
<trkpt lat="32.160486000" lon="34.805122000"><ele>14.5</ele><time>2014-05-25T08:38:45Z</time></trkpt>
<trkpt lat="32.160386000" lon="34.805055000"><ele>14.5</ele><time>2014-05-25T08:38:47Z</time></trkpt>
<trkpt lat="32.160289000" lon="34.804985000"><ele>14.4</ele><time>2014-05-25T08:38:49Z</time></trkpt>
<trkpt lat="32.160193000" lon="34.804930000"><ele>14.3</ele><time>2014-05-25T08:38:51Z</time></trkpt>
<trkpt lat="32.160092000" lon="34.804869000"><ele>14.2</ele><time>2014-05-25T08:38:53Z</time></trkpt>
<trkpt lat="32.159998000" lon="34.804818000"><ele>14.1</ele><time>2014-05-25T08:38:55Z</time></trkpt>
<trkpt lat="32.159913000" lon="34.804742000"><ele>14.0</ele><time>2014-05-25T08:38:57Z</time></trkpt>
<trkpt lat="32.159818000" lon="34.804687000"><ele>14.0</ele><time>2014-05-25T08:39:00Z</time></trkpt>
<trkpt lat="32.159720000" lon="34.804636000"><ele>14.0</ele><time>2014-05-25T08:39:01Z</time></trkpt>
<trkpt lat="32.159611000" lon="34.804566000"><ele>14.0</ele><time>2014-05-25T08:39:03Z</time></trkpt>
<trkpt lat="32.159525000" lon="34.804493000"><ele>14.0</ele><time>2014-05-25T08:39:05Z</time></trkpt>
<trkpt lat="32.159421000" lon="34.804429000"><ele>14.0</ele><time>2014-05-25T08:39:07Z</time></trkpt>
<trkpt lat="32.159315000" lon="34.804376000"><ele>14.3</ele><time>2014-05-25T08:39:10Z</time></trkpt>
<trkpt lat="32.159200000" lon="34.804297000"><ele>14.5</ele><time>2014-05-25T08:39:12Z</time></trkpt>
<trkpt lat="32.159102000" lon="34.804250000"><ele>14.8</ele><time>2014-05-25T08:39:13Z</time></trkpt>
<trkpt lat="32.158985000" lon="34.804196000"><ele>15.1</ele><time>2014-05-25T08:39:16Z</time></trkpt>
<trkpt lat="32.158881000" lon="34.804136000"><ele>15.4</ele><time>2014-05-25T08:39:18Z</time></trkpt>
<trkpt lat="32.158765000" lon="34.804080000"><ele>15.7</ele><time>2014-05-25T08:39:19Z</time></trkpt>
<trkpt lat="32.158660000" lon="34.804030000"><ele>16.1</ele><time>2014-05-25T08:39:21Z</time></trkpt>
<trkpt lat="32.158554000" lon="34.803968000"><ele>16.5</ele><time>2014-05-25T08:39:23Z</time></trkpt>
<trkpt lat="32.158453000" lon="34.803910000"><ele>16.9</ele><time>2014-05-25T08:39:25Z</time></trkpt>
<trkpt lat="32.158346000" lon="34.803873000"><ele>17.4</ele><time>2014-05-25T08:39:27Z</time></trkpt>
<trkpt lat="32.158235000" lon="34.803808000"><ele>17.8</ele><time>2014-05-25T08:39:29Z</time></trkpt>
<trkpt lat="32.158126000" lon="34.803745000"><ele>18.0</ele><time>2014-05-25T08:39:31Z</time></trkpt>
<trkpt lat="32.158017000" lon="34.803685000"><ele>18.2</ele><time>2014-05-25T08:39:33Z</time></trkpt>
<trkpt lat="32.157911000" lon="34.803631000"><ele>18.4</ele><time>2014-05-25T08:39:35Z</time></trkpt>
<trkpt lat="32.157797000" lon="34.803571000"><ele>18.5</ele><time>2014-05-25T08:39:37Z</time></trkpt>
<trkpt lat="32.157693000" lon="34.803516000"><ele>18.7</ele><time>2014-05-25T08:39:39Z</time></trkpt>
<trkpt lat="32.157584000" lon="34.803459000"><ele>18.8</ele><time>2014-05-25T08:39:41Z</time></trkpt>
<trkpt lat="32.157468000" lon="34.803404000"><ele>18.9</ele><time>2014-05-25T08:39:43Z</time></trkpt>
<trkpt lat="32.157361000" lon="34.803343000"><ele>19.0</ele><time>2014-05-25T08:39:45Z</time></trkpt>
<trkpt lat="32.157260000" lon="34.803269000"><ele>19.3</ele><time>2014-05-25T08:39:47Z</time></trkpt>
<trkpt lat="32.157158000" lon="34.803209000"><ele>19.5</ele><time>2014-05-25T08:39:49Z</time></trkpt>
<trkpt lat="32.157060000" lon="34.803160000"><ele>19.8</ele><time>2014-05-25T08:39:51Z</time></trkpt>
<trkpt lat="32.156950000" lon="34.803098000"><ele>20.1</ele><time>2014-05-25T08:39:53Z</time></trkpt>
<trkpt lat="32.156848000" lon="34.803042000"><ele>20.4</ele><time>2014-05-25T08:39:55Z</time></trkpt>
<trkpt lat="32.156738000" lon="34.802978000"><ele>20.6</ele><time>2014-05-25T08:39:57Z</time></trkpt>
<trkpt lat="32.156635000" lon="34.802917000"><ele>20.9</ele><time>2014-05-25T08:40:00Z</time></trkpt>
<trkpt lat="32.156523000" lon="34.802866000"><ele>21.2</ele><time>2014-05-25T08:40:01Z</time></trkpt>
<trkpt lat="32.156418000" lon="34.802800000"><ele>21.5</ele><time>2014-05-25T08:40:03Z</time></trkpt>
<trkpt lat="32.156321000" lon="34.802742000"><ele>21.7</ele><time>2014-05-25T08:40:05Z</time></trkpt>
<trkpt lat="32.156224000" lon="34.802688000"><ele>22.0</ele><time>2014-05-25T08:40:07Z</time></trkpt>
<trkpt lat="32.156132000" lon="34.802638000"><ele>22.0</ele><time>2014-05-25T08:40:10Z</time></trkpt>
<trkpt lat="32.156045000" lon="34.802588000"><ele>22.0</ele><time>2014-05-25T08:40:11Z</time></trkpt>
<trkpt lat="32.155963000" lon="34.802546000"><ele>22.0</ele><time>2014-05-25T08:40:14Z</time></trkpt>
<trkpt lat="32.155887000" lon="34.802500000"><ele>22.0</ele><time>2014-05-25T08:40:16Z</time></trkpt>
<trkpt lat="32.155807000" lon="34.802454000"><ele>22.2</ele><time>2014-05-25T08:40:18Z</time></trkpt>
<trkpt lat="32.155721000" lon="34.802401000"><ele>22.4</ele><time>2014-05-25T08:40:20Z</time></trkpt>
<trkpt lat="32.155646000" lon="34.802356000"><ele>22.5</ele><time>2014-05-25T08:40:22Z</time></trkpt>
<trkpt lat="32.155540000" lon="34.802276000"><ele>22.7</ele><time>2014-05-25T08:40:25Z</time></trkpt>
<trkpt lat="32.155467000" lon="34.802228000"><ele>22.9</ele><time>2014-05-25T08:40:27Z</time></trkpt>
<trkpt lat="32.155376000" lon="34.802152000"><ele>23.2</ele><time>2014-05-25T08:40:30Z</time></trkpt>
<trkpt lat="32.155309000" lon="34.802064000"><ele>23.5</ele><time>2014-05-25T08:40:32Z</time></trkpt>
<trkpt lat="32.155210000" lon="34.802030000"><ele>23.7</ele><time>2014-05-25T08:40:35Z</time></trkpt>
<trkpt lat="32.155109000" lon="34.802101000"><ele>24.0</ele><time>2014-05-25T08:40:38Z</time></trkpt>
<trkpt lat="32.155068000" lon="34.802185000"><ele>24.3</ele><time>2014-05-25T08:40:40Z</time></trkpt>
<trkpt lat="32.155081000" lon="34.802287000"><ele>24.5</ele><time>2014-05-25T08:40:46Z</time></trkpt>
<trkpt lat="32.155086000" lon="34.802398000"><ele>24.6</ele><time>2014-05-25T08:40:49Z</time></trkpt>
<trkpt lat="32.155048000" lon="34.802540000"><ele>24.5</ele><time>2014-05-25T08:40:52Z</time></trkpt>
<trkpt lat="32.155017000" lon="34.802637000"><ele>24.3</ele><time>2014-05-25T08:40:54Z</time></trkpt>
<trkpt lat="32.154973000" lon="34.802759000"><ele>24.1</ele><time>2014-05-25T08:40:56Z</time></trkpt>
<trkpt lat="32.154932000" lon="34.802856000"><ele>23.9</ele><time>2014-05-25T08:40:58Z</time></trkpt>
<trkpt lat="32.154886000" lon="34.802953000"><ele>23.6</ele><time>2014-05-25T08:41:01Z</time></trkpt>
<trkpt lat="32.154850000" lon="34.803066000"><ele>23.4</ele><time>2014-05-25T08:41:02Z</time></trkpt>
<trkpt lat="32.154814000" lon="34.803165000"><ele>23.4</ele><time>2014-05-25T08:41:04Z</time></trkpt>
<trkpt lat="32.154773000" lon="34.803267000"><ele>23.4</ele><time>2014-05-25T08:41:06Z</time></trkpt>
<trkpt lat="32.154736000" lon="34.803379000"><ele>23.1</ele><time>2014-05-25T08:41:08Z</time></trkpt>
<trkpt lat="32.154682000" lon="34.803480000"><ele>22.8</ele><time>2014-05-25T08:41:10Z</time></trkpt>
<trkpt lat="32.154637000" lon="34.803593000"><ele>22.5</ele><time>2014-05-25T08:41:12Z</time></trkpt>
<trkpt lat="32.154596000" lon="34.803707000"><ele>22.5</ele><time>2014-05-25T08:41:14Z</time></trkpt>
<trkpt lat="32.154541000" lon="34.803810000"><ele>22.5</ele><time>2014-05-25T08:41:16Z</time></trkpt>
<trkpt lat="32.154502000" lon="34.803915000"><ele>22.5</ele><time>2014-05-25T08:41:18Z</time></trkpt>
<trkpt lat="32.154458000" lon="34.804033000"><ele>22.5</ele><time>2014-05-25T08:41:20Z</time></trkpt>
<trkpt lat="32.154407000" lon="34.804163000"><ele>22.4</ele><time>2014-05-25T08:41:22Z</time></trkpt>
<trkpt lat="32.154355000" lon="34.804294000"><ele>22.2</ele><time>2014-05-25T08:41:25Z</time></trkpt>
<trkpt lat="32.154285000" lon="34.804405000"><ele>21.7</ele><time>2014-05-25T08:41:26Z</time></trkpt>
<trkpt lat="32.154216000" lon="34.804502000"><ele>21.3</ele><time>2014-05-25T08:41:28Z</time></trkpt>
<trkpt lat="32.154156000" lon="34.804624000"><ele>21.1</ele><time>2014-05-25T08:41:30Z</time></trkpt>
<trkpt lat="32.154095000" lon="34.804746000"><ele>20.9</ele><time>2014-05-25T08:41:32Z</time></trkpt>
<trkpt lat="32.154034000" lon="34.804871000"><ele>20.7</ele><time>2014-05-25T08:41:34Z</time></trkpt>
<trkpt lat="32.153975000" lon="34.805004000"><ele>20.5</ele><time>2014-05-25T08:41:36Z</time></trkpt>
<trkpt lat="32.153906000" lon="34.805133000"><ele>20.4</ele><time>2014-05-25T08:41:38Z</time></trkpt>
<trkpt lat="32.153865000" lon="34.805229000"><ele>20.2</ele><time>2014-05-25T08:41:40Z</time></trkpt>
<trkpt lat="32.153824000" lon="34.805341000"><ele>20.0</ele><time>2014-05-25T08:41:43Z</time></trkpt>
<trkpt lat="32.153756000" lon="34.805443000"><ele>20.0</ele><time>2014-05-25T08:41:47Z</time></trkpt>
<trkpt lat="32.153716000" lon="34.805535000"><ele>20.0</ele><time>2014-05-25T08:41:50Z</time></trkpt>
<trkpt lat="32.153650000" lon="34.805656000"><ele>20.0</ele><time>2014-05-25T08:41:53Z</time></trkpt>
<trkpt lat="32.153602000" lon="34.805788000"><ele>20.0</ele><time>2014-05-25T08:41:56Z</time></trkpt>
<trkpt lat="32.153558000" lon="34.805872000"><ele>20.0</ele><time>2014-05-25T08:41:59Z</time></trkpt>
<trkpt lat="32.153496000" lon="34.805955000"><ele>20.0</ele><time>2014-05-25T08:42:00Z</time></trkpt>
<trkpt lat="32.153435000" lon="34.806024000"><ele>20.4</ele><time>2014-05-25T08:42:02Z</time></trkpt>
<trkpt lat="32.153341000" lon="34.806090000"><ele>20.7</ele><time>2014-05-25T08:42:05Z</time></trkpt>
<trkpt lat="32.153239000" lon="34.806085000"><ele>21.1</ele><time>2014-05-25T08:42:08Z</time></trkpt>
<trkpt lat="32.153135000" lon="34.806052000"><ele>21.5</ele><time>2014-05-25T08:42:11Z</time></trkpt>
<trkpt lat="32.153037000" lon="34.805998000"><ele>21.8</ele><time>2014-05-25T08:42:14Z</time></trkpt>
<trkpt lat="32.152941000" lon="34.805931000"><ele>22.2</ele><time>2014-05-25T08:42:17Z</time></trkpt>
<trkpt lat="32.152857000" lon="34.805867000"><ele>22.5</ele><time>2014-05-25T08:42:20Z</time></trkpt>
<trkpt lat="32.152781000" lon="34.805813000"><ele>22.9</ele><time>2014-05-25T08:42:23Z</time></trkpt>
<trkpt lat="32.152693000" lon="34.805777000"><ele>23.3</ele><time>2014-05-25T08:42:26Z</time></trkpt>
<trkpt lat="32.152602000" lon="34.805741000"><ele>23.5</ele><time>2014-05-25T08:42:29Z</time></trkpt>
<trkpt lat="32.152512000" lon="34.805689000"><ele>23.9</ele><time>2014-05-25T08:42:32Z</time></trkpt>
<trkpt lat="32.152427000" lon="34.805633000"><ele>24.0</ele><time>2014-05-25T08:42:35Z</time></trkpt>
<trkpt lat="32.152337000" lon="34.805584000"><ele>24.1</ele><time>2014-05-25T08:42:38Z</time></trkpt>
<trkpt lat="32.152256000" lon="34.805530000"><ele>24.2</ele><time>2014-05-25T08:42:42Z</time></trkpt>
<trkpt lat="32.152174000" lon="34.805479000"><ele>24.3</ele><time>2014-05-25T08:42:44Z</time></trkpt>
<trkpt lat="32.152091000" lon="34.805422000"><ele>24.4</ele><time>2014-05-25T08:42:47Z</time></trkpt>
<trkpt lat="32.152003000" lon="34.805373000"><ele>24.5</ele><time>2014-05-25T08:42:50Z</time></trkpt>
<trkpt lat="32.151907000" lon="34.805327000"><ele>24.5</ele><time>2014-05-25T08:42:54Z</time></trkpt>
<trkpt lat="32.151807000" lon="34.805275000"><ele>24.6</ele><time>2014-05-25T08:42:56Z</time></trkpt>
<trkpt lat="32.151710000" lon="34.805225000"><ele>24.6</ele><time>2014-05-25T08:43:00Z</time></trkpt>
<trkpt lat="32.151618000" lon="34.805171000"><ele>24.8</ele><time>2014-05-25T08:43:02Z</time></trkpt>
<trkpt lat="32.151528000" lon="34.805118000"><ele>24.7</ele><time>2014-05-25T08:43:05Z</time></trkpt>
<trkpt lat="32.151439000" lon="34.805061000"><ele>24.6</ele><time>2014-05-25T08:43:08Z</time></trkpt>
<trkpt lat="32.151350000" lon="34.805009000"><ele>24.5</ele><time>2014-05-25T08:43:11Z</time></trkpt>
<trkpt lat="32.151260000" lon="34.804955000"><ele>24.3</ele><time>2014-05-25T08:43:14Z</time></trkpt>
<trkpt lat="32.151164000" lon="34.804891000"><ele>24.0</ele><time>2014-05-25T08:43:17Z</time></trkpt>
<trkpt lat="32.151065000" lon="34.804826000"><ele>23.7</ele><time>2014-05-25T08:43:20Z</time></trkpt>
<trkpt lat="32.150957000" lon="34.804764000"><ele>23.5</ele><time>2014-05-25T08:43:23Z</time></trkpt>
<trkpt lat="32.150878000" lon="34.804724000"><ele>23.2</ele><time>2014-05-25T08:43:26Z</time></trkpt>
<trkpt lat="32.150779000" lon="34.804654000"><ele>23.0</ele><time>2014-05-25T08:43:27Z</time></trkpt>
<trkpt lat="32.150696000" lon="34.804609000"><ele>22.9</ele><time>2014-05-25T08:43:29Z</time></trkpt>
<trkpt lat="32.150614000" lon="34.804566000"><ele>22.8</ele><time>2014-05-25T08:43:31Z</time></trkpt>
<trkpt lat="32.150533000" lon="34.804520000"><ele>22.7</ele><time>2014-05-25T08:43:33Z</time></trkpt>
<trkpt lat="32.150447000" lon="34.804467000"><ele>22.6</ele><time>2014-05-25T08:43:36Z</time></trkpt>
<trkpt lat="32.150357000" lon="34.804409000"><ele>22.5</ele><time>2014-05-25T08:43:37Z</time></trkpt>
<trkpt lat="32.150271000" lon="34.804352000"><ele>22.6</ele><time>2014-05-25T08:43:39Z</time></trkpt>
<trkpt lat="32.150178000" lon="34.804302000"><ele>22.7</ele><time>2014-05-25T08:43:41Z</time></trkpt>
<trkpt lat="32.150090000" lon="34.804252000"><ele>22.8</ele><time>2014-05-25T08:43:43Z</time></trkpt>
<trkpt lat="32.150000000" lon="34.804210000"><ele>22.7</ele><time>2014-05-25T08:43:45Z</time></trkpt>
<trkpt lat="32.149908000" lon="34.804156000"><ele>22.6</ele><time>2014-05-25T08:43:47Z</time></trkpt>
<trkpt lat="32.149815000" lon="34.804104000"><ele>22.5</ele><time>2014-05-25T08:43:50Z</time></trkpt>
<trkpt lat="32.149725000" lon="34.804074000"><ele>22.3</ele><time>2014-05-25T08:43:52Z</time></trkpt>
<trkpt lat="32.149633000" lon="34.804037000"><ele>22.1</ele><time>2014-05-25T08:43:53Z</time></trkpt>
<trkpt lat="32.149545000" lon="34.803995000"><ele>21.9</ele><time>2014-05-25T08:43:55Z</time></trkpt>
<trkpt lat="32.149451000" lon="34.803964000"><ele>21.5</ele><time>2014-05-25T08:43:58Z</time></trkpt>
<trkpt lat="32.149357000" lon="34.803971000"><ele>21.2</ele><time>2014-05-25T08:44:00Z</time></trkpt>
<trkpt lat="32.149264000" lon="34.803950000"><ele>20.8</ele><time>2014-05-25T08:44:01Z</time></trkpt>
<trkpt lat="32.149155000" lon="34.803905000"><ele>20.5</ele><time>2014-05-25T08:44:04Z</time></trkpt>
<trkpt lat="32.149053000" lon="34.803857000"><ele>20.1</ele><time>2014-05-25T08:44:05Z</time></trkpt>
<trkpt lat="32.148944000" lon="34.803809000"><ele>19.9</ele><time>2014-05-25T08:44:08Z</time></trkpt>
<trkpt lat="32.148828000" lon="34.803768000"><ele>19.7</ele><time>2014-05-25T08:44:09Z</time></trkpt>
<trkpt lat="32.148719000" lon="34.803745000"><ele>19.5</ele><time>2014-05-25T08:44:11Z</time></trkpt>
<trkpt lat="32.148602000" lon="34.803693000"><ele>19.4</ele><time>2014-05-25T08:44:14Z</time></trkpt>
<trkpt lat="32.148491000" lon="34.803648000"><ele>19.2</ele><time>2014-05-25T08:44:16Z</time></trkpt>
<trkpt lat="32.148392000" lon="34.803602000"><ele>18.9</ele><time>2014-05-25T08:44:18Z</time></trkpt>
<trkpt lat="32.148292000" lon="34.803544000"><ele>18.8</ele><time>2014-05-25T08:44:21Z</time></trkpt>
<trkpt lat="32.148215000" lon="34.803486000"><ele>18.7</ele><time>2014-05-25T08:44:24Z</time></trkpt>
<trkpt lat="32.148100000" lon="34.803451000"><ele>18.6</ele><time>2014-05-25T08:44:27Z</time></trkpt>
<trkpt lat="32.148016000" lon="34.803410000"><ele>18.5</ele><time>2014-05-25T08:44:28Z</time></trkpt>
<trkpt lat="32.147918000" lon="34.803373000"><ele>18.5</ele><time>2014-05-25T08:44:30Z</time></trkpt>
<trkpt lat="32.147819000" lon="34.803341000"><ele>18.4</ele><time>2014-05-25T08:44:32Z</time></trkpt>
<trkpt lat="32.147728000" lon="34.803306000"><ele>18.3</ele><time>2014-05-25T08:44:35Z</time></trkpt>
<trkpt lat="32.147651000" lon="34.803262000"><ele>18.4</ele><time>2014-05-25T08:44:36Z</time></trkpt>
<trkpt lat="32.147527000" lon="34.803236000"><ele>18.5</ele><time>2014-05-25T08:44:39Z</time></trkpt>
<trkpt lat="32.147417000" lon="34.803236000"><ele>18.5</ele><time>2014-05-25T08:44:41Z</time></trkpt>
<trkpt lat="32.147328000" lon="34.803191000"><ele>18.7</ele><time>2014-05-25T08:44:43Z</time></trkpt>
<trkpt lat="32.147237000" lon="34.803166000"><ele>18.5</ele><time>2014-05-25T08:44:45Z</time></trkpt>
<trkpt lat="32.147121000" lon="34.803142000"><ele>18.4</ele><time>2014-05-25T08:44:48Z</time></trkpt>
<trkpt lat="32.147022000" lon="34.803139000"><ele>18.2</ele><time>2014-05-25T08:44:50Z</time></trkpt>
<trkpt lat="32.146924000" lon="34.803098000"><ele>18.0</ele><time>2014-05-25T08:44:52Z</time></trkpt>
<trkpt lat="32.146839000" lon="34.803056000"><ele>17.8</ele><time>2014-05-25T08:44:54Z</time></trkpt>
<trkpt lat="32.146729000" lon="34.803010000"><ele>17.5</ele><time>2014-05-25T08:44:56Z</time></trkpt>
<trkpt lat="32.146638000" lon="34.802969000"><ele>17.3</ele><time>2014-05-25T08:44:58Z</time></trkpt>
<trkpt lat="32.146537000" lon="34.802919000"><ele>16.8</ele><time>2014-05-25T08:45:00Z</time></trkpt>
<trkpt lat="32.146441000" lon="34.802871000"><ele>16.4</ele><time>2014-05-25T08:45:03Z</time></trkpt>
<trkpt lat="32.146330000" lon="34.802841000"><ele>15.9</ele><time>2014-05-25T08:45:04Z</time></trkpt>
<trkpt lat="32.146219000" lon="34.802832000"><ele>15.5</ele><time>2014-05-25T08:45:07Z</time></trkpt>
<trkpt lat="32.146119000" lon="34.802802000"><ele>15.4</ele><time>2014-05-25T08:45:09Z</time></trkpt>
<trkpt lat="32.146045000" lon="34.802757000"><ele>15.3</ele><time>2014-05-25T08:45:10Z</time></trkpt>
<trkpt lat="32.145955000" lon="34.802706000"><ele>15.2</ele><time>2014-05-25T08:45:13Z</time></trkpt>
<trkpt lat="32.145844000" lon="34.802670000"><ele>15.4</ele><time>2014-05-25T08:45:14Z</time></trkpt>
<trkpt lat="32.145728000" lon="34.802630000"><ele>15.5</ele><time>2014-05-25T08:45:16Z</time></trkpt>
<trkpt lat="32.145625000" lon="34.802589000"><ele>15.8</ele><time>2014-05-25T08:45:18Z</time></trkpt>
<trkpt lat="32.145530000" lon="34.802546000"><ele>16.1</ele><time>2014-05-25T08:45:20Z</time></trkpt>
<trkpt lat="32.145436000" lon="34.802511000"><ele>16.4</ele><time>2014-05-25T08:45:22Z</time></trkpt>
<trkpt lat="32.145345000" lon="34.802464000"><ele>16.6</ele><time>2014-05-25T08:45:25Z</time></trkpt>
<trkpt lat="32.145248000" lon="34.802433000"><ele>16.9</ele><time>2014-05-25T08:45:27Z</time></trkpt>
<trkpt lat="32.145152000" lon="34.802400000"><ele>17.2</ele><time>2014-05-25T08:45:29Z</time></trkpt>
<trkpt lat="32.145054000" lon="34.802372000"><ele>17.0</ele><time>2014-05-25T08:45:30Z</time></trkpt>
<trkpt lat="32.144949000" lon="34.802336000"><ele>16.8</ele><time>2014-05-25T08:45:32Z</time></trkpt>
<trkpt lat="32.144848000" lon="34.802297000"><ele>16.6</ele><time>2014-05-25T08:45:35Z</time></trkpt>
<trkpt lat="32.144752000" lon="34.802268000"><ele>16.2</ele><time>2014-05-25T08:45:37Z</time></trkpt>
<trkpt lat="32.144657000" lon="34.802233000"><ele>15.7</ele><time>2014-05-25T08:45:38Z</time></trkpt>
<trkpt lat="32.144570000" lon="34.802194000"><ele>15.3</ele><time>2014-05-25T08:45:40Z</time></trkpt>
<trkpt lat="32.144469000" lon="34.802167000"><ele>14.8</ele><time>2014-05-25T08:45:42Z</time></trkpt>
<trkpt lat="32.144374000" lon="34.802141000"><ele>14.4</ele><time>2014-05-25T08:45:44Z</time></trkpt>
<trkpt lat="32.144279000" lon="34.802120000"><ele>13.9</ele><time>2014-05-25T08:45:46Z</time></trkpt>
<trkpt lat="32.144187000" lon="34.802124000"><ele>13.7</ele><time>2014-05-25T08:45:48Z</time></trkpt>
<trkpt lat="32.144078000" lon="34.802148000"><ele>13.5</ele><time>2014-05-25T08:45:51Z</time></trkpt>
<trkpt lat="32.143991000" lon="34.802133000"><ele>13.8</ele><time>2014-05-25T08:45:55Z</time></trkpt>
<trkpt lat="32.143911000" lon="34.802061000"><ele>14.1</ele><time>2014-05-25T08:45:57Z</time></trkpt>
<trkpt lat="32.143816000" lon="34.802028000"><ele>14.4</ele><time>2014-05-25T08:45:58Z</time></trkpt>
<trkpt lat="32.143738000" lon="34.801991000"><ele>14.6</ele><time>2014-05-25T08:46:00Z</time></trkpt>
<trkpt lat="32.143663000" lon="34.801925000"><ele>14.9</ele><time>2014-05-25T08:46:02Z</time></trkpt>
<trkpt lat="32.143579000" lon="34.801874000"><ele>15.2</ele><time>2014-05-25T08:46:04Z</time></trkpt>
<trkpt lat="32.143493000" lon="34.801825000"><ele>15.5</ele><time>2014-05-25T08:46:06Z</time></trkpt>
<trkpt lat="32.143400000" lon="34.801785000"><ele>15.9</ele><time>2014-05-25T08:46:08Z</time></trkpt>
<trkpt lat="32.143304000" lon="34.801750000"><ele>16.4</ele><time>2014-05-25T08:46:11Z</time></trkpt>
<trkpt lat="32.143224000" lon="34.801714000"><ele>16.5</ele><time>2014-05-25T08:46:13Z</time></trkpt>
<trkpt lat="32.143132000" lon="34.801671000"><ele>16.5</ele><time>2014-05-25T08:46:14Z</time></trkpt>
<trkpt lat="32.143043000" lon="34.801609000"><ele>16.4</ele><time>2014-05-25T08:46:16Z</time></trkpt>
<trkpt lat="32.142941000" lon="34.801552000"><ele>16.3</ele><time>2014-05-25T08:46:19Z</time></trkpt>
<trkpt lat="32.142836000" lon="34.801476000"><ele>16.2</ele><time>2014-05-25T08:46:22Z</time></trkpt>
<trkpt lat="32.142765000" lon="34.801415000"><ele>16.1</ele><time>2014-05-25T08:46:25Z</time></trkpt>
<trkpt lat="32.142659000" lon="34.801338000"><ele>16.0</ele><time>2014-05-25T08:46:28Z</time></trkpt>
<trkpt lat="32.142581000" lon="34.801284000"><ele>15.9</ele><time>2014-05-25T08:46:30Z</time></trkpt>
<trkpt lat="32.142514000" lon="34.801220000"><ele>16.0</ele><time>2014-05-25T08:46:32Z</time></trkpt>
<trkpt lat="32.142437000" lon="34.801162000"><ele>15.9</ele><time>2014-05-25T08:46:34Z</time></trkpt>
<trkpt lat="32.142364000" lon="34.801094000"><ele>15.8</ele><time>2014-05-25T08:46:35Z</time></trkpt>
<trkpt lat="32.142278000" lon="34.801041000"><ele>15.7</ele><time>2014-05-25T08:46:38Z</time></trkpt>
<trkpt lat="32.142203000" lon="34.800980000"><ele>15.9</ele><time>2014-05-25T08:46:40Z</time></trkpt>
<trkpt lat="32.142119000" lon="34.800921000"><ele>16.1</ele><time>2014-05-25T08:46:42Z</time></trkpt>
<trkpt lat="32.142016000" lon="34.800860000"><ele>16.3</ele><time>2014-05-25T08:46:44Z</time></trkpt>
<trkpt lat="32.141932000" lon="34.800894000"><ele>16.5</ele><time>2014-05-25T08:46:47Z</time></trkpt>
<trkpt lat="32.141848000" lon="34.800930000"><ele>16.2</ele><time>2014-05-25T08:46:50Z</time></trkpt>
<trkpt lat="32.141770000" lon="34.800872000"><ele>15.9</ele><time>2014-05-25T08:46:55Z</time></trkpt>
<trkpt lat="32.141695000" lon="34.800792000"><ele>15.6</ele><time>2014-05-25T08:46:59Z</time></trkpt>
<trkpt lat="32.141643000" lon="34.800701000"><ele>15.2</ele><time>2014-05-25T08:47:02Z</time></trkpt>
<trkpt lat="32.141621000" lon="34.800577000"><ele>14.7</ele><time>2014-05-25T08:47:04Z</time></trkpt>
<trkpt lat="32.141614000" lon="34.800460000"><ele>14.3</ele><time>2014-05-25T08:47:06Z</time></trkpt>
<trkpt lat="32.141587000" lon="34.800354000"><ele>14.3</ele><time>2014-05-25T08:47:08Z</time></trkpt>
<trkpt lat="32.141561000" lon="34.800262000"><ele>14.3</ele><time>2014-05-25T08:47:09Z</time></trkpt>
<trkpt lat="32.141486000" lon="34.800299000"><ele>14.4</ele><time>2014-05-25T08:47:17Z</time></trkpt>
<trkpt lat="32.141447000" lon="34.800386000"><ele>14.5</ele><time>2014-05-25T08:47:21Z</time></trkpt>
<trkpt lat="32.141407000" lon="34.800492000"><ele>14.5</ele><time>2014-05-25T08:47:25Z</time></trkpt>
<trkpt lat="32.141373000" lon="34.800609000"><ele>15.1</ele><time>2014-05-25T08:47:29Z</time></trkpt>
<trkpt lat="32.141321000" lon="34.800692000"><ele>15.6</ele><time>2014-05-25T08:47:31Z</time></trkpt>
<trkpt lat="32.141285000" lon="34.800793000"><ele>16.2</ele><time>2014-05-25T08:47:35Z</time></trkpt>
<trkpt lat="32.141264000" lon="34.800894000"><ele>16.7</ele><time>2014-05-25T08:47:37Z</time></trkpt>
<trkpt lat="32.141250000" lon="34.801001000"><ele>17.3</ele><time>2014-05-25T08:47:40Z</time></trkpt>
<trkpt lat="32.141256000" lon="34.801098000"><ele>17.8</ele><time>2014-05-25T08:47:43Z</time></trkpt>
<trkpt lat="32.141167000" lon="34.801144000"><ele>17.9</ele><time>2014-05-25T08:47:47Z</time></trkpt>
<trkpt lat="32.141058000" lon="34.801125000"><ele>18.0</ele><time>2014-05-25T08:47:50Z</time></trkpt>
<trkpt lat="32.140974000" lon="34.801095000"><ele>18.0</ele><time>2014-05-25T08:47:52Z</time></trkpt>
<trkpt lat="32.140894000" lon="34.801064000"><ele>18.0</ele><time>2014-05-25T08:47:54Z</time></trkpt>
<trkpt lat="32.140803000" lon="34.801011000"><ele>17.5</ele><time>2014-05-25T08:47:57Z</time></trkpt>
<trkpt lat="32.140799000" lon="34.800898000"><ele>17.1</ele><time>2014-05-25T08:48:01Z</time></trkpt>
<trkpt lat="32.140864000" lon="34.800819000"><ele>16.6</ele><time>2014-05-25T08:48:04Z</time></trkpt>
<trkpt lat="32.140930000" lon="34.800731000"><ele>16.2</ele><time>2014-05-25T08:48:05Z</time></trkpt>
<trkpt lat="32.140979000" lon="34.800603000"><ele>15.7</ele><time>2014-05-25T08:48:07Z</time></trkpt>
<trkpt lat="32.141030000" lon="34.800467000"><ele>15.2</ele><time>2014-05-25T08:48:10Z</time></trkpt>
<trkpt lat="32.141078000" lon="34.800336000"><ele>14.6</ele><time>2014-05-25T08:48:11Z</time></trkpt>
<trkpt lat="32.141156000" lon="34.800214000"><ele>14.1</ele><time>2014-05-25T08:48:13Z</time></trkpt>
<trkpt lat="32.141217000" lon="34.800088000"><ele>13.5</ele><time>2014-05-25T08:48:15Z</time></trkpt>
<trkpt lat="32.141275000" lon="34.799978000"><ele>12.8</ele><time>2014-05-25T08:48:17Z</time></trkpt>
<trkpt lat="32.141330000" lon="34.799840000"><ele>12.2</ele><time>2014-05-25T08:48:21Z</time></trkpt>
<trkpt lat="32.141388000" lon="34.799763000"><ele>12.0</ele><time>2014-05-25T08:48:23Z</time></trkpt>
<trkpt lat="32.141417000" lon="34.799655000"><ele>11.8</ele><time>2014-05-25T08:48:25Z</time></trkpt>
<trkpt lat="32.141473000" lon="34.799546000"><ele>11.6</ele><time>2014-05-25T08:48:28Z</time></trkpt>
<trkpt lat="32.141446000" lon="34.799439000"><ele>11.5</ele><time>2014-05-25T08:48:32Z</time></trkpt>
<trkpt lat="32.141366000" lon="34.799423000"><ele>11.3</ele><time>2014-05-25T08:48:35Z</time></trkpt>
<trkpt lat="32.141284000" lon="34.799416000"><ele>11.2</ele><time>2014-05-25T08:48:39Z</time></trkpt>
<trkpt lat="32.141214000" lon="34.799320000"><ele>11.1</ele><time>2014-05-25T08:48:43Z</time></trkpt>
<trkpt lat="32.141143000" lon="34.799222000"><ele>10.8</ele><time>2014-05-25T08:48:46Z</time></trkpt>
<trkpt lat="32.141089000" lon="34.799120000"><ele>10.6</ele><time>2014-05-25T08:48:49Z</time></trkpt>
<trkpt lat="32.141063000" lon="34.799010000"><ele>10.5</ele><time>2014-05-25T08:48:52Z</time></trkpt>
<trkpt lat="32.141080000" lon="34.798902000"><ele>10.3</ele><time>2014-05-25T08:48:55Z</time></trkpt>
<trkpt lat="32.141143000" lon="34.798823000"><ele>10.2</ele><time>2014-05-25T08:48:58Z</time></trkpt>
<trkpt lat="32.141201000" lon="34.798749000"><ele>10.1</ele><time>2014-05-25T08:49:01Z</time></trkpt>
<trkpt lat="32.141190000" lon="34.798634000"><ele>10.0</ele><time>2014-05-25T08:49:06Z</time></trkpt>
<trkpt lat="32.141226000" lon="34.798548000"><ele>9.9</ele><time>2014-05-25T08:49:11Z</time></trkpt>
<trkpt lat="32.141286000" lon="34.798444000"><ele>9.8</ele><time>2014-05-25T08:49:15Z</time></trkpt>
<trkpt lat="32.141346000" lon="34.798346000"><ele>9.7</ele><time>2014-05-25T08:49:19Z</time></trkpt>
<trkpt lat="32.141429000" lon="34.798264000"><ele>9.6</ele><time>2014-05-25T08:49:23Z</time></trkpt>
<trkpt lat="32.141512000" lon="34.798233000"><ele>9.7</ele><time>2014-05-25T08:49:25Z</time></trkpt>
<trkpt lat="32.141599000" lon="34.798235000"><ele>9.8</ele><time>2014-05-25T08:49:28Z</time></trkpt>
<trkpt lat="32.141689000" lon="34.798246000"><ele>9.9</ele><time>2014-05-25T08:49:31Z</time></trkpt>
<trkpt lat="32.141779000" lon="34.798269000"><ele>10.0</ele><time>2014-05-25T08:49:34Z</time></trkpt>
<trkpt lat="32.141872000" lon="34.798324000"><ele>9.8</ele><time>2014-05-25T08:49:39Z</time></trkpt>
<trkpt lat="32.141958000" lon="34.798332000"><ele>9.6</ele><time>2014-05-25T08:49:43Z</time></trkpt>
<trkpt lat="32.141993000" lon="34.798220000"><ele>9.6</ele><time>2014-05-25T08:49:47Z</time></trkpt>
<trkpt lat="32.142024000" lon="34.798088000"><ele>9.6</ele><time>2014-05-25T08:49:49Z</time></trkpt>
<trkpt lat="32.142050000" lon="34.797960000"><ele>9.6</ele><time>2014-05-25T08:49:52Z</time></trkpt>
<trkpt lat="32.142091000" lon="34.797865000"><ele>9.6</ele><time>2014-05-25T08:49:53Z</time></trkpt>
<trkpt lat="32.142132000" lon="34.797762000"><ele>9.6</ele><time>2014-05-25T08:49:56Z</time></trkpt>
<trkpt lat="32.142155000" lon="34.797653000"><ele>9.6</ele><time>2014-05-25T08:49:58Z</time></trkpt>
<trkpt lat="32.142190000" lon="34.797555000"><ele>9.5</ele><time>2014-05-25T08:50:00Z</time></trkpt>
<trkpt lat="32.142225000" lon="34.797458000"><ele>9.3</ele><time>2014-05-25T08:50:01Z</time></trkpt>
<trkpt lat="32.142262000" lon="34.797363000"><ele>9.0</ele><time>2014-05-25T08:50:04Z</time></trkpt>
<trkpt lat="32.142290000" lon="34.797257000"><ele>8.9</ele><time>2014-05-25T08:50:05Z</time></trkpt>
<trkpt lat="32.142295000" lon="34.797133000"><ele>8.8</ele><time>2014-05-25T08:50:07Z</time></trkpt>
<trkpt lat="32.142237000" lon="34.797009000"><ele>8.5</ele><time>2014-05-25T08:50:10Z</time></trkpt>
<trkpt lat="32.142152000" lon="34.796894000"><ele>8.3</ele><time>2014-05-25T08:50:12Z</time></trkpt>
<trkpt lat="32.142095000" lon="34.796783000"><ele>8.2</ele><time>2014-05-25T08:50:14Z</time></trkpt>
<trkpt lat="32.142073000" lon="34.796658000"><ele>8.1</ele><time>2014-05-25T08:50:16Z</time></trkpt>
<trkpt lat="32.142079000" lon="34.796530000"><ele>8.0</ele><time>2014-05-25T08:50:18Z</time></trkpt>
<trkpt lat="32.142052000" lon="34.796401000"><ele>7.9</ele><time>2014-05-25T08:50:20Z</time></trkpt>
<trkpt lat="32.141991000" lon="34.796309000"><ele>8.0</ele><time>2014-05-25T08:50:22Z</time></trkpt>
<trkpt lat="32.141927000" lon="34.796226000"><ele>8.1</ele><time>2014-05-25T08:50:24Z</time></trkpt>
<trkpt lat="32.141871000" lon="34.796155000"><ele>8.3</ele><time>2014-05-25T08:50:26Z</time></trkpt>
<trkpt lat="32.141807000" lon="34.796080000"><ele>8.5</ele><time>2014-05-25T08:50:28Z</time></trkpt>
<trkpt lat="32.141741000" lon="34.796013000"><ele>8.6</ele><time>2014-05-25T08:50:30Z</time></trkpt>
<trkpt lat="32.141665000" lon="34.795936000"><ele>8.7</ele><time>2014-05-25T08:50:32Z</time></trkpt>
<trkpt lat="32.141594000" lon="34.795871000"><ele>8.8</ele><time>2014-05-25T08:50:34Z</time></trkpt>
<trkpt lat="32.141518000" lon="34.795799000"><ele>8.8</ele><time>2014-05-25T08:50:36Z</time></trkpt>
<trkpt lat="32.141449000" lon="34.795741000"><ele>8.8</ele><time>2014-05-25T08:50:38Z</time></trkpt>
<trkpt lat="32.141369000" lon="34.795666000"><ele>8.8</ele><time>2014-05-25T08:50:40Z</time></trkpt>
<trkpt lat="32.141298000" lon="34.795601000"><ele>8.8</ele><time>2014-05-25T08:50:42Z</time></trkpt>
<trkpt lat="32.141231000" lon="34.795530000"><ele>8.8</ele><time>2014-05-25T08:50:44Z</time></trkpt>
<trkpt lat="32.141161000" lon="34.795453000"><ele>8.8</ele><time>2014-05-25T08:50:46Z</time></trkpt>
<trkpt lat="32.141073000" lon="34.795376000"><ele>8.8</ele><time>2014-05-25T08:50:50Z</time></trkpt>
<trkpt lat="32.140995000" lon="34.795317000"><ele>8.8</ele><time>2014-05-25T08:50:53Z</time></trkpt>
<trkpt lat="32.140906000" lon="34.795233000"><ele>8.8</ele><time>2014-05-25T08:50:55Z</time></trkpt>
<trkpt lat="32.140811000" lon="34.795150000"><ele>8.9</ele><time>2014-05-25T08:50:58Z</time></trkpt>
<trkpt lat="32.140746000" lon="34.795093000"><ele>9.1</ele><time>2014-05-25T08:51:00Z</time></trkpt>
<trkpt lat="32.140679000" lon="34.795033000"><ele>9.2</ele><time>2014-05-25T08:51:03Z</time></trkpt>
<trkpt lat="32.140614000" lon="34.794971000"><ele>9.1</ele><time>2014-05-25T08:51:05Z</time></trkpt>
<trkpt lat="32.140547000" lon="34.794906000"><ele>9.0</ele><time>2014-05-25T08:51:07Z</time></trkpt>
<trkpt lat="32.140475000" lon="34.794823000"><ele>8.9</ele><time>2014-05-25T08:51:09Z</time></trkpt>
<trkpt lat="32.140403000" lon="34.794767000"><ele>8.8</ele><time>2014-05-25T08:51:11Z</time></trkpt>
<trkpt lat="32.140336000" lon="34.794702000"><ele>8.7</ele><time>2014-05-25T08:51:13Z</time></trkpt>
<trkpt lat="32.140271000" lon="34.794641000"><ele>8.6</ele><time>2014-05-25T08:51:14Z</time></trkpt>
<trkpt lat="32.140181000" lon="34.794550000"><ele>8.5</ele><time>2014-05-25T08:51:17Z</time></trkpt>
<trkpt lat="32.140116000" lon="34.794489000"><ele>8.5</ele><time>2014-05-25T08:51:19Z</time></trkpt>
<trkpt lat="32.140049000" lon="34.794429000"><ele>8.4</ele><time>2014-05-25T08:51:21Z</time></trkpt>
<trkpt lat="32.139979000" lon="34.794370000"><ele>8.1</ele><time>2014-05-25T08:51:23Z</time></trkpt>
<trkpt lat="32.139908000" lon="34.794312000"><ele>7.8</ele><time>2014-05-25T08:51:26Z</time></trkpt>
<trkpt lat="32.139836000" lon="34.794256000"><ele>7.7</ele><time>2014-05-25T08:51:28Z</time></trkpt>
<trkpt lat="32.139752000" lon="34.794206000"><ele>7.6</ele><time>2014-05-25T08:51:30Z</time></trkpt>
<trkpt lat="32.139660000" lon="34.794163000"><ele>7.5</ele><time>2014-05-25T08:51:32Z</time></trkpt>
<trkpt lat="32.139583000" lon="34.794109000"><ele>7.5</ele><time>2014-05-25T08:51:34Z</time></trkpt>
<trkpt lat="32.139504000" lon="34.794054000"><ele>7.5</ele><time>2014-05-25T08:51:36Z</time></trkpt>
<trkpt lat="32.139418000" lon="34.794009000"><ele>7.5</ele><time>2014-05-25T08:51:38Z</time></trkpt>
<trkpt lat="32.139342000" lon="34.793968000"><ele>7.5</ele><time>2014-05-25T08:51:40Z</time></trkpt>
<trkpt lat="32.139253000" lon="34.793925000"><ele>7.5</ele><time>2014-05-25T08:51:42Z</time></trkpt>
<trkpt lat="32.139172000" lon="34.793881000"><ele>7.6</ele><time>2014-05-25T08:51:43Z</time></trkpt>
<trkpt lat="32.139097000" lon="34.793840000"><ele>7.9</ele><time>2014-05-25T08:51:45Z</time></trkpt>
<trkpt lat="32.138988000" lon="34.793782000"><ele>8.2</ele><time>2014-05-25T08:51:49Z</time></trkpt>
<trkpt lat="32.138908000" lon="34.793738000"><ele>8.5</ele><time>2014-05-25T08:51:51Z</time></trkpt>
<trkpt lat="32.138815000" lon="34.793682000"><ele>8.7</ele><time>2014-05-25T08:51:52Z</time></trkpt>
<trkpt lat="32.138717000" lon="34.793640000"><ele>9.0</ele><time>2014-05-25T08:51:54Z</time></trkpt>
<trkpt lat="32.138617000" lon="34.793605000"><ele>9.3</ele><time>2014-05-25T08:51:56Z</time></trkpt>
<trkpt lat="32.138526000" lon="34.793562000"><ele>9.5</ele><time>2014-05-25T08:51:58Z</time></trkpt>
<trkpt lat="32.138414000" lon="34.793523000"><ele>9.5</ele><time>2014-05-25T08:52:00Z</time></trkpt>
<trkpt lat="32.138305000" lon="34.793489000"><ele>9.6</ele><time>2014-05-25T08:52:03Z</time></trkpt>
<trkpt lat="32.138191000" lon="34.793452000"><ele>9.7</ele><time>2014-05-25T08:52:04Z</time></trkpt>
<trkpt lat="32.138075000" lon="34.793416000"><ele>9.6</ele><time>2014-05-25T08:52:06Z</time></trkpt>
<trkpt lat="32.137965000" lon="34.793389000"><ele>9.5</ele><time>2014-05-25T08:52:08Z</time></trkpt>
<trkpt lat="32.137860000" lon="34.793380000"><ele>9.5</ele><time>2014-05-25T08:52:10Z</time></trkpt>
<trkpt lat="32.137750000" lon="34.793362000"><ele>9.4</ele><time>2014-05-25T08:52:12Z</time></trkpt>
<trkpt lat="32.137647000" lon="34.793347000"><ele>9.1</ele><time>2014-05-25T08:52:14Z</time></trkpt>
<trkpt lat="32.137542000" lon="34.793329000"><ele>8.8</ele><time>2014-05-25T08:52:17Z</time></trkpt>
<trkpt lat="32.137432000" lon="34.793318000"><ele>8.5</ele><time>2014-05-25T08:52:19Z</time></trkpt>
<trkpt lat="32.137318000" lon="34.793310000"><ele>8.3</ele><time>2014-05-25T08:52:21Z</time></trkpt>
<trkpt lat="32.137203000" lon="34.793299000"><ele>8.1</ele><time>2014-05-25T08:52:23Z</time></trkpt>
<trkpt lat="32.137085000" lon="34.793289000"><ele>7.9</ele><time>2014-05-25T08:52:25Z</time></trkpt>
<trkpt lat="32.136987000" lon="34.793282000"><ele>7.7</ele><time>2014-05-25T08:52:27Z</time></trkpt>
<trkpt lat="32.136871000" lon="34.793297000"><ele>7.5</ele><time>2014-05-25T08:52:29Z</time></trkpt>
<trkpt lat="32.136770000" lon="34.793286000"><ele>7.5</ele><time>2014-05-25T08:52:31Z</time></trkpt>
<trkpt lat="32.136689000" lon="34.793271000"><ele>7.4</ele><time>2014-05-25T08:52:33Z</time></trkpt>
<trkpt lat="32.136592000" lon="34.793284000"><ele>7.3</ele><time>2014-05-25T08:52:35Z</time></trkpt>
<trkpt lat="32.136496000" lon="34.793255000"><ele>7.4</ele><time>2014-05-25T08:52:37Z</time></trkpt>
<trkpt lat="32.136399000" lon="34.793233000"><ele>7.5</ele><time>2014-05-25T08:52:39Z</time></trkpt>
<trkpt lat="32.136289000" lon="34.793212000"><ele>7.5</ele><time>2014-05-25T08:52:41Z</time></trkpt>
<trkpt lat="32.136186000" lon="34.793186000"><ele>7.6</ele><time>2014-05-25T08:52:42Z</time></trkpt>
<trkpt lat="32.136073000" lon="34.793153000"><ele>7.7</ele><time>2014-05-25T08:52:44Z</time></trkpt>
<trkpt lat="32.135958000" lon="34.793136000"><ele>7.9</ele><time>2014-05-25T08:52:46Z</time></trkpt>
<trkpt lat="32.135841000" lon="34.793104000"><ele>8.1</ele><time>2014-05-25T08:52:49Z</time></trkpt>
<trkpt lat="32.135738000" lon="34.793084000"><ele>8.3</ele><time>2014-05-25T08:52:51Z</time></trkpt>
<trkpt lat="32.135621000" lon="34.793062000"><ele>8.4</ele><time>2014-05-25T08:52:52Z</time></trkpt>
<trkpt lat="32.135500000" lon="34.793036000"><ele>8.5</ele><time>2014-05-25T08:52:54Z</time></trkpt>
<trkpt lat="32.135375000" lon="34.793002000"><ele>8.5</ele><time>2014-05-25T08:52:56Z</time></trkpt>
<trkpt lat="32.135255000" lon="34.792975000"><ele>8.6</ele><time>2014-05-25T08:52:58Z</time></trkpt>
<trkpt lat="32.135130000" lon="34.792935000"><ele>8.8</ele><time>2014-05-25T08:53:01Z</time></trkpt>
<trkpt lat="32.134998000" lon="34.792900000"><ele>9.0</ele><time>2014-05-25T08:53:03Z</time></trkpt>
<trkpt lat="32.134878000" lon="34.792865000"><ele>9.2</ele><time>2014-05-25T08:53:05Z</time></trkpt>
<trkpt lat="32.134753000" lon="34.792821000"><ele>9.4</ele><time>2014-05-25T08:53:07Z</time></trkpt>
<trkpt lat="32.134643000" lon="34.792779000"><ele>9.5</ele><time>2014-05-25T08:53:09Z</time></trkpt>
<trkpt lat="32.134530000" lon="34.792730000"><ele>9.5</ele><time>2014-05-25T08:53:11Z</time></trkpt>
<trkpt lat="32.134416000" lon="34.792681000"><ele>9.6</ele><time>2014-05-25T08:53:13Z</time></trkpt>
<trkpt lat="32.134296000" lon="34.792639000"><ele>9.7</ele><time>2014-05-25T08:53:15Z</time></trkpt>
<trkpt lat="32.134172000" lon="34.792610000"><ele>9.8</ele><time>2014-05-25T08:53:17Z</time></trkpt>
<trkpt lat="32.134052000" lon="34.792661000"><ele>9.9</ele><time>2014-05-25T08:53:19Z</time></trkpt>
<trkpt lat="32.133943000" lon="34.792633000"><ele>10.0</ele><time>2014-05-25T08:53:21Z</time></trkpt>
<trkpt lat="32.133839000" lon="34.792585000"><ele>10.0</ele><time>2014-05-25T08:53:23Z</time></trkpt>
<trkpt lat="32.133735000" lon="34.792540000"><ele>9.7</ele><time>2014-05-25T08:53:25Z</time></trkpt>
<trkpt lat="32.133634000" lon="34.792484000"><ele>9.5</ele><time>2014-05-25T08:53:27Z</time></trkpt>
<trkpt lat="32.133564000" lon="34.792373000"><ele>9.2</ele><time>2014-05-25T08:53:29Z</time></trkpt>
<trkpt lat="32.133485000" lon="34.792293000"><ele>8.9</ele><time>2014-05-25T08:53:31Z</time></trkpt>
<trkpt lat="32.133377000" lon="34.792233000"><ele>9.1</ele><time>2014-05-25T08:53:33Z</time></trkpt>
<trkpt lat="32.133269000" lon="34.792173000"><ele>9.3</ele><time>2014-05-25T08:53:35Z</time></trkpt>
<trkpt lat="32.133172000" lon="34.792109000"><ele>9.5</ele><time>2014-05-25T08:53:37Z</time></trkpt>
<trkpt lat="32.133072000" lon="34.792046000"><ele>9.6</ele><time>2014-05-25T08:53:39Z</time></trkpt>
<trkpt lat="32.132968000" lon="34.791989000"><ele>9.8</ele><time>2014-05-25T08:53:41Z</time></trkpt>
<trkpt lat="32.132877000" lon="34.791936000"><ele>10.0</ele><time>2014-05-25T08:53:43Z</time></trkpt>
<trkpt lat="32.132793000" lon="34.791895000"><ele>10.2</ele><time>2014-05-25T08:53:45Z</time></trkpt>
<trkpt lat="32.132702000" lon="34.791849000"><ele>10.6</ele><time>2014-05-25T08:53:47Z</time></trkpt>
<trkpt lat="32.132618000" lon="34.791793000"><ele>11.1</ele><time>2014-05-25T08:53:49Z</time></trkpt>
<trkpt lat="32.132540000" lon="34.791745000"><ele>11.6</ele><time>2014-05-25T08:53:50Z</time></trkpt>
<trkpt lat="32.132425000" lon="34.791697000"><ele>12.2</ele><time>2014-05-25T08:53:52Z</time></trkpt>
<trkpt lat="32.132324000" lon="34.791663000"><ele>12.3</ele><time>2014-05-25T08:53:56Z</time></trkpt>
<trkpt lat="32.132253000" lon="34.791599000"><ele>12.4</ele><time>2014-05-25T08:53:59Z</time></trkpt>
<trkpt lat="32.132150000" lon="34.791535000"><ele>12.5</ele><time>2014-05-25T08:54:02Z</time></trkpt>
<trkpt lat="32.132091000" lon="34.791455000"><ele>12.5</ele><time>2014-05-25T08:54:03Z</time></trkpt>
<trkpt lat="32.131997000" lon="34.791379000"><ele>12.6</ele><time>2014-05-25T08:54:06Z</time></trkpt>
<trkpt lat="32.131912000" lon="34.791326000"><ele>12.7</ele><time>2014-05-25T08:54:08Z</time></trkpt>
<trkpt lat="32.131822000" lon="34.791260000"><ele>12.8</ele><time>2014-05-25T08:54:10Z</time></trkpt>
<trkpt lat="32.131754000" lon="34.791193000"><ele>13.1</ele><time>2014-05-25T08:54:11Z</time></trkpt>
<trkpt lat="32.131655000" lon="34.791144000"><ele>13.4</ele><time>2014-05-25T08:54:14Z</time></trkpt>
<trkpt lat="32.131563000" lon="34.791083000"><ele>13.5</ele><time>2014-05-25T08:54:16Z</time></trkpt>
<trkpt lat="32.131454000" lon="34.791025000"><ele>13.7</ele><time>2014-05-25T08:54:18Z</time></trkpt>
<trkpt lat="32.131360000" lon="34.790966000"><ele>13.9</ele><time>2014-05-25T08:54:20Z</time></trkpt>
<trkpt lat="32.131274000" lon="34.790901000"><ele>14.1</ele><time>2014-05-25T08:54:22Z</time></trkpt>
<trkpt lat="32.131170000" lon="34.790842000"><ele>14.3</ele><time>2014-05-25T08:54:24Z</time></trkpt>
<trkpt lat="32.131075000" lon="34.790784000"><ele>14.5</ele><time>2014-05-25T08:54:26Z</time></trkpt>
<trkpt lat="32.131000000" lon="34.790744000"><ele>14.6</ele><time>2014-05-25T08:54:28Z</time></trkpt>
<trkpt lat="32.130910000" lon="34.790697000"><ele>14.8</ele><time>2014-05-25T08:54:30Z</time></trkpt>
<trkpt lat="32.130819000" lon="34.790645000"><ele>15.0</ele><time>2014-05-25T08:54:32Z</time></trkpt>
<trkpt lat="32.130718000" lon="34.790599000"><ele>15.3</ele><time>2014-05-25T08:54:34Z</time></trkpt>
<trkpt lat="32.130629000" lon="34.790554000"><ele>15.5</ele><time>2014-05-25T08:54:36Z</time></trkpt>
<trkpt lat="32.130529000" lon="34.790504000"><ele>15.8</ele><time>2014-05-25T08:54:37Z</time></trkpt>
<trkpt lat="32.130421000" lon="34.790466000"><ele>16.1</ele><time>2014-05-25T08:54:39Z</time></trkpt>
<trkpt lat="32.130304000" lon="34.790433000"><ele>16.4</ele><time>2014-05-25T08:54:41Z</time></trkpt>
<trkpt lat="32.130193000" lon="34.790359000"><ele>16.6</ele><time>2014-05-25T08:54:43Z</time></trkpt>
<trkpt lat="32.130088000" lon="34.790306000"><ele>16.7</ele><time>2014-05-25T08:54:45Z</time></trkpt>
<trkpt lat="32.129988000" lon="34.790240000"><ele>16.8</ele><time>2014-05-25T08:54:47Z</time></trkpt>
<trkpt lat="32.129884000" lon="34.790193000"><ele>16.9</ele><time>2014-05-25T08:54:50Z</time></trkpt>
<trkpt lat="32.129791000" lon="34.790140000"><ele>17.0</ele><time>2014-05-25T08:54:51Z</time></trkpt>
<trkpt lat="32.129694000" lon="34.790084000"><ele>17.1</ele><time>2014-05-25T08:54:53Z</time></trkpt>
<trkpt lat="32.129598000" lon="34.790035000"><ele>16.9</ele><time>2014-05-25T08:54:55Z</time></trkpt>
<trkpt lat="32.129490000" lon="34.789977000"><ele>16.7</ele><time>2014-05-25T08:54:57Z</time></trkpt>
<trkpt lat="32.129375000" lon="34.789941000"><ele>16.5</ele><time>2014-05-25T08:55:00Z</time></trkpt>
<trkpt lat="32.129224000" lon="34.789874000"><ele>16.3</ele><time>2014-05-25T08:55:02Z</time></trkpt>
<trkpt lat="32.129119000" lon="34.789799000"><ele>16.0</ele><time>2014-05-25T08:55:04Z</time></trkpt>
<trkpt lat="32.129019000" lon="34.789728000"><ele>15.7</ele><time>2014-05-25T08:55:06Z</time></trkpt>
<trkpt lat="32.128921000" lon="34.789666000"><ele>15.6</ele><time>2014-05-25T08:55:07Z</time></trkpt>
<trkpt lat="32.128816000" lon="34.789605000"><ele>15.5</ele><time>2014-05-25T08:55:09Z</time></trkpt>
<trkpt lat="32.128700000" lon="34.789556000"><ele>15.5</ele><time>2014-05-25T08:55:11Z</time></trkpt>
<trkpt lat="32.128594000" lon="34.789522000"><ele>15.4</ele><time>2014-05-25T08:55:14Z</time></trkpt>
<trkpt lat="32.128499000" lon="34.789470000"><ele>15.3</ele><time>2014-05-25T08:55:16Z</time></trkpt>
<trkpt lat="32.128397000" lon="34.789407000"><ele>15.2</ele><time>2014-05-25T08:55:17Z</time></trkpt>
<trkpt lat="32.128303000" lon="34.789332000"><ele>15.1</ele><time>2014-05-25T08:55:20Z</time></trkpt>
<trkpt lat="32.128211000" lon="34.789247000"><ele>15.0</ele><time>2014-05-25T08:55:21Z</time></trkpt>
<trkpt lat="32.128103000" lon="34.789183000"><ele>15.0</ele><time>2014-05-25T08:55:23Z</time></trkpt>
<trkpt lat="32.127990000" lon="34.789109000"><ele>15.0</ele><time>2014-05-25T08:55:25Z</time></trkpt>
<trkpt lat="32.127886000" lon="34.789041000"><ele>15.0</ele><time>2014-05-25T08:55:27Z</time></trkpt>
<trkpt lat="32.127760000" lon="34.788985000"><ele>15.0</ele><time>2014-05-25T08:55:30Z</time></trkpt>
<trkpt lat="32.127641000" lon="34.788945000"><ele>15.1</ele><time>2014-05-25T08:55:31Z</time></trkpt>
<trkpt lat="32.127515000" lon="34.788905000"><ele>15.1</ele><time>2014-05-25T08:55:34Z</time></trkpt>
<trkpt lat="32.127390000" lon="34.788860000"><ele>15.1</ele><time>2014-05-25T08:55:36Z</time></trkpt>
<trkpt lat="32.127276000" lon="34.788832000"><ele>15.1</ele><time>2014-05-25T08:55:38Z</time></trkpt>
<trkpt lat="32.127165000" lon="34.788807000"><ele>15.1</ele><time>2014-05-25T08:55:40Z</time></trkpt>
<trkpt lat="32.127049000" lon="34.788780000"><ele>15.1</ele><time>2014-05-25T08:55:42Z</time></trkpt>
<trkpt lat="32.126932000" lon="34.788739000"><ele>15.1</ele><time>2014-05-25T08:55:43Z</time></trkpt>
<trkpt lat="32.126812000" lon="34.788706000"><ele>15.2</ele><time>2014-05-25T08:55:45Z</time></trkpt>
<trkpt lat="32.126684000" lon="34.788676000"><ele>15.3</ele><time>2014-05-25T08:55:48Z</time></trkpt>
<trkpt lat="32.126598000" lon="34.788665000"><ele>15.4</ele><time>2014-05-25T08:55:49Z</time></trkpt>
<trkpt lat="32.126479000" lon="34.788671000"><ele>15.5</ele><time>2014-05-25T08:55:50Z</time></trkpt>
<trkpt lat="32.126361000" lon="34.788668000"><ele>15.5</ele><time>2014-05-25T08:55:52Z</time></trkpt>
<trkpt lat="32.126237000" lon="34.788652000"><ele>15.5</ele><time>2014-05-25T08:55:55Z</time></trkpt>
<trkpt lat="32.126105000" lon="34.788646000"><ele>15.6</ele><time>2014-05-25T08:55:57Z</time></trkpt>
<trkpt lat="32.125976000" lon="34.788627000"><ele>15.6</ele><time>2014-05-25T08:55:59Z</time></trkpt>
<trkpt lat="32.125836000" lon="34.788612000"><ele>15.6</ele><time>2014-05-25T08:56:01Z</time></trkpt>
<trkpt lat="32.125706000" lon="34.788609000"><ele>15.6</ele><time>2014-05-25T08:56:03Z</time></trkpt>
<trkpt lat="32.125572000" lon="34.788600000"><ele>15.6</ele><time>2014-05-25T08:56:05Z</time></trkpt>
<trkpt lat="32.125451000" lon="34.788586000"><ele>15.5</ele><time>2014-05-25T08:56:06Z</time></trkpt>
<trkpt lat="32.125322000" lon="34.788583000"><ele>15.5</ele><time>2014-05-25T08:56:09Z</time></trkpt>
<trkpt lat="32.125186000" lon="34.788586000"><ele>15.3</ele><time>2014-05-25T08:56:11Z</time></trkpt>
<trkpt lat="32.125053000" lon="34.788574000"><ele>15.1</ele><time>2014-05-25T08:56:13Z</time></trkpt>
<trkpt lat="32.124906000" lon="34.788562000"><ele>14.9</ele><time>2014-05-25T08:56:14Z</time></trkpt>
<trkpt lat="32.124816000" lon="34.788548000"><ele>14.7</ele><time>2014-05-25T08:56:16Z</time></trkpt>
<trkpt lat="32.124683000" lon="34.788538000"><ele>14.5</ele><time>2014-05-25T08:56:18Z</time></trkpt>
<trkpt lat="32.124549000" lon="34.788509000"><ele>14.5</ele><time>2014-05-25T08:56:20Z</time></trkpt>
<trkpt lat="32.124406000" lon="34.788475000"><ele>14.4</ele><time>2014-05-25T08:56:22Z</time></trkpt>
<trkpt lat="32.124279000" lon="34.788463000"><ele>14.3</ele><time>2014-05-25T08:56:24Z</time></trkpt>
<trkpt lat="32.124164000" lon="34.788482000"><ele>14.1</ele><time>2014-05-25T08:56:26Z</time></trkpt>
<trkpt lat="32.124057000" lon="34.788506000"><ele>13.9</ele><time>2014-05-25T08:56:27Z</time></trkpt>
<trkpt lat="32.123976000" lon="34.788546000"><ele>13.7</ele><time>2014-05-25T08:56:30Z</time></trkpt>
<trkpt lat="32.123902000" lon="34.788596000"><ele>13.6</ele><time>2014-05-25T08:56:32Z</time></trkpt>
<trkpt lat="32.123821000" lon="34.788525000"><ele>13.5</ele><time>2014-05-25T08:56:38Z</time></trkpt>
<trkpt lat="32.123774000" lon="34.788424000"><ele>13.5</ele><time>2014-05-25T08:56:42Z</time></trkpt>
<trkpt lat="32.123673000" lon="34.788417000"><ele>13.5</ele><time>2014-05-25T08:56:46Z</time></trkpt>
<trkpt lat="32.123598000" lon="34.788526000"><ele>13.5</ele><time>2014-05-25T08:56:49Z</time></trkpt>
<trkpt lat="32.123552000" lon="34.788615000"><ele>13.5</ele><time>2014-05-25T08:56:51Z</time></trkpt>
<trkpt lat="32.123514000" lon="34.788711000"><ele>13.5</ele><time>2014-05-25T08:56:53Z</time></trkpt>
<trkpt lat="32.123482000" lon="34.788846000"><ele>13.5</ele><time>2014-05-25T08:56:55Z</time></trkpt>
<trkpt lat="32.123467000" lon="34.788957000"><ele>13.6</ele><time>2014-05-25T08:56:57Z</time></trkpt>
<trkpt lat="32.123435000" lon="34.789064000"><ele>13.8</ele><time>2014-05-25T08:56:59Z</time></trkpt>
<trkpt lat="32.123411000" lon="34.789174000"><ele>14.0</ele><time>2014-05-25T08:57:01Z</time></trkpt>
<trkpt lat="32.123404000" lon="34.789277000"><ele>14.2</ele><time>2014-05-25T08:57:03Z</time></trkpt>
<trkpt lat="32.123394000" lon="34.789389000"><ele>14.4</ele><time>2014-05-25T08:57:05Z</time></trkpt>
<trkpt lat="32.123370000" lon="34.789507000"><ele>14.5</ele><time>2014-05-25T08:57:07Z</time></trkpt>
<trkpt lat="32.123347000" lon="34.789624000"><ele>14.5</ele><time>2014-05-25T08:57:09Z</time></trkpt>
<trkpt lat="32.123319000" lon="34.789752000"><ele>14.6</ele><time>2014-05-25T08:57:11Z</time></trkpt>
<trkpt lat="32.123305000" lon="34.789870000"><ele>14.7</ele><time>2014-05-25T08:57:13Z</time></trkpt>
<trkpt lat="32.123278000" lon="34.789971000"><ele>15.0</ele><time>2014-05-25T08:57:15Z</time></trkpt>
<trkpt lat="32.123263000" lon="34.790081000"><ele>15.3</ele><time>2014-05-25T08:57:17Z</time></trkpt>
<trkpt lat="32.123238000" lon="34.790189000"><ele>15.5</ele><time>2014-05-25T08:57:19Z</time></trkpt>
<trkpt lat="32.123210000" lon="34.790300000"><ele>15.7</ele><time>2014-05-25T08:57:21Z</time></trkpt>
<trkpt lat="32.123182000" lon="34.790414000"><ele>15.9</ele><time>2014-05-25T08:57:23Z</time></trkpt>
<trkpt lat="32.123173000" lon="34.790534000"><ele>16.1</ele><time>2014-05-25T08:57:25Z</time></trkpt>
<trkpt lat="32.123139000" lon="34.790658000"><ele>16.3</ele><time>2014-05-25T08:57:27Z</time></trkpt>
<trkpt lat="32.123127000" lon="34.790768000"><ele>16.5</ele><time>2014-05-25T08:57:29Z</time></trkpt>
<trkpt lat="32.123114000" lon="34.790894000"><ele>16.8</ele><time>2014-05-25T08:57:31Z</time></trkpt>
<trkpt lat="32.123097000" lon="34.791012000"><ele>17.1</ele><time>2014-05-25T08:57:33Z</time></trkpt>
<trkpt lat="32.123058000" lon="34.791137000"><ele>17.4</ele><time>2014-05-25T08:57:35Z</time></trkpt>
<trkpt lat="32.123016000" lon="34.791250000"><ele>17.5</ele><time>2014-05-25T08:57:37Z</time></trkpt>
<trkpt lat="32.122916000" lon="34.791311000"><ele>17.5</ele><time>2014-05-25T08:57:39Z</time></trkpt>
<trkpt lat="32.122810000" lon="34.791345000"><ele>17.6</ele><time>2014-05-25T08:57:41Z</time></trkpt>
<trkpt lat="32.122708000" lon="34.791328000"><ele>17.7</ele><time>2014-05-25T08:57:43Z</time></trkpt>
<trkpt lat="32.122613000" lon="34.791305000"><ele>18.0</ele><time>2014-05-25T08:57:45Z</time></trkpt>
<trkpt lat="32.122502000" lon="34.791288000"><ele>18.3</ele><time>2014-05-25T08:57:47Z</time></trkpt>
<trkpt lat="32.122409000" lon="34.791267000"><ele>18.5</ele><time>2014-05-25T08:57:49Z</time></trkpt>
<trkpt lat="32.122309000" lon="34.791245000"><ele>18.7</ele><time>2014-05-25T08:57:51Z</time></trkpt>
<trkpt lat="32.122220000" lon="34.791236000"><ele>18.9</ele><time>2014-05-25T08:57:53Z</time></trkpt>
<trkpt lat="32.122130000" lon="34.791226000"><ele>19.1</ele><time>2014-05-25T08:57:55Z</time></trkpt>
<trkpt lat="32.122035000" lon="34.791210000"><ele>19.3</ele><time>2014-05-25T08:57:57Z</time></trkpt>
<trkpt lat="32.121938000" lon="34.791184000"><ele>19.5</ele><time>2014-05-25T08:57:59Z</time></trkpt>
<trkpt lat="32.121844000" lon="34.791161000"><ele>19.6</ele><time>2014-05-25T08:58:01Z</time></trkpt>
<trkpt lat="32.121752000" lon="34.791151000"><ele>19.8</ele><time>2014-05-25T08:58:03Z</time></trkpt>
<trkpt lat="32.121659000" lon="34.791135000"><ele>20.0</ele><time>2014-05-25T08:58:05Z</time></trkpt>
<trkpt lat="32.121555000" lon="34.791122000"><ele>20.0</ele><time>2014-05-25T08:58:07Z</time></trkpt>
<trkpt lat="32.121449000" lon="34.791094000"><ele>20.0</ele><time>2014-05-25T08:58:09Z</time></trkpt>
<trkpt lat="32.121338000" lon="34.791047000"><ele>20.0</ele><time>2014-05-25T08:58:11Z</time></trkpt>
<trkpt lat="32.121218000" lon="34.791027000"><ele>20.0</ele><time>2014-05-25T08:58:13Z</time></trkpt>
<trkpt lat="32.121106000" lon="34.790995000"><ele>20.0</ele><time>2014-05-25T08:58:15Z</time></trkpt>
<trkpt lat="32.121006000" lon="34.790987000"><ele>20.0</ele><time>2014-05-25T08:58:17Z</time></trkpt>
<trkpt lat="32.120918000" lon="34.790963000"><ele>20.0</ele><time>2014-05-25T08:58:19Z</time></trkpt>
<trkpt lat="32.120857000" lon="34.790898000"><ele>19.9</ele><time>2014-05-25T08:58:21Z</time></trkpt>
<trkpt lat="32.120757000" lon="34.790858000"><ele>19.8</ele><time>2014-05-25T08:58:24Z</time></trkpt>
<trkpt lat="32.120632000" lon="34.790856000"><ele>19.7</ele><time>2014-05-25T08:58:27Z</time></trkpt>
<trkpt lat="32.120551000" lon="34.790872000"><ele>19.6</ele><time>2014-05-25T08:58:29Z</time></trkpt>
<trkpt lat="32.120460000" lon="34.790866000"><ele>19.5</ele><time>2014-05-25T08:58:31Z</time></trkpt>
<trkpt lat="32.120353000" lon="34.790839000"><ele>19.5</ele><time>2014-05-25T08:58:33Z</time></trkpt>
<trkpt lat="32.120254000" lon="34.790828000"><ele>19.4</ele><time>2014-05-25T08:58:35Z</time></trkpt>
<trkpt lat="32.120126000" lon="34.790839000"><ele>19.1</ele><time>2014-05-25T08:58:37Z</time></trkpt>
<trkpt lat="32.120017000" lon="34.790825000"><ele>18.8</ele><time>2014-05-25T08:58:39Z</time></trkpt>
<trkpt lat="32.119893000" lon="34.790799000"><ele>18.5</ele><time>2014-05-25T08:58:41Z</time></trkpt>
<trkpt lat="32.119787000" lon="34.790773000"><ele>18.3</ele><time>2014-05-25T08:58:43Z</time></trkpt>
<trkpt lat="32.119666000" lon="34.790755000"><ele>18.1</ele><time>2014-05-25T08:58:45Z</time></trkpt>
<trkpt lat="32.119543000" lon="34.790737000"><ele>17.9</ele><time>2014-05-25T08:58:47Z</time></trkpt>
<trkpt lat="32.119417000" lon="34.790723000"><ele>17.6</ele><time>2014-05-25T08:58:49Z</time></trkpt>
<trkpt lat="32.119285000" lon="34.790694000"><ele>17.4</ele><time>2014-05-25T08:58:51Z</time></trkpt>
<trkpt lat="32.119155000" lon="34.790669000"><ele>17.1</ele><time>2014-05-25T08:58:53Z</time></trkpt>
<trkpt lat="32.119013000" lon="34.790635000"><ele>16.8</ele><time>2014-05-25T08:58:55Z</time></trkpt>
<trkpt lat="32.118869000" lon="34.790612000"><ele>16.5</ele><time>2014-05-25T08:58:57Z</time></trkpt>
<trkpt lat="32.118733000" lon="34.790586000"><ele>16.5</ele><time>2014-05-25T08:58:59Z</time></trkpt>
<trkpt lat="32.118597000" lon="34.790569000"><ele>16.3</ele><time>2014-05-25T08:59:01Z</time></trkpt>
<trkpt lat="32.118472000" lon="34.790551000"><ele>16.0</ele><time>2014-05-25T08:59:03Z</time></trkpt>
<trkpt lat="32.118331000" lon="34.790530000"><ele>15.7</ele><time>2014-05-25T08:59:05Z</time></trkpt>
<trkpt lat="32.118197000" lon="34.790494000"><ele>15.5</ele><time>2014-05-25T08:59:07Z</time></trkpt>
<trkpt lat="32.118056000" lon="34.790459000"><ele>15.2</ele><time>2014-05-25T08:59:09Z</time></trkpt>
<trkpt lat="32.117911000" lon="34.790443000"><ele>15.0</ele><time>2014-05-25T08:59:11Z</time></trkpt>
<trkpt lat="32.117770000" lon="34.790407000"><ele>15.0</ele><time>2014-05-25T08:59:13Z</time></trkpt>
<trkpt lat="32.117615000" lon="34.790357000"><ele>15.0</ele><time>2014-05-25T08:59:15Z</time></trkpt>
<trkpt lat="32.117467000" lon="34.790316000"><ele>15.0</ele><time>2014-05-25T08:59:17Z</time></trkpt>
<trkpt lat="32.117325000" lon="34.790289000"><ele>15.0</ele><time>2014-05-25T08:59:19Z</time></trkpt>
<trkpt lat="32.117177000" lon="34.790255000"><ele>15.0</ele><time>2014-05-25T08:59:21Z</time></trkpt>
<trkpt lat="32.117045000" lon="34.790210000"><ele>15.1</ele><time>2014-05-25T08:59:23Z</time></trkpt>
<trkpt lat="32.116898000" lon="34.790176000"><ele>15.6</ele><time>2014-05-25T08:59:25Z</time></trkpt>
<trkpt lat="32.116765000" lon="34.790167000"><ele>16.2</ele><time>2014-05-25T08:59:27Z</time></trkpt>
<trkpt lat="32.116621000" lon="34.790146000"><ele>16.7</ele><time>2014-05-25T08:59:29Z</time></trkpt>
<trkpt lat="32.116472000" lon="34.790117000"><ele>17.3</ele><time>2014-05-25T08:59:31Z</time></trkpt>
<trkpt lat="32.116323000" lon="34.790096000"><ele>17.8</ele><time>2014-05-25T08:59:33Z</time></trkpt>
<trkpt lat="32.116165000" lon="34.790073000"><ele>17.9</ele><time>2014-05-25T08:59:35Z</time></trkpt>
<trkpt lat="32.116017000" lon="34.790045000"><ele>18.0</ele><time>2014-05-25T08:59:37Z</time></trkpt>
<trkpt lat="32.115866000" lon="34.790006000"><ele>18.1</ele><time>2014-05-25T08:59:39Z</time></trkpt>
<trkpt lat="32.115720000" lon="34.789978000"><ele>18.2</ele><time>2014-05-25T08:59:41Z</time></trkpt>
<trkpt lat="32.115566000" lon="34.789947000"><ele>18.3</ele><time>2014-05-25T08:59:43Z</time></trkpt>
<trkpt lat="32.115416000" lon="34.789919000"><ele>18.4</ele><time>2014-05-25T08:59:45Z</time></trkpt>
<trkpt lat="32.115277000" lon="34.789878000"><ele>18.1</ele><time>2014-05-25T08:59:47Z</time></trkpt>
<trkpt lat="32.115136000" lon="34.789840000"><ele>17.8</ele><time>2014-05-25T08:59:49Z</time></trkpt>
<trkpt lat="32.115024000" lon="34.789817000"><ele>17.5</ele><time>2014-05-25T08:59:51Z</time></trkpt>
<trkpt lat="32.114933000" lon="34.789849000"><ele>17.3</ele><time>2014-05-25T08:59:54Z</time></trkpt>
<trkpt lat="32.114809000" lon="34.789839000"><ele>17.0</ele><time>2014-05-25T08:59:58Z</time></trkpt>
<trkpt lat="32.114701000" lon="34.789796000"><ele>17.0</ele><time>2014-05-25T09:00:01Z</time></trkpt>
<trkpt lat="32.114619000" lon="34.789789000"><ele>17.0</ele><time>2014-05-25T09:00:03Z</time></trkpt>
<trkpt lat="32.114516000" lon="34.789782000"><ele>17.0</ele><time>2014-05-25T09:00:05Z</time></trkpt>
<trkpt lat="32.114402000" lon="34.789751000"><ele>17.0</ele><time>2014-05-25T09:00:07Z</time></trkpt>
<trkpt lat="32.114293000" lon="34.789721000"><ele>16.9</ele><time>2014-05-25T09:00:09Z</time></trkpt>
<trkpt lat="32.114170000" lon="34.789702000"><ele>16.8</ele><time>2014-05-25T09:00:11Z</time></trkpt>
<trkpt lat="32.114045000" lon="34.789684000"><ele>16.1</ele><time>2014-05-25T09:00:13Z</time></trkpt>
<trkpt lat="32.113916000" lon="34.789661000"><ele>15.4</ele><time>2014-05-25T09:00:15Z</time></trkpt>
<trkpt lat="32.113786000" lon="34.789624000"><ele>14.6</ele><time>2014-05-25T09:00:17Z</time></trkpt>
<trkpt lat="32.113659000" lon="34.789615000"><ele>13.9</ele><time>2014-05-25T09:00:19Z</time></trkpt>
<trkpt lat="32.113525000" lon="34.789595000"><ele>13.1</ele><time>2014-05-25T09:00:21Z</time></trkpt>
<trkpt lat="32.113405000" lon="34.789578000"><ele>12.3</ele><time>2014-05-25T09:00:23Z</time></trkpt>
<trkpt lat="32.113284000" lon="34.789531000"><ele>11.5</ele><time>2014-05-25T09:00:25Z</time></trkpt>
<trkpt lat="32.113165000" lon="34.789499000"><ele>10.6</ele><time>2014-05-25T09:00:27Z</time></trkpt>
<trkpt lat="32.113050000" lon="34.789484000"><ele>9.8</ele><time>2014-05-25T09:00:29Z</time></trkpt>
<trkpt lat="32.112944000" lon="34.789458000"><ele>9.1</ele><time>2014-05-25T09:00:31Z</time></trkpt>
<trkpt lat="32.112838000" lon="34.789430000"><ele>8.4</ele><time>2014-05-25T09:00:33Z</time></trkpt>
<trkpt lat="32.112753000" lon="34.789381000"><ele>8.6</ele><time>2014-05-25T09:00:35Z</time></trkpt>
<trkpt lat="32.112674000" lon="34.789351000"><ele>8.9</ele><time>2014-05-25T09:00:37Z</time></trkpt>
<trkpt lat="32.112567000" lon="34.789342000"><ele>9.2</ele><time>2014-05-25T09:00:40Z</time></trkpt>
<trkpt lat="32.112519000" lon="34.789432000"><ele>9.5</ele><time>2014-05-25T09:00:45Z</time></trkpt>
<trkpt lat="32.112496000" lon="34.789525000"><ele>9.8</ele><time>2014-05-25T09:00:48Z</time></trkpt>
<trkpt lat="32.112534000" lon="34.789623000"><ele>10.2</ele><time>2014-05-25T09:00:52Z</time></trkpt>
<trkpt lat="32.112542000" lon="34.789719000"><ele>10.5</ele><time>2014-05-25T09:01:11Z</time></trkpt>
<trkpt lat="32.112442000" lon="34.789687000"><ele>10.9</ele><time>2014-05-25T09:01:21Z</time></trkpt>
<trkpt lat="32.112340000" lon="34.789670000"><ele>11.3</ele><time>2014-05-25T09:01:25Z</time></trkpt>
<trkpt lat="32.112242000" lon="34.789661000"><ele>11.6</ele><time>2014-05-25T09:01:28Z</time></trkpt>
<trkpt lat="32.112160000" lon="34.789716000"><ele>13.1</ele><time>2014-05-25T09:01:31Z</time></trkpt>
<trkpt lat="32.112191000" lon="34.789901000"><ele>14.2</ele><time>2014-05-25T09:01:34Z</time></trkpt>
<trkpt lat="32.112207000" lon="34.790032000"><ele>15.3</ele><time>2014-05-25T09:01:36Z</time></trkpt>
<trkpt lat="32.112213000" lon="34.790163000"><ele>16.4</ele><time>2014-05-25T09:01:38Z</time></trkpt>
<trkpt lat="32.112215000" lon="34.790297000"><ele>17.5</ele><time>2014-05-25T09:01:40Z</time></trkpt>
<trkpt lat="32.112251000" lon="34.790429000"><ele>18.5</ele><time>2014-05-25T09:01:42Z</time></trkpt>
<trkpt lat="32.112271000" lon="34.790556000"><ele>19.6</ele><time>2014-05-25T09:01:44Z</time></trkpt>
<trkpt lat="32.112293000" lon="34.790671000"><ele>20.7</ele><time>2014-05-25T09:01:46Z</time></trkpt>
<trkpt lat="32.112308000" lon="34.790794000"><ele>21.6</ele><time>2014-05-25T09:01:48Z</time></trkpt>
<trkpt lat="32.112303000" lon="34.790900000"><ele>22.5</ele><time>2014-05-25T09:01:50Z</time></trkpt>
<trkpt lat="32.112326000" lon="34.791044000"><ele>23.5</ele><time>2014-05-25T09:01:53Z</time></trkpt>
<trkpt lat="32.112340000" lon="34.791142000"><ele>23.3</ele><time>2014-05-25T09:01:55Z</time></trkpt>
<trkpt lat="32.112343000" lon="34.791282000"><ele>23.1</ele><time>2014-05-25T09:01:58Z</time></trkpt>
<trkpt lat="32.112366000" lon="34.791391000"><ele>22.9</ele><time>2014-05-25T09:02:00Z</time></trkpt>
<trkpt lat="32.112374000" lon="34.791501000"><ele>22.7</ele><time>2014-05-25T09:02:02Z</time></trkpt>
<trkpt lat="32.112379000" lon="34.791604000"><ele>22.5</ele><time>2014-05-25T09:02:04Z</time></trkpt>
<trkpt lat="32.112385000" lon="34.791749000"><ele>22.2</ele><time>2014-05-25T09:02:07Z</time></trkpt>
<trkpt lat="32.112399000" lon="34.791849000"><ele>21.9</ele><time>2014-05-25T09:02:09Z</time></trkpt>
<trkpt lat="32.112420000" lon="34.791948000"><ele>22.0</ele><time>2014-05-25T09:02:11Z</time></trkpt>
<trkpt lat="32.112419000" lon="34.792084000"><ele>22.1</ele><time>2014-05-25T09:02:14Z</time></trkpt>
<trkpt lat="32.112362000" lon="34.792199000"><ele>22.2</ele><time>2014-05-25T09:02:17Z</time></trkpt>
<trkpt lat="32.112256000" lon="34.792247000"><ele>22.3</ele><time>2014-05-25T09:02:20Z</time></trkpt>
<trkpt lat="32.112137000" lon="34.792226000"><ele>22.4</ele><time>2014-05-25T09:02:23Z</time></trkpt>
<trkpt lat="32.112056000" lon="34.792203000"><ele>22.5</ele><time>2014-05-25T09:02:25Z</time></trkpt>
<trkpt lat="32.111970000" lon="34.792188000"><ele>22.5</ele><time>2014-05-25T09:02:27Z</time></trkpt>
<trkpt lat="32.111885000" lon="34.792169000"><ele>22.6</ele><time>2014-05-25T09:02:29Z</time></trkpt>
<trkpt lat="32.111800000" lon="34.792147000"><ele>22.9</ele><time>2014-05-25T09:02:31Z</time></trkpt>
<trkpt lat="32.111718000" lon="34.792118000"><ele>23.2</ele><time>2014-05-25T09:02:33Z</time></trkpt>
<trkpt lat="32.111636000" lon="34.792102000"><ele>23.5</ele><time>2014-05-25T09:02:35Z</time></trkpt>
<trkpt lat="32.111528000" lon="34.792097000"><ele>23.4</ele><time>2014-05-25T09:02:37Z</time></trkpt>
<trkpt lat="32.111422000" lon="34.792100000"><ele>23.5</ele><time>2014-05-25T09:02:39Z</time></trkpt>
<trkpt lat="32.111305000" lon="34.792088000"><ele>23.5</ele><time>2014-05-25T09:02:41Z</time></trkpt>
<trkpt lat="32.111187000" lon="34.792064000"><ele>23.6</ele><time>2014-05-25T09:02:43Z</time></trkpt>
<trkpt lat="32.111069000" lon="34.792041000"><ele>23.7</ele><time>2014-05-25T09:02:45Z</time></trkpt>
<trkpt lat="32.110939000" lon="34.792028000"><ele>23.8</ele><time>2014-05-25T09:02:47Z</time></trkpt>
<trkpt lat="32.110823000" lon="34.792006000"><ele>23.9</ele><time>2014-05-25T09:02:49Z</time></trkpt>
<trkpt lat="32.110691000" lon="34.791976000"><ele>24.0</ele><time>2014-05-25T09:02:51Z</time></trkpt>
<trkpt lat="32.110558000" lon="34.791964000"><ele>24.0</ele><time>2014-05-25T09:02:53Z</time></trkpt>
<trkpt lat="32.110422000" lon="34.791943000"><ele>24.0</ele><time>2014-05-25T09:02:55Z</time></trkpt>
<trkpt lat="32.110292000" lon="34.791917000"><ele>24.0</ele><time>2014-05-25T09:02:57Z</time></trkpt>
<trkpt lat="32.110152000" lon="34.791910000"><ele>23.6</ele><time>2014-05-25T09:02:59Z</time></trkpt>
<trkpt lat="32.110013000" lon="34.791897000"><ele>23.3</ele><time>2014-05-25T09:03:01Z</time></trkpt>
<trkpt lat="32.109864000" lon="34.791879000"><ele>22.9</ele><time>2014-05-25T09:03:03Z</time></trkpt>
<trkpt lat="32.109717000" lon="34.791867000"><ele>22.5</ele><time>2014-05-25T09:03:05Z</time></trkpt>
<trkpt lat="32.109600000" lon="34.791859000"><ele>22.2</ele><time>2014-05-25T09:03:07Z</time></trkpt>
<trkpt lat="32.109457000" lon="34.791854000"><ele>21.8</ele><time>2014-05-25T09:03:09Z</time></trkpt>
<trkpt lat="32.109375000" lon="34.791849000"><ele>21.5</ele><time>2014-05-25T09:03:10Z</time></trkpt>
<trkpt lat="32.109289000" lon="34.791846000"><ele>21.1</ele><time>2014-05-25T09:03:11Z</time></trkpt>
<trkpt lat="32.109138000" lon="34.791842000"><ele>20.7</ele><time>2014-05-25T09:03:13Z</time></trkpt>
<trkpt lat="32.108980000" lon="34.791831000"><ele>20.4</ele><time>2014-05-25T09:03:15Z</time></trkpt>
<trkpt lat="32.108823000" lon="34.791825000"><ele>20.0</ele><time>2014-05-25T09:03:17Z</time></trkpt>
<trkpt lat="32.108661000" lon="34.791821000"><ele>20.0</ele><time>2014-05-25T09:03:19Z</time></trkpt>
<trkpt lat="32.108502000" lon="34.791809000"><ele>20.0</ele><time>2014-05-25T09:03:21Z</time></trkpt>
<trkpt lat="32.108419000" lon="34.791807000"><ele>19.9</ele><time>2014-05-25T09:03:22Z</time></trkpt>
<trkpt lat="32.108328000" lon="34.791801000"><ele>19.8</ele><time>2014-05-25T09:03:23Z</time></trkpt>
<trkpt lat="32.108240000" lon="34.791800000"><ele>19.7</ele><time>2014-05-25T09:03:24Z</time></trkpt>
<trkpt lat="32.108083000" lon="34.791801000"><ele>19.6</ele><time>2014-05-25T09:03:26Z</time></trkpt>
<trkpt lat="32.107997000" lon="34.791801000"><ele>19.5</ele><time>2014-05-25T09:03:27Z</time></trkpt>
<trkpt lat="32.107836000" lon="34.791794000"><ele>19.5</ele><time>2014-05-25T09:03:29Z</time></trkpt>
<trkpt lat="32.107747000" lon="34.791792000"><ele>19.4</ele><time>2014-05-25T09:03:30Z</time></trkpt>
<trkpt lat="32.107660000" lon="34.791794000"><ele>19.3</ele><time>2014-05-25T09:03:31Z</time></trkpt>
<trkpt lat="32.107566000" lon="34.791800000"><ele>19.0</ele><time>2014-05-25T09:03:32Z</time></trkpt>
<trkpt lat="32.107478000" lon="34.791802000"><ele>18.7</ele><time>2014-05-25T09:03:33Z</time></trkpt>
<trkpt lat="32.107379000" lon="34.791803000"><ele>18.5</ele><time>2014-05-25T09:03:34Z</time></trkpt>
<trkpt lat="32.107291000" lon="34.791808000"><ele>18.3</ele><time>2014-05-25T09:03:35Z</time></trkpt>
<trkpt lat="32.107199000" lon="34.791813000"><ele>18.1</ele><time>2014-05-25T09:03:36Z</time></trkpt>
<trkpt lat="32.107112000" lon="34.791819000"><ele>17.9</ele><time>2014-05-25T09:03:37Z</time></trkpt>
<trkpt lat="32.107021000" lon="34.791830000"><ele>17.7</ele><time>2014-05-25T09:03:38Z</time></trkpt>
<trkpt lat="32.106921000" lon="34.791832000"><ele>17.5</ele><time>2014-05-25T09:03:39Z</time></trkpt>
<trkpt lat="32.106756000" lon="34.791847000"><ele>17.4</ele><time>2014-05-25T09:03:41Z</time></trkpt>
<trkpt lat="32.106669000" lon="34.791865000"><ele>17.2</ele><time>2014-05-25T09:03:42Z</time></trkpt>
<trkpt lat="32.106582000" lon="34.791877000"><ele>17.0</ele><time>2014-05-25T09:03:43Z</time></trkpt>
<trkpt lat="32.106494000" lon="34.791890000"><ele>17.0</ele><time>2014-05-25T09:03:44Z</time></trkpt>
<trkpt lat="32.106399000" lon="34.791905000"><ele>17.0</ele><time>2014-05-25T09:03:45Z</time></trkpt>
<trkpt lat="32.106310000" lon="34.791923000"><ele>17.0</ele><time>2014-05-25T09:03:46Z</time></trkpt>
<trkpt lat="32.106221000" lon="34.791937000"><ele>17.0</ele><time>2014-05-25T09:03:47Z</time></trkpt>
<trkpt lat="32.106133000" lon="34.791953000"><ele>17.0</ele><time>2014-05-25T09:03:48Z</time></trkpt>
<trkpt lat="32.106036000" lon="34.791977000"><ele>17.0</ele><time>2014-05-25T09:03:49Z</time></trkpt>
<trkpt lat="32.105946000" lon="34.791993000"><ele>17.0</ele><time>2014-05-25T09:03:50Z</time></trkpt>
<trkpt lat="32.105860000" lon="34.792012000"><ele>16.9</ele><time>2014-05-25T09:03:51Z</time></trkpt>
<trkpt lat="32.105694000" lon="34.792044000"><ele>16.8</ele><time>2014-05-25T09:03:53Z</time></trkpt>
<trkpt lat="32.105613000" lon="34.792055000"><ele>16.7</ele><time>2014-05-25T09:03:54Z</time></trkpt>
<trkpt lat="32.105528000" lon="34.792067000"><ele>16.6</ele><time>2014-05-25T09:03:55Z</time></trkpt>
<trkpt lat="32.105441000" lon="34.792086000"><ele>16.5</ele><time>2014-05-25T09:03:56Z</time></trkpt>
<trkpt lat="32.105353000" lon="34.792108000"><ele>16.5</ele><time>2014-05-25T09:03:57Z</time></trkpt>
<trkpt lat="32.105263000" lon="34.792125000"><ele>16.1</ele><time>2014-05-25T09:03:58Z</time></trkpt>
<trkpt lat="32.105173000" lon="34.792135000"><ele>15.7</ele><time>2014-05-25T09:03:59Z</time></trkpt>
<trkpt lat="32.105084000" lon="34.792153000"><ele>15.4</ele><time>2014-05-25T09:04:00Z</time></trkpt>
<trkpt lat="32.105000000" lon="34.792171000"><ele>14.8</ele><time>2014-05-25T09:04:01Z</time></trkpt>
<trkpt lat="32.104914000" lon="34.792193000"><ele>14.3</ele><time>2014-05-25T09:04:02Z</time></trkpt>
<trkpt lat="32.104831000" lon="34.792213000"><ele>13.8</ele><time>2014-05-25T09:04:03Z</time></trkpt>
<trkpt lat="32.104749000" lon="34.792233000"><ele>13.4</ele><time>2014-05-25T09:04:04Z</time></trkpt>
<trkpt lat="32.104661000" lon="34.792254000"><ele>12.9</ele><time>2014-05-25T09:04:05Z</time></trkpt>
<trkpt lat="32.104575000" lon="34.792269000"><ele>12.5</ele><time>2014-05-25T09:04:06Z</time></trkpt>
<trkpt lat="32.104419000" lon="34.792289000"><ele>11.9</ele><time>2014-05-25T09:04:08Z</time></trkpt>
<trkpt lat="32.104337000" lon="34.792289000"><ele>11.4</ele><time>2014-05-25T09:04:09Z</time></trkpt>
<trkpt lat="32.104198000" lon="34.792309000"><ele>11.1</ele><time>2014-05-25T09:04:11Z</time></trkpt>
<trkpt lat="32.104061000" lon="34.792349000"><ele>10.8</ele><time>2014-05-25T09:04:13Z</time></trkpt>
<trkpt lat="32.103905000" lon="34.792384000"><ele>10.5</ele><time>2014-05-25T09:04:15Z</time></trkpt>
<trkpt lat="32.103760000" lon="34.792409000"><ele>10.5</ele><time>2014-05-25T09:04:17Z</time></trkpt>
<trkpt lat="32.103626000" lon="34.792366000"><ele>10.4</ele><time>2014-05-25T09:04:19Z</time></trkpt>
<trkpt lat="32.103540000" lon="34.792311000"><ele>10.3</ele><time>2014-05-25T09:04:21Z</time></trkpt>
<trkpt lat="32.103451000" lon="34.792366000"><ele>10.4</ele><time>2014-05-25T09:04:25Z</time></trkpt>
<trkpt lat="32.103370000" lon="34.792451000"><ele>10.5</ele><time>2014-05-25T09:04:28Z</time></trkpt>
<trkpt lat="32.103249000" lon="34.792472000"><ele>10.5</ele><time>2014-05-25T09:04:31Z</time></trkpt>
<trkpt lat="32.103142000" lon="34.792498000"><ele>10.7</ele><time>2014-05-25T09:04:33Z</time></trkpt>
<trkpt lat="32.103048000" lon="34.792508000"><ele>10.9</ele><time>2014-05-25T09:04:35Z</time></trkpt>
<trkpt lat="32.102942000" lon="34.792526000"><ele>11.1</ele><time>2014-05-25T09:04:37Z</time></trkpt>
<trkpt lat="32.102854000" lon="34.792548000"><ele>11.3</ele><time>2014-05-25T09:04:39Z</time></trkpt>
<trkpt lat="32.102763000" lon="34.792571000"><ele>11.5</ele><time>2014-05-25T09:04:41Z</time></trkpt>
<trkpt lat="32.102663000" lon="34.792539000"><ele>11.6</ele><time>2014-05-25T09:04:43Z</time></trkpt>
<trkpt lat="32.102564000" lon="34.792530000"><ele>11.8</ele><time>2014-05-25T09:04:45Z</time></trkpt>
<trkpt lat="32.102484000" lon="34.792596000"><ele>12.0</ele><time>2014-05-25T09:04:47Z</time></trkpt>
<trkpt lat="32.102387000" lon="34.792641000"><ele>12.0</ele><time>2014-05-25T09:04:49Z</time></trkpt>
<trkpt lat="32.102286000" lon="34.792677000"><ele>12.0</ele><time>2014-05-25T09:04:51Z</time></trkpt>
<trkpt lat="32.102175000" lon="34.792689000"><ele>12.0</ele><time>2014-05-25T09:04:53Z</time></trkpt>
<trkpt lat="32.102055000" lon="34.792704000"><ele>12.0</ele><time>2014-05-25T09:04:55Z</time></trkpt>
<trkpt lat="32.101935000" lon="34.792714000"><ele>12.0</ele><time>2014-05-25T09:04:57Z</time></trkpt>
<trkpt lat="32.101825000" lon="34.792722000"><ele>12.0</ele><time>2014-05-25T09:04:59Z</time></trkpt>
<trkpt lat="32.101732000" lon="34.792740000"><ele>11.7</ele><time>2014-05-25T09:05:01Z</time></trkpt>
<trkpt lat="32.101636000" lon="34.792759000"><ele>11.5</ele><time>2014-05-25T09:05:03Z</time></trkpt>
<trkpt lat="32.101544000" lon="34.792803000"><ele>11.2</ele><time>2014-05-25T09:05:05Z</time></trkpt>
<trkpt lat="32.101437000" lon="34.792839000"><ele>10.6</ele><time>2014-05-25T09:05:07Z</time></trkpt>
<trkpt lat="32.101325000" lon="34.792859000"><ele>10.1</ele><time>2014-05-25T09:05:09Z</time></trkpt>
<trkpt lat="32.101202000" lon="34.792897000"><ele>9.5</ele><time>2014-05-25T09:05:11Z</time></trkpt>
<trkpt lat="32.101081000" lon="34.792925000"><ele>9.0</ele><time>2014-05-25T09:05:13Z</time></trkpt>
<trkpt lat="32.100977000" lon="34.792976000"><ele>8.5</ele><time>2014-05-25T09:05:15Z</time></trkpt>
<trkpt lat="32.100864000" lon="34.793027000"><ele>8.1</ele><time>2014-05-25T09:05:17Z</time></trkpt>
<trkpt lat="32.100736000" lon="34.793058000"><ele>7.6</ele><time>2014-05-25T09:05:19Z</time></trkpt>
<trkpt lat="32.100616000" lon="34.793086000"><ele>7.2</ele><time>2014-05-25T09:05:21Z</time></trkpt>
<trkpt lat="32.100487000" lon="34.793124000"><ele>7.0</ele><time>2014-05-25T09:05:23Z</time></trkpt>
<trkpt lat="32.100353000" lon="34.793150000"><ele>6.8</ele><time>2014-05-25T09:05:25Z</time></trkpt>
<trkpt lat="32.100224000" lon="34.793136000"><ele>6.6</ele><time>2014-05-25T09:05:27Z</time></trkpt>
<trkpt lat="32.100116000" lon="34.793109000"><ele>6.7</ele><time>2014-05-25T09:05:29Z</time></trkpt>
<trkpt lat="32.100042000" lon="34.793069000"><ele>6.8</ele><time>2014-05-25T09:05:31Z</time></trkpt>
<trkpt lat="32.099977000" lon="34.793129000"><ele>6.9</ele><time>2014-05-25T09:05:35Z</time></trkpt>
<trkpt lat="32.099852000" lon="34.793146000"><ele>7.0</ele><time>2014-05-25T09:05:38Z</time></trkpt>
<trkpt lat="32.099750000" lon="34.793177000"><ele>7.0</ele><time>2014-05-25T09:05:40Z</time></trkpt>
<trkpt lat="32.099665000" lon="34.793208000"><ele>7.0</ele><time>2014-05-25T09:05:42Z</time></trkpt>
<trkpt lat="32.099565000" lon="34.793164000"><ele>7.0</ele><time>2014-05-25T09:05:45Z</time></trkpt>
<trkpt lat="32.099484000" lon="34.793178000"><ele>7.0</ele><time>2014-05-25T09:05:47Z</time></trkpt>
<trkpt lat="32.099391000" lon="34.793216000"><ele>7.0</ele><time>2014-05-25T09:05:49Z</time></trkpt>
<trkpt lat="32.099304000" lon="34.793251000"><ele>7.0</ele><time>2014-05-25T09:05:51Z</time></trkpt>
<trkpt lat="32.099211000" lon="34.793275000"><ele>6.7</ele><time>2014-05-25T09:05:53Z</time></trkpt>
<trkpt lat="32.099119000" lon="34.793296000"><ele>6.5</ele><time>2014-05-25T09:05:55Z</time></trkpt>
<trkpt lat="32.099027000" lon="34.793303000"><ele>6.2</ele><time>2014-05-25T09:05:57Z</time></trkpt>
<trkpt lat="32.098936000" lon="34.793308000"><ele>5.9</ele><time>2014-05-25T09:05:59Z</time></trkpt>
<trkpt lat="32.098841000" lon="34.793314000"><ele>5.6</ele><time>2014-05-25T09:06:01Z</time></trkpt>
<trkpt lat="32.098749000" lon="34.793322000"><ele>5.4</ele><time>2014-05-25T09:06:03Z</time></trkpt>
<trkpt lat="32.098670000" lon="34.793363000"><ele>5.1</ele><time>2014-05-25T09:06:05Z</time></trkpt>
<trkpt lat="32.098560000" lon="34.793392000"><ele>4.8</ele><time>2014-05-25T09:06:08Z</time></trkpt>
<trkpt lat="32.098430000" lon="34.793413000"><ele>4.5</ele><time>2014-05-25T09:06:11Z</time></trkpt>
<trkpt lat="32.098339000" lon="34.793414000"><ele>4.1</ele><time>2014-05-25T09:06:13Z</time></trkpt>
<trkpt lat="32.098240000" lon="34.793426000"><ele>3.7</ele><time>2014-05-25T09:06:15Z</time></trkpt>
<trkpt lat="32.098122000" lon="34.793437000"><ele>3.6</ele><time>2014-05-25T09:06:17Z</time></trkpt>
<trkpt lat="32.098011000" lon="34.793450000"><ele>3.5</ele><time>2014-05-25T09:06:19Z</time></trkpt>
<trkpt lat="32.097919000" lon="34.793477000"><ele>3.5</ele><time>2014-05-25T09:06:21Z</time></trkpt>
<trkpt lat="32.097835000" lon="34.793503000"><ele>3.4</ele><time>2014-05-25T09:06:23Z</time></trkpt>
<trkpt lat="32.097742000" lon="34.793537000"><ele>3.3</ele><time>2014-05-25T09:06:25Z</time></trkpt>
<trkpt lat="32.097655000" lon="34.793558000"><ele>3.2</ele><time>2014-05-25T09:06:27Z</time></trkpt>
<trkpt lat="32.097563000" lon="34.793584000"><ele>3.1</ele><time>2014-05-25T09:06:29Z</time></trkpt>
<trkpt lat="32.097471000" lon="34.793556000"><ele>3.0</ele><time>2014-05-25T09:06:32Z</time></trkpt>
<trkpt lat="32.097387000" lon="34.793460000"><ele>3.2</ele><time>2014-05-25T09:06:35Z</time></trkpt>
<trkpt lat="32.097469000" lon="34.793429000"><ele>3.4</ele><time>2014-05-25T09:06:41Z</time></trkpt>
<trkpt lat="32.097546000" lon="34.793508000"><ele>3.5</ele><time>2014-05-25T09:06:44Z</time></trkpt>
<trkpt lat="32.097591000" lon="34.793653000"><ele>3.7</ele><time>2014-05-25T09:06:48Z</time></trkpt>
<trkpt lat="32.097583000" lon="34.793798000"><ele>3.9</ele><time>2014-05-25T09:06:51Z</time></trkpt>
<trkpt lat="32.097584000" lon="34.793906000"><ele>4.1</ele><time>2014-05-25T09:06:53Z</time></trkpt>
<trkpt lat="32.097570000" lon="34.794045000"><ele>4.3</ele><time>2014-05-25T09:06:56Z</time></trkpt>
<trkpt lat="32.097572000" lon="34.794179000"><ele>4.8</ele><time>2014-05-25T09:06:59Z</time></trkpt>
<trkpt lat="32.097582000" lon="34.794277000"><ele>5.4</ele><time>2014-05-25T09:07:01Z</time></trkpt>
<trkpt lat="32.097583000" lon="34.794376000"><ele>5.9</ele><time>2014-05-25T09:07:03Z</time></trkpt>
<trkpt lat="32.097613000" lon="34.794490000"><ele>6.5</ele><time>2014-05-25T09:07:04Z</time></trkpt>
<trkpt lat="32.097616000" lon="34.794600000"><ele>6.8</ele><time>2014-05-25T09:07:06Z</time></trkpt>
<trkpt lat="32.097654000" lon="34.794704000"><ele>7.2</ele><time>2014-05-25T09:07:08Z</time></trkpt>
<trkpt lat="32.097697000" lon="34.794840000"><ele>7.5</ele><time>2014-05-25T09:07:10Z</time></trkpt>
<trkpt lat="32.097734000" lon="34.794970000"><ele>8.1</ele><time>2014-05-25T09:07:12Z</time></trkpt>
<trkpt lat="32.097773000" lon="34.795074000"><ele>8.1</ele><time>2014-05-25T09:07:14Z</time></trkpt>
<trkpt lat="32.097839000" lon="34.795194000"><ele>8.1</ele><time>2014-05-25T09:07:16Z</time></trkpt>
<trkpt lat="32.097873000" lon="34.795318000"><ele>8.1</ele><time>2014-05-25T09:07:18Z</time></trkpt>
<trkpt lat="32.097899000" lon="34.795459000"><ele>7.7</ele><time>2014-05-25T09:07:20Z</time></trkpt>
<trkpt lat="32.097938000" lon="34.795612000"><ele>7.5</ele><time>2014-05-25T09:07:22Z</time></trkpt>
<trkpt lat="32.097973000" lon="34.795743000"><ele>7.4</ele><time>2014-05-25T09:07:24Z</time></trkpt>
<trkpt lat="32.097969000" lon="34.795888000"><ele>7.2</ele><time>2014-05-25T09:07:26Z</time></trkpt>
<trkpt lat="32.097981000" lon="34.796028000"><ele>7.0</ele><time>2014-05-25T09:07:28Z</time></trkpt>
<trkpt lat="32.098042000" lon="34.796167000"><ele>6.8</ele><time>2014-05-25T09:07:30Z</time></trkpt>
<trkpt lat="32.098087000" lon="34.796307000"><ele>6.6</ele><time>2014-05-25T09:07:32Z</time></trkpt>
<trkpt lat="32.098123000" lon="34.796441000"><ele>6.3</ele><time>2014-05-25T09:07:34Z</time></trkpt>
<trkpt lat="32.098151000" lon="34.796584000"><ele>6.8</ele><time>2014-05-25T09:07:36Z</time></trkpt>
<trkpt lat="32.098216000" lon="34.796707000"><ele>7.4</ele><time>2014-05-25T09:07:38Z</time></trkpt>
<trkpt lat="32.098285000" lon="34.796833000"><ele>7.9</ele><time>2014-05-25T09:07:40Z</time></trkpt>
<trkpt lat="32.098362000" lon="34.796948000"><ele>8.5</ele><time>2014-05-25T09:07:42Z</time></trkpt>
<trkpt lat="32.098427000" lon="34.797068000"><ele>8.8</ele><time>2014-05-25T09:07:44Z</time></trkpt>
<trkpt lat="32.098484000" lon="34.797210000"><ele>8.9</ele><time>2014-05-25T09:07:46Z</time></trkpt>
<trkpt lat="32.098558000" lon="34.797332000"><ele>9.3</ele><time>2014-05-25T09:07:48Z</time></trkpt>
<trkpt lat="32.098599000" lon="34.797481000"><ele>9.6</ele><time>2014-05-25T09:07:50Z</time></trkpt>
<trkpt lat="32.098651000" lon="34.797611000"><ele>10.0</ele><time>2014-05-25T09:07:52Z</time></trkpt>
<trkpt lat="32.098731000" lon="34.797726000"><ele>10.4</ele><time>2014-05-25T09:07:54Z</time></trkpt>
<trkpt lat="32.098810000" lon="34.797854000"><ele>10.7</ele><time>2014-05-25T09:07:56Z</time></trkpt>
<trkpt lat="32.098870000" lon="34.797990000"><ele>10.7</ele><time>2014-05-25T09:07:58Z</time></trkpt>
<trkpt lat="32.098940000" lon="34.798109000"><ele>10.6</ele><time>2014-05-25T09:08:00Z</time></trkpt>
<trkpt lat="32.099011000" lon="34.798238000"><ele>10.5</ele><time>2014-05-25T09:08:02Z</time></trkpt>
<trkpt lat="32.099073000" lon="34.798384000"><ele>10.5</ele><time>2014-05-25T09:08:04Z</time></trkpt>
<trkpt lat="32.099150000" lon="34.798520000"><ele>10.4</ele><time>2014-05-25T09:08:06Z</time></trkpt>
<trkpt lat="32.099206000" lon="34.798649000"><ele>10.5</ele><time>2014-05-25T09:08:08Z</time></trkpt>
<trkpt lat="32.099268000" lon="34.798791000"><ele>10.5</ele><time>2014-05-25T09:08:10Z</time></trkpt>
<trkpt lat="32.099322000" lon="34.798915000"><ele>10.0</ele><time>2014-05-25T09:08:12Z</time></trkpt>
<trkpt lat="32.099381000" lon="34.799042000"><ele>9.5</ele><time>2014-05-25T09:08:14Z</time></trkpt>
<trkpt lat="32.099437000" lon="34.799178000"><ele>9.1</ele><time>2014-05-25T09:08:16Z</time></trkpt>
<trkpt lat="32.099497000" lon="34.799315000"><ele>8.6</ele><time>2014-05-25T09:08:18Z</time></trkpt>
<trkpt lat="32.099561000" lon="34.799451000"><ele>8.2</ele><time>2014-05-25T09:08:20Z</time></trkpt>
<trkpt lat="32.099605000" lon="34.799590000"><ele>7.8</ele><time>2014-05-25T09:08:22Z</time></trkpt>
<trkpt lat="32.099656000" lon="34.799731000"><ele>7.5</ele><time>2014-05-25T09:08:24Z</time></trkpt>
<trkpt lat="32.099673000" lon="34.799871000"><ele>7.3</ele><time>2014-05-25T09:08:26Z</time></trkpt>
<trkpt lat="32.099675000" lon="34.800018000"><ele>7.1</ele><time>2014-05-25T09:08:28Z</time></trkpt>
<trkpt lat="32.099679000" lon="34.800166000"><ele>6.9</ele><time>2014-05-25T09:08:30Z</time></trkpt>
<trkpt lat="32.099699000" lon="34.800310000"><ele>6.7</ele><time>2014-05-25T09:08:32Z</time></trkpt>
<trkpt lat="32.099728000" lon="34.800458000"><ele>6.9</ele><time>2014-05-25T09:08:34Z</time></trkpt>
<trkpt lat="32.099729000" lon="34.800599000"><ele>7.1</ele><time>2014-05-25T09:08:36Z</time></trkpt>
<trkpt lat="32.099711000" lon="34.800728000"><ele>7.3</ele><time>2014-05-25T09:08:38Z</time></trkpt>
<trkpt lat="32.099738000" lon="34.800856000"><ele>8.2</ele><time>2014-05-25T09:08:40Z</time></trkpt>
<trkpt lat="32.099750000" lon="34.800989000"><ele>9.1</ele><time>2014-05-25T09:08:42Z</time></trkpt>
<trkpt lat="32.099726000" lon="34.801124000"><ele>10.0</ele><time>2014-05-25T09:08:44Z</time></trkpt>
<trkpt lat="32.099692000" lon="34.801241000"><ele>10.9</ele><time>2014-05-25T09:08:46Z</time></trkpt>
<trkpt lat="32.099644000" lon="34.801357000"><ele>11.6</ele><time>2014-05-25T09:08:48Z</time></trkpt>
<trkpt lat="32.099570000" lon="34.801448000"><ele>12.4</ele><time>2014-05-25T09:08:50Z</time></trkpt>
<trkpt lat="32.099508000" lon="34.801561000"><ele>13.1</ele><time>2014-05-25T09:08:52Z</time></trkpt>
<trkpt lat="32.099464000" lon="34.801667000"><ele>13.8</ele><time>2014-05-25T09:08:54Z</time></trkpt>
<trkpt lat="32.099446000" lon="34.801783000"><ele>13.9</ele><time>2014-05-25T09:08:56Z</time></trkpt>
<trkpt lat="32.099469000" lon="34.801896000"><ele>13.9</ele><time>2014-05-25T09:08:58Z</time></trkpt>
<trkpt lat="32.099471000" lon="34.802015000"><ele>14.0</ele><time>2014-05-25T09:09:00Z</time></trkpt>
<trkpt lat="32.099492000" lon="34.802146000"><ele>13.4</ele><time>2014-05-25T09:09:03Z</time></trkpt>
<trkpt lat="32.099598000" lon="34.802146000"><ele>12.7</ele><time>2014-05-25T09:09:06Z</time></trkpt>
<trkpt lat="32.099703000" lon="34.802171000"><ele>12.0</ele><time>2014-05-25T09:09:09Z</time></trkpt>
<trkpt lat="32.099807000" lon="34.802210000"><ele>11.3</ele><time>2014-05-25T09:09:12Z</time></trkpt>
<trkpt lat="32.099877000" lon="34.802132000"><ele>10.5</ele><time>2014-05-25T09:09:16Z</time></trkpt>
<trkpt lat="32.099865000" lon="34.802014000"><ele>9.8</ele><time>2014-05-25T09:09:19Z</time></trkpt>
<trkpt lat="32.099880000" lon="34.802129000"><ele>9.1</ele><time>2014-05-25T09:09:25Z</time></trkpt>
<trkpt lat="32.099863000" lon="34.802261000"><ele>8.4</ele><time>2014-05-25T09:09:28Z</time></trkpt>
<trkpt lat="32.099868000" lon="34.802371000"><ele>8.3</ele><time>2014-05-25T09:09:33Z</time></trkpt>
<trkpt lat="32.099896000" lon="34.802460000"><ele>8.5</ele><time>2014-05-25T09:09:38Z</time></trkpt>
<trkpt lat="32.099868000" lon="34.802558000"><ele>8.3</ele><time>2014-05-25T09:09:40Z</time></trkpt>
<trkpt lat="32.099817000" lon="34.802700000"><ele>8.0</ele><time>2014-05-25T09:09:42Z</time></trkpt>
<trkpt lat="32.099770000" lon="34.802812000"><ele>7.7</ele><time>2014-05-25T09:09:44Z</time></trkpt>
<trkpt lat="32.099680000" lon="34.802998000"><ele>7.5</ele><time>2014-05-25T09:09:46Z</time></trkpt>
<trkpt lat="32.099611000" lon="34.803124000"><ele>7.4</ele><time>2014-05-25T09:09:49Z</time></trkpt>
<trkpt lat="32.099577000" lon="34.803300000"><ele>7.2</ele><time>2014-05-25T09:09:51Z</time></trkpt>
<trkpt lat="32.099535000" lon="34.803409000"><ele>7.1</ele><time>2014-05-25T09:09:53Z</time></trkpt>
<trkpt lat="32.099482000" lon="34.803511000"><ele>7.0</ele><time>2014-05-25T09:09:55Z</time></trkpt>
<trkpt lat="32.099443000" lon="34.803607000"><ele>6.9</ele><time>2014-05-25T09:09:57Z</time></trkpt>
<trkpt lat="32.099388000" lon="34.803706000"><ele>6.8</ele><time>2014-05-25T09:09:59Z</time></trkpt>
<trkpt lat="32.099341000" lon="34.803801000"><ele>6.5</ele><time>2014-05-25T09:10:01Z</time></trkpt>
<trkpt lat="32.099289000" lon="34.803894000"><ele>6.5</ele><time>2014-05-25T09:10:03Z</time></trkpt>
<trkpt lat="32.099234000" lon="34.803983000"><ele>6.6</ele><time>2014-05-25T09:10:05Z</time></trkpt>
<trkpt lat="32.099179000" lon="34.804074000"><ele>6.7</ele><time>2014-05-25T09:10:07Z</time></trkpt>
<trkpt lat="32.099118000" lon="34.804166000"><ele>6.9</ele><time>2014-05-25T09:10:09Z</time></trkpt>
<trkpt lat="32.099064000" lon="34.804265000"><ele>7.1</ele><time>2014-05-25T09:10:11Z</time></trkpt>
<trkpt lat="32.098993000" lon="34.804374000"><ele>7.3</ele><time>2014-05-25T09:10:13Z</time></trkpt>
<trkpt lat="32.098916000" lon="34.804467000"><ele>7.4</ele><time>2014-05-25T09:10:15Z</time></trkpt>
<trkpt lat="32.098812000" lon="34.804530000"><ele>7.5</ele><time>2014-05-25T09:10:17Z</time></trkpt>
<trkpt lat="32.098698000" lon="34.804552000"><ele>7.5</ele><time>2014-05-25T09:10:19Z</time></trkpt>
<trkpt lat="32.098603000" lon="34.804609000"><ele>7.6</ele><time>2014-05-25T09:10:21Z</time></trkpt>
<trkpt lat="32.098515000" lon="34.804673000"><ele>7.7</ele><time>2014-05-25T09:10:23Z</time></trkpt>
<trkpt lat="32.098421000" lon="34.804743000"><ele>7.5</ele><time>2014-05-25T09:10:25Z</time></trkpt>
<trkpt lat="32.098327000" lon="34.804807000"><ele>7.2</ele><time>2014-05-25T09:10:27Z</time></trkpt>
<trkpt lat="32.098228000" lon="34.804870000"><ele>6.9</ele><time>2014-05-25T09:10:29Z</time></trkpt>
<trkpt lat="32.098122000" lon="34.804923000"><ele>6.5</ele><time>2014-05-25T09:10:31Z</time></trkpt>
<trkpt lat="32.098019000" lon="34.804971000"><ele>6.2</ele><time>2014-05-25T09:10:33Z</time></trkpt>
<trkpt lat="32.097911000" lon="34.805012000"><ele>5.8</ele><time>2014-05-25T09:10:35Z</time></trkpt>
<trkpt lat="32.097802000" lon="34.805045000"><ele>5.5</ele><time>2014-05-25T09:10:37Z</time></trkpt>
<trkpt lat="32.097696000" lon="34.805080000"><ele>5.7</ele><time>2014-05-25T09:10:39Z</time></trkpt>
<trkpt lat="32.097572000" lon="34.805096000"><ele>6.0</ele><time>2014-05-25T09:10:41Z</time></trkpt>
<trkpt lat="32.097472000" lon="34.805112000"><ele>6.3</ele><time>2014-05-25T09:10:43Z</time></trkpt>
<trkpt lat="32.097358000" lon="34.805109000"><ele>6.5</ele><time>2014-05-25T09:10:45Z</time></trkpt>
<trkpt lat="32.097233000" lon="34.805109000"><ele>7.2</ele><time>2014-05-25T09:10:47Z</time></trkpt>
<trkpt lat="32.097119000" lon="34.805091000"><ele>7.8</ele><time>2014-05-25T09:10:49Z</time></trkpt>
<trkpt lat="32.097008000" lon="34.805067000"><ele>8.5</ele><time>2014-05-25T09:10:51Z</time></trkpt>
<trkpt lat="32.096897000" lon="34.805045000"><ele>9.1</ele><time>2014-05-25T09:10:53Z</time></trkpt>
<trkpt lat="32.096789000" lon="34.805017000"><ele>9.6</ele><time>2014-05-25T09:10:55Z</time></trkpt>
<trkpt lat="32.096678000" lon="34.804992000"><ele>10.2</ele><time>2014-05-25T09:10:57Z</time></trkpt>
<trkpt lat="32.096572000" lon="34.804952000"><ele>10.7</ele><time>2014-05-25T09:10:59Z</time></trkpt>
<trkpt lat="32.096454000" lon="34.804919000"><ele>10.6</ele><time>2014-05-25T09:11:01Z</time></trkpt>
<trkpt lat="32.096338000" lon="34.804880000"><ele>10.5</ele><time>2014-05-25T09:11:03Z</time></trkpt>
<trkpt lat="32.096233000" lon="34.804833000"><ele>10.3</ele><time>2014-05-25T09:11:05Z</time></trkpt>
<trkpt lat="32.096129000" lon="34.804784000"><ele>10.1</ele><time>2014-05-25T09:11:07Z</time></trkpt>
<trkpt lat="32.096023000" lon="34.804728000"><ele>9.9</ele><time>2014-05-25T09:11:09Z</time></trkpt>
<trkpt lat="32.095921000" lon="34.804678000"><ele>9.5</ele><time>2014-05-25T09:11:11Z</time></trkpt>
<trkpt lat="32.095814000" lon="34.804623000"><ele>9.0</ele><time>2014-05-25T09:11:13Z</time></trkpt>
<trkpt lat="32.095708000" lon="34.804567000"><ele>8.5</ele><time>2014-05-25T09:11:15Z</time></trkpt>
<trkpt lat="32.095611000" lon="34.804504000"><ele>8.2</ele><time>2014-05-25T09:11:17Z</time></trkpt>
<trkpt lat="32.095507000" lon="34.804446000"><ele>7.8</ele><time>2014-05-25T09:11:19Z</time></trkpt>
<trkpt lat="32.095404000" lon="34.804377000"><ele>7.5</ele><time>2014-05-25T09:11:21Z</time></trkpt>
<trkpt lat="32.095306000" lon="34.804301000"><ele>7.1</ele><time>2014-05-25T09:11:23Z</time></trkpt>
<trkpt lat="32.095200000" lon="34.804217000"><ele>6.5</ele><time>2014-05-25T09:11:25Z</time></trkpt>
<trkpt lat="32.095091000" lon="34.804143000"><ele>6.0</ele><time>2014-05-25T09:11:27Z</time></trkpt>
<trkpt lat="32.094991000" lon="34.804046000"><ele>5.7</ele><time>2014-05-25T09:11:29Z</time></trkpt>
<trkpt lat="32.094893000" lon="34.803966000"><ele>5.5</ele><time>2014-05-25T09:11:31Z</time></trkpt>
<trkpt lat="32.094797000" lon="34.803885000"><ele>5.5</ele><time>2014-05-25T09:11:33Z</time></trkpt>
<trkpt lat="32.094700000" lon="34.803798000"><ele>5.5</ele><time>2014-05-25T09:11:35Z</time></trkpt>
<trkpt lat="32.094648000" lon="34.803683000"><ele>5.5</ele><time>2014-05-25T09:11:37Z</time></trkpt>
<trkpt lat="32.094580000" lon="34.803579000"><ele>5.5</ele><time>2014-05-25T09:11:39Z</time></trkpt>
<trkpt lat="32.094490000" lon="34.803502000"><ele>5.5</ele><time>2014-05-25T09:11:41Z</time></trkpt>
<trkpt lat="32.094406000" lon="34.803422000"><ele>5.0</ele><time>2014-05-25T09:11:43Z</time></trkpt>
<trkpt lat="32.094332000" lon="34.803342000"><ele>4.5</ele><time>2014-05-25T09:11:45Z</time></trkpt>
<trkpt lat="32.094251000" lon="34.803262000"><ele>4.4</ele><time>2014-05-25T09:11:47Z</time></trkpt>
<trkpt lat="32.094166000" lon="34.803164000"><ele>4.7</ele><time>2014-05-25T09:11:49Z</time></trkpt>
<trkpt lat="32.094092000" lon="34.803082000"><ele>4.8</ele><time>2014-05-25T09:11:51Z</time></trkpt>
<trkpt lat="32.094007000" lon="34.802983000"><ele>4.9</ele><time>2014-05-25T09:11:53Z</time></trkpt>
<trkpt lat="32.093917000" lon="34.802905000"><ele>5.0</ele><time>2014-05-25T09:11:55Z</time></trkpt>
<trkpt lat="32.093825000" lon="34.802835000"><ele>5.1</ele><time>2014-05-25T09:11:57Z</time></trkpt>
<trkpt lat="32.093727000" lon="34.802770000"><ele>5.2</ele><time>2014-05-25T09:11:59Z</time></trkpt>
<trkpt lat="32.093642000" lon="34.802700000"><ele>5.3</ele><time>2014-05-25T09:12:01Z</time></trkpt>
<trkpt lat="32.093557000" lon="34.802649000"><ele>5.4</ele><time>2014-05-25T09:12:03Z</time></trkpt>
<trkpt lat="32.093464000" lon="34.802592000"><ele>5.9</ele><time>2014-05-25T09:12:05Z</time></trkpt>
<trkpt lat="32.093384000" lon="34.802552000"><ele>6.8</ele><time>2014-05-25T09:12:07Z</time></trkpt>
<trkpt lat="32.093267000" lon="34.802500000"><ele>7.7</ele><time>2014-05-25T09:12:10Z</time></trkpt>
<trkpt lat="32.093171000" lon="34.802496000"><ele>8.1</ele><time>2014-05-25T09:12:12Z</time></trkpt>
<trkpt lat="32.093089000" lon="34.802517000"><ele>8.5</ele><time>2014-05-25T09:12:14Z</time></trkpt>
<trkpt lat="32.093016000" lon="34.802572000"><ele>8.8</ele><time>2014-05-25T09:12:16Z</time></trkpt>
<trkpt lat="32.092936000" lon="34.802623000"><ele>9.2</ele><time>2014-05-25T09:12:18Z</time></trkpt>
<trkpt lat="32.092857000" lon="34.802657000"><ele>9.5</ele><time>2014-05-25T09:12:20Z</time></trkpt>
<trkpt lat="32.092745000" lon="34.802696000"><ele>9.9</ele><time>2014-05-25T09:12:23Z</time></trkpt>
<trkpt lat="32.092639000" lon="34.802702000"><ele>10.3</ele><time>2014-05-25T09:12:26Z</time></trkpt>
<trkpt lat="32.092539000" lon="34.802690000"><ele>11.0</ele><time>2014-05-25T09:12:29Z</time></trkpt>
<trkpt lat="32.092431000" lon="34.802717000"><ele>11.7</ele><time>2014-05-25T09:12:32Z</time></trkpt>
<trkpt lat="32.092354000" lon="34.802754000"><ele>12.3</ele><time>2014-05-25T09:12:34Z</time></trkpt>
<trkpt lat="32.092255000" lon="34.802823000"><ele>12.8</ele><time>2014-05-25T09:12:36Z</time></trkpt>
<trkpt lat="32.092166000" lon="34.802876000"><ele>13.4</ele><time>2014-05-25T09:12:38Z</time></trkpt>
<trkpt lat="32.092084000" lon="34.802921000"><ele>13.9</ele><time>2014-05-25T09:12:40Z</time></trkpt>
<trkpt lat="32.091983000" lon="34.802979000"><ele>14.5</ele><time>2014-05-25T09:12:42Z</time></trkpt>
<trkpt lat="32.091898000" lon="34.803038000"><ele>15.0</ele><time>2014-05-25T09:12:44Z</time></trkpt>
<trkpt lat="32.091800000" lon="34.803105000"><ele>15.5</ele><time>2014-05-25T09:12:46Z</time></trkpt>
<trkpt lat="32.091713000" lon="34.803170000"><ele>16.1</ele><time>2014-05-25T09:12:48Z</time></trkpt>
<trkpt lat="32.091626000" lon="34.803235000"><ele>16.6</ele><time>2014-05-25T09:12:50Z</time></trkpt>
<trkpt lat="32.091538000" lon="34.803289000"><ele>16.8</ele><time>2014-05-25T09:12:52Z</time></trkpt>
<trkpt lat="32.091426000" lon="34.803340000"><ele>17.0</ele><time>2014-05-25T09:12:54Z</time></trkpt>
<trkpt lat="32.091312000" lon="34.803403000"><ele>17.0</ele><time>2014-05-25T09:12:56Z</time></trkpt>
<trkpt lat="32.091200000" lon="34.803475000"><ele>17.2</ele><time>2014-05-25T09:12:58Z</time></trkpt>
<trkpt lat="32.091104000" lon="34.803533000"><ele>17.4</ele><time>2014-05-25T09:13:00Z</time></trkpt>
<trkpt lat="32.091007000" lon="34.803626000"><ele>17.5</ele><time>2014-05-25T09:13:02Z</time></trkpt>
<trkpt lat="32.090919000" lon="34.803684000"><ele>17.7</ele><time>2014-05-25T09:13:04Z</time></trkpt>
<trkpt lat="32.090857000" lon="34.803769000"><ele>17.9</ele><time>2014-05-25T09:13:06Z</time></trkpt>
<trkpt lat="32.090796000" lon="34.803879000"><ele>18.1</ele><time>2014-05-25T09:13:08Z</time></trkpt>
<trkpt lat="32.090755000" lon="34.803999000"><ele>18.3</ele><time>2014-05-25T09:13:10Z</time></trkpt>
<trkpt lat="32.090725000" lon="34.804120000"><ele>18.5</ele><time>2014-05-25T09:13:12Z</time></trkpt>
<trkpt lat="32.090709000" lon="34.804253000"><ele>18.9</ele><time>2014-05-25T09:13:14Z</time></trkpt>
<trkpt lat="32.090690000" lon="34.804365000"><ele>19.4</ele><time>2014-05-25T09:13:16Z</time></trkpt>
<trkpt lat="32.090613000" lon="34.804448000"><ele>19.8</ele><time>2014-05-25T09:13:18Z</time></trkpt>
<trkpt lat="32.090529000" lon="34.804469000"><ele>20.1</ele><time>2014-05-25T09:13:20Z</time></trkpt>
<trkpt lat="32.090441000" lon="34.804476000"><ele>20.4</ele><time>2014-05-25T09:13:22Z</time></trkpt>
<trkpt lat="32.090349000" lon="34.804468000"><ele>20.6</ele><time>2014-05-25T09:13:25Z</time></trkpt>
<trkpt lat="32.090259000" lon="34.804489000"><ele>20.9</ele><time>2014-05-25T09:13:27Z</time></trkpt>
<trkpt lat="32.090170000" lon="34.804517000"><ele>21.2</ele><time>2014-05-25T09:13:29Z</time></trkpt>
<trkpt lat="32.090052000" lon="34.804542000"><ele>21.5</ele><time>2014-05-25T09:13:32Z</time></trkpt>
<trkpt lat="32.089963000" lon="34.804522000"><ele>21.9</ele><time>2014-05-25T09:13:34Z</time></trkpt>
<trkpt lat="32.089871000" lon="34.804500000"><ele>22.3</ele><time>2014-05-25T09:13:36Z</time></trkpt>
<trkpt lat="32.089750000" lon="34.804467000"><ele>22.4</ele><time>2014-05-25T09:13:39Z</time></trkpt>
<trkpt lat="32.089674000" lon="34.804398000"><ele>22.5</ele><time>2014-05-25T09:13:42Z</time></trkpt>
<trkpt lat="32.089579000" lon="34.804415000"><ele>22.5</ele><time>2014-05-25T09:13:45Z</time></trkpt>
<trkpt lat="32.089460000" lon="34.804335000"><ele>22.6</ele><time>2014-05-25T09:13:48Z</time></trkpt>
<trkpt lat="32.089356000" lon="34.804288000"><ele>22.7</ele><time>2014-05-25T09:13:50Z</time></trkpt>
<trkpt lat="32.089275000" lon="34.804248000"><ele>22.8</ele><time>2014-05-25T09:13:52Z</time></trkpt>
<trkpt lat="32.089182000" lon="34.804201000"><ele>22.9</ele><time>2014-05-25T09:13:54Z</time></trkpt>
<trkpt lat="32.089128000" lon="34.804127000"><ele>22.9</ele><time>2014-05-25T09:13:56Z</time></trkpt>
<trkpt lat="32.089080000" lon="34.804040000"><ele>22.8</ele><time>2014-05-25T09:13:58Z</time></trkpt>
<trkpt lat="32.089000000" lon="34.803978000"><ele>22.7</ele><time>2014-05-25T09:14:00Z</time></trkpt>
<trkpt lat="32.088921000" lon="34.804015000"><ele>22.6</ele><time>2014-05-25T09:14:01Z</time></trkpt>
<trkpt lat="32.088832000" lon="34.804020000"><ele>22.5</ele><time>2014-05-25T09:14:03Z</time></trkpt>
<trkpt lat="32.088742000" lon="34.804026000"><ele>22.5</ele><time>2014-05-25T09:14:06Z</time></trkpt>
<trkpt lat="32.088642000" lon="34.803984000"><ele>22.4</ele><time>2014-05-25T09:14:09Z</time></trkpt>
<trkpt lat="32.088585000" lon="34.803876000"><ele>22.3</ele><time>2014-05-25T09:14:12Z</time></trkpt>
<trkpt lat="32.088564000" lon="34.803736000"><ele>22.2</ele><time>2014-05-25T09:14:15Z</time></trkpt>
<trkpt lat="32.088570000" lon="34.803633000"><ele>22.3</ele><time>2014-05-25T09:14:17Z</time></trkpt>
<trkpt lat="32.088599000" lon="34.803492000"><ele>22.0</ele><time>2014-05-25T09:14:19Z</time></trkpt>
<trkpt lat="32.088622000" lon="34.803378000"><ele>21.8</ele><time>2014-05-25T09:14:21Z</time></trkpt>
<trkpt lat="32.088667000" lon="34.803280000"><ele>21.6</ele><time>2014-05-25T09:14:23Z</time></trkpt>
<trkpt lat="32.088753000" lon="34.803166000"><ele>21.5</ele><time>2014-05-25T09:14:26Z</time></trkpt>
<trkpt lat="32.088823000" lon="34.803044000"><ele>21.3</ele><time>2014-05-25T09:14:29Z</time></trkpt>
<trkpt lat="32.088885000" lon="34.802943000"><ele>21.1</ele><time>2014-05-25T09:14:32Z</time></trkpt>
<trkpt lat="32.088959000" lon="34.802839000"><ele>20.9</ele><time>2014-05-25T09:14:35Z</time></trkpt>
<trkpt lat="32.088994000" lon="34.802747000"><ele>21.0</ele><time>2014-05-25T09:14:38Z</time></trkpt>
<trkpt lat="32.089023000" lon="34.802655000"><ele>21.1</ele><time>2014-05-25T09:14:44Z</time></trkpt>
<trkpt lat="32.088951000" lon="34.802570000"><ele>21.2</ele><time>2014-05-25T09:14:48Z</time></trkpt>
<trkpt lat="32.088881000" lon="34.802516000"><ele>20.5</ele><time>2014-05-25T09:14:51Z</time></trkpt>
<trkpt lat="32.088784000" lon="34.802472000"><ele>20.1</ele><time>2014-05-25T09:14:54Z</time></trkpt>
<trkpt lat="32.088704000" lon="34.802402000"><ele>19.7</ele><time>2014-05-25T09:14:57Z</time></trkpt>
<trkpt lat="32.088626000" lon="34.802335000"><ele>19.4</ele><time>2014-05-25T09:15:00Z</time></trkpt>
<trkpt lat="32.088567000" lon="34.802246000"><ele>19.0</ele><time>2014-05-25T09:15:08Z</time></trkpt>
<trkpt lat="32.088505000" lon="34.802179000"><ele>18.6</ele><time>2014-05-25T09:15:11Z</time></trkpt>
<trkpt lat="32.088469000" lon="34.802070000"><ele>18.3</ele><time>2014-05-25T09:15:17Z</time></trkpt>
<trkpt lat="32.088408000" lon="34.801911000"><ele>17.9</ele><time>2014-05-25T09:15:20Z</time></trkpt>
<trkpt lat="32.088327000" lon="34.801806000"><ele>17.1</ele><time>2014-05-25T09:15:22Z</time></trkpt>
<trkpt lat="32.088259000" lon="34.801685000"><ele>15.8</ele><time>2014-05-25T09:15:24Z</time></trkpt>
<trkpt lat="32.088195000" lon="34.801593000"><ele>14.5</ele><time>2014-05-25T09:15:26Z</time></trkpt>
<trkpt lat="32.088078000" lon="34.801579000"><ele>13.9</ele><time>2014-05-25T09:15:27Z</time></trkpt>
<trkpt lat="32.087994000" lon="34.801491000"><ele>13.3</ele><time>2014-05-25T09:15:29Z</time></trkpt>
<trkpt lat="32.087925000" lon="34.801420000"><ele>12.6</ele><time>2014-05-25T09:15:31Z</time></trkpt>
<trkpt lat="32.087854000" lon="34.801359000"><ele>12.0</ele><time>2014-05-25T09:15:34Z</time></trkpt>
<trkpt lat="32.087774000" lon="34.801329000"><ele>11.4</ele><time>2014-05-25T09:15:37Z</time></trkpt>
<trkpt lat="32.087689000" lon="34.801278000"><ele>10.7</ele><time>2014-05-25T09:15:39Z</time></trkpt>
<trkpt lat="32.087590000" lon="34.801224000"><ele>10.3</ele><time>2014-05-25T09:15:41Z</time></trkpt>
<trkpt lat="32.087483000" lon="34.801162000"><ele>9.8</ele><time>2014-05-25T09:15:43Z</time></trkpt>
<trkpt lat="32.087369000" lon="34.801098000"><ele>9.5</ele><time>2014-05-25T09:15:45Z</time></trkpt>
<trkpt lat="32.087261000" lon="34.801034000"><ele>9.7</ele><time>2014-05-25T09:15:47Z</time></trkpt>
<trkpt lat="32.087151000" lon="34.800973000"><ele>9.9</ele><time>2014-05-25T09:15:49Z</time></trkpt>
<trkpt lat="32.087040000" lon="34.800894000"><ele>10.1</ele><time>2014-05-25T09:15:51Z</time></trkpt>
<trkpt lat="32.086952000" lon="34.800861000"><ele>10.3</ele><time>2014-05-25T09:15:52Z</time></trkpt>
<trkpt lat="32.086832000" lon="34.800777000"><ele>10.5</ele><time>2014-05-25T09:15:54Z</time></trkpt>
<trkpt lat="32.086695000" lon="34.800697000"><ele>10.6</ele><time>2014-05-25T09:15:56Z</time></trkpt>
<trkpt lat="32.086560000" lon="34.800629000"><ele>10.8</ele><time>2014-05-25T09:15:58Z</time></trkpt>
<trkpt lat="32.086427000" lon="34.800564000"><ele>11.0</ele><time>2014-05-25T09:16:00Z</time></trkpt>
<trkpt lat="32.086291000" lon="34.800514000"><ele>11.0</ele><time>2014-05-25T09:16:02Z</time></trkpt>
<trkpt lat="32.086112000" lon="34.800417000"><ele>11.0</ele><time>2014-05-25T09:16:04Z</time></trkpt>
<trkpt lat="32.085982000" lon="34.800353000"><ele>11.5</ele><time>2014-05-25T09:16:06Z</time></trkpt>
<trkpt lat="32.085851000" lon="34.800295000"><ele>12.1</ele><time>2014-05-25T09:16:08Z</time></trkpt>
<trkpt lat="32.085725000" lon="34.800250000"><ele>12.6</ele><time>2014-05-25T09:16:10Z</time></trkpt>
<trkpt lat="32.085612000" lon="34.800232000"><ele>13.2</ele><time>2014-05-25T09:16:12Z</time></trkpt>
<trkpt lat="32.085502000" lon="34.800161000"><ele>13.7</ele><time>2014-05-25T09:16:14Z</time></trkpt>
<trkpt lat="32.085401000" lon="34.800090000"><ele>14.3</ele><time>2014-05-25T09:16:16Z</time></trkpt>
<trkpt lat="32.085323000" lon="34.800033000"><ele>14.8</ele><time>2014-05-25T09:16:18Z</time></trkpt>
<trkpt lat="32.085243000" lon="34.799981000"><ele>15.4</ele><time>2014-05-25T09:16:20Z</time></trkpt>
<trkpt lat="32.085152000" lon="34.799947000"><ele>15.9</ele><time>2014-05-25T09:16:22Z</time></trkpt>
<trkpt lat="32.085061000" lon="34.799986000"><ele>16.7</ele><time>2014-05-25T09:16:24Z</time></trkpt>
<trkpt lat="32.084918000" lon="34.799969000"><ele>17.5</ele><time>2014-05-25T09:16:27Z</time></trkpt>
<trkpt lat="32.084816000" lon="34.799944000"><ele>17.8</ele><time>2014-05-25T09:16:29Z</time></trkpt>
<trkpt lat="32.084725000" lon="34.799916000"><ele>18.1</ele><time>2014-05-25T09:16:31Z</time></trkpt>
<trkpt lat="32.084612000" lon="34.799908000"><ele>18.4</ele><time>2014-05-25T09:16:33Z</time></trkpt>
<trkpt lat="32.084510000" lon="34.799896000"><ele>18.6</ele><time>2014-05-25T09:16:35Z</time></trkpt>
<trkpt lat="32.084386000" lon="34.799932000"><ele>18.9</ele><time>2014-05-25T09:16:37Z</time></trkpt>
<trkpt lat="32.084257000" lon="34.799934000"><ele>18.9</ele><time>2014-05-25T09:16:39Z</time></trkpt>
<trkpt lat="32.084158000" lon="34.799873000"><ele>18.3</ele><time>2014-05-25T09:16:41Z</time></trkpt>
<trkpt lat="32.084049000" lon="34.799799000"><ele>17.6</ele><time>2014-05-25T09:16:43Z</time></trkpt>
<trkpt lat="32.083954000" lon="34.799682000"><ele>17.0</ele><time>2014-05-25T09:16:45Z</time></trkpt>
<trkpt lat="32.083882000" lon="34.799603000"><ele>16.1</ele><time>2014-05-25T09:16:46Z</time></trkpt>
<trkpt lat="32.083828000" lon="34.799515000"><ele>15.2</ele><time>2014-05-25T09:16:47Z</time></trkpt>
<trkpt lat="32.083700000" lon="34.799439000"><ele>14.3</ele><time>2014-05-25T09:16:49Z</time></trkpt>
<trkpt lat="32.083535000" lon="34.799410000"><ele>13.4</ele><time>2014-05-25T09:16:51Z</time></trkpt>
<trkpt lat="32.083450000" lon="34.799405000"><ele>12.5</ele><time>2014-05-25T09:16:52Z</time></trkpt>
<trkpt lat="32.083367000" lon="34.799402000"><ele>11.4</ele><time>2014-05-25T09:16:53Z</time></trkpt>
<trkpt lat="32.083281000" lon="34.799408000"><ele>10.3</ele><time>2014-05-25T09:16:54Z</time></trkpt>
<trkpt lat="32.083193000" lon="34.799420000"><ele>9.5</ele><time>2014-05-25T09:16:55Z</time></trkpt>
<trkpt lat="32.083104000" lon="34.799435000"><ele>9.8</ele><time>2014-05-25T09:16:56Z</time></trkpt>
<trkpt lat="32.083013000" lon="34.799458000"><ele>10.2</ele><time>2014-05-25T09:16:57Z</time></trkpt>
<trkpt lat="32.082928000" lon="34.799480000"><ele>10.5</ele><time>2014-05-25T09:16:58Z</time></trkpt>
<trkpt lat="32.082844000" lon="34.799514000"><ele>10.9</ele><time>2014-05-25T09:16:59Z</time></trkpt>
<trkpt lat="32.082759000" lon="34.799558000"><ele>11.3</ele><time>2014-05-25T09:17:00Z</time></trkpt>
<trkpt lat="32.082672000" lon="34.799601000"><ele>11.6</ele><time>2014-05-25T09:17:01Z</time></trkpt>
<trkpt lat="32.082590000" lon="34.799644000"><ele>12.0</ele><time>2014-05-25T09:17:02Z</time></trkpt>
<trkpt lat="32.082511000" lon="34.799689000"><ele>11.8</ele><time>2014-05-25T09:17:03Z</time></trkpt>
<trkpt lat="32.082431000" lon="34.799733000"><ele>11.8</ele><time>2014-05-25T09:17:04Z</time></trkpt>
<trkpt lat="32.082346000" lon="34.799777000"><ele>11.8</ele><time>2014-05-25T09:17:05Z</time></trkpt>
<trkpt lat="32.082262000" lon="34.799822000"><ele>11.8</ele><time>2014-05-25T09:17:06Z</time></trkpt>
<trkpt lat="32.082179000" lon="34.799835000"><ele>11.3</ele><time>2014-05-25T09:17:07Z</time></trkpt>
<trkpt lat="32.082051000" lon="34.799894000"><ele>10.7</ele><time>2014-05-25T09:17:09Z</time></trkpt>
<trkpt lat="32.081901000" lon="34.799936000"><ele>10.2</ele><time>2014-05-25T09:17:11Z</time></trkpt>
<trkpt lat="32.081776000" lon="34.799961000"><ele>10.1</ele><time>2014-05-25T09:17:13Z</time></trkpt>
<trkpt lat="32.081663000" lon="34.799974000"><ele>10.0</ele><time>2014-05-25T09:17:15Z</time></trkpt>
<trkpt lat="32.081557000" lon="34.799978000"><ele>9.9</ele><time>2014-05-25T09:17:17Z</time></trkpt>
<trkpt lat="32.081469000" lon="34.799961000"><ele>9.8</ele><time>2014-05-25T09:17:19Z</time></trkpt>
<trkpt lat="32.081369000" lon="34.799950000"><ele>10.3</ele><time>2014-05-25T09:17:21Z</time></trkpt>
<trkpt lat="32.081287000" lon="34.799932000"><ele>10.7</ele><time>2014-05-25T09:17:23Z</time></trkpt>
<trkpt lat="32.081196000" lon="34.799890000"><ele>11.2</ele><time>2014-05-25T09:17:26Z</time></trkpt>
<trkpt lat="32.081102000" lon="34.799886000"><ele>11.6</ele><time>2014-05-25T09:17:41Z</time></trkpt>
<trkpt lat="32.081010000" lon="34.799878000"><ele>12.1</ele><time>2014-05-25T09:17:44Z</time></trkpt>
<trkpt lat="32.080924000" lon="34.799878000"><ele>12.5</ele><time>2014-05-25T09:17:46Z</time></trkpt>
<trkpt lat="32.080812000" lon="34.799860000"><ele>13.1</ele><time>2014-05-25T09:17:49Z</time></trkpt>
<trkpt lat="32.080699000" lon="34.799821000"><ele>13.2</ele><time>2014-05-25T09:17:52Z</time></trkpt>
<trkpt lat="32.080594000" lon="34.799761000"><ele>13.3</ele><time>2014-05-25T09:17:55Z</time></trkpt>
<trkpt lat="32.080493000" lon="34.799692000"><ele>13.4</ele><time>2014-05-25T09:17:58Z</time></trkpt>
<trkpt lat="32.080432000" lon="34.799628000"><ele>13.5</ele><time>2014-05-25T09:18:00Z</time></trkpt>
<trkpt lat="32.080309000" lon="34.799537000"><ele>13.5</ele><time>2014-05-25T09:18:02Z</time></trkpt>
<trkpt lat="32.080256000" lon="34.799459000"><ele>13.6</ele><time>2014-05-25T09:18:04Z</time></trkpt>
<trkpt lat="32.080179000" lon="34.799379000"><ele>13.7</ele><time>2014-05-25T09:18:06Z</time></trkpt>
<trkpt lat="32.080095000" lon="34.799314000"><ele>13.8</ele><time>2014-05-25T09:18:08Z</time></trkpt>
<trkpt lat="32.080006000" lon="34.799239000"><ele>14.1</ele><time>2014-05-25T09:18:10Z</time></trkpt>
<trkpt lat="32.079935000" lon="34.799152000"><ele>14.4</ele><time>2014-05-25T09:18:12Z</time></trkpt>
<trkpt lat="32.079846000" lon="34.799048000"><ele>14.5</ele><time>2014-05-25T09:18:15Z</time></trkpt>
<trkpt lat="32.079773000" lon="34.798986000"><ele>14.5</ele><time>2014-05-25T09:18:17Z</time></trkpt>
<trkpt lat="32.079694000" lon="34.798948000"><ele>14.6</ele><time>2014-05-25T09:18:19Z</time></trkpt>
<trkpt lat="32.079591000" lon="34.798887000"><ele>14.7</ele><time>2014-05-25T09:18:22Z</time></trkpt>
<trkpt lat="32.079523000" lon="34.798796000"><ele>14.8</ele><time>2014-05-25T09:18:25Z</time></trkpt>
<trkpt lat="32.079438000" lon="34.798741000"><ele>14.9</ele><time>2014-05-25T09:18:39Z</time></trkpt>
<trkpt lat="32.079327000" lon="34.798730000"><ele>15.0</ele><time>2014-05-25T09:18:42Z</time></trkpt>
<trkpt lat="32.079187000" lon="34.798682000"><ele>15.5</ele><time>2014-05-25T09:18:44Z</time></trkpt>
<trkpt lat="32.079092000" lon="34.798594000"><ele>16.1</ele><time>2014-05-25T09:18:46Z</time></trkpt>
<trkpt lat="32.079001000" lon="34.798477000"><ele>16.3</ele><time>2014-05-25T09:18:48Z</time></trkpt>
<trkpt lat="32.078926000" lon="34.798350000"><ele>16.5</ele><time>2014-05-25T09:18:50Z</time></trkpt>
<trkpt lat="32.078842000" lon="34.798230000"><ele>16.7</ele><time>2014-05-25T09:18:52Z</time></trkpt>
<trkpt lat="32.078761000" lon="34.798122000"><ele>17.0</ele><time>2014-05-25T09:18:54Z</time></trkpt>
<trkpt lat="32.078688000" lon="34.798008000"><ele>17.3</ele><time>2014-05-25T09:18:56Z</time></trkpt>
<trkpt lat="32.078612000" lon="34.797894000"><ele>17.5</ele><time>2014-05-25T09:18:58Z</time></trkpt>
<trkpt lat="32.078549000" lon="34.797800000"><ele>17.8</ele><time>2014-05-25T09:19:00Z</time></trkpt>
<trkpt lat="32.078488000" lon="34.797699000"><ele>18.1</ele><time>2014-05-25T09:19:02Z</time></trkpt>
<trkpt lat="32.078449000" lon="34.797607000"><ele>18.4</ele><time>2014-05-25T09:19:04Z</time></trkpt>
<trkpt lat="32.078399000" lon="34.797510000"><ele>17.7</ele><time>2014-05-25T09:19:06Z</time></trkpt>
<trkpt lat="32.078332000" lon="34.797422000"><ele>17.1</ele><time>2014-05-25T09:19:08Z</time></trkpt>
<trkpt lat="32.078256000" lon="34.797341000"><ele>17.1</ele><time>2014-05-25T09:19:10Z</time></trkpt>
<trkpt lat="32.078192000" lon="34.797257000"><ele>17.1</ele><time>2014-05-25T09:19:12Z</time></trkpt>
<trkpt lat="32.078143000" lon="34.797161000"><ele>17.1</ele><time>2014-05-25T09:19:14Z</time></trkpt>
<trkpt lat="32.078070000" lon="34.797068000"><ele>17.1</ele><time>2014-05-25T09:19:16Z</time></trkpt>
<trkpt lat="32.077985000" lon="34.796986000"><ele>17.1</ele><time>2014-05-25T09:19:18Z</time></trkpt>
<trkpt lat="32.077880000" lon="34.796902000"><ele>17.1</ele><time>2014-05-25T09:19:20Z</time></trkpt>
<trkpt lat="32.077787000" lon="34.796829000"><ele>17.1</ele><time>2014-05-25T09:19:22Z</time></trkpt>
<trkpt lat="32.077687000" lon="34.796754000"><ele>17.2</ele><time>2014-05-25T09:19:24Z</time></trkpt>
<trkpt lat="32.077573000" lon="34.796673000"><ele>17.3</ele><time>2014-05-25T09:19:26Z</time></trkpt>
<trkpt lat="32.077458000" lon="34.796633000"><ele>17.8</ele><time>2014-05-25T09:19:28Z</time></trkpt>
<trkpt lat="32.077300000" lon="34.796594000"><ele>18.4</ele><time>2014-05-25T09:19:30Z</time></trkpt>
<trkpt lat="32.077194000" lon="34.796543000"><ele>18.5</ele><time>2014-05-25T09:19:32Z</time></trkpt>
<trkpt lat="32.077100000" lon="34.796499000"><ele>18.0</ele><time>2014-05-25T09:19:34Z</time></trkpt>
<trkpt lat="32.077006000" lon="34.796507000"><ele>17.5</ele><time>2014-05-25T09:19:35Z</time></trkpt>
<trkpt lat="32.076899000" lon="34.796456000"><ele>17.5</ele><time>2014-05-25T09:19:37Z</time></trkpt>
<trkpt lat="32.076814000" lon="34.796378000"><ele>17.5</ele><time>2014-05-25T09:19:39Z</time></trkpt>
<trkpt lat="32.076676000" lon="34.796334000"><ele>17.5</ele><time>2014-05-25T09:19:41Z</time></trkpt>
<trkpt lat="32.076552000" lon="34.796296000"><ele>17.5</ele><time>2014-05-25T09:19:43Z</time></trkpt>
<trkpt lat="32.076427000" lon="34.796260000"><ele>17.5</ele><time>2014-05-25T09:19:45Z</time></trkpt>
<trkpt lat="32.076306000" lon="34.796240000"><ele>17.4</ele><time>2014-05-25T09:19:47Z</time></trkpt>
<trkpt lat="32.076199000" lon="34.796203000"><ele>17.3</ele><time>2014-05-25T09:19:49Z</time></trkpt>
<trkpt lat="32.076100000" lon="34.796145000"><ele>17.2</ele><time>2014-05-25T09:19:51Z</time></trkpt>
<trkpt lat="32.076013000" lon="34.796120000"><ele>17.1</ele><time>2014-05-25T09:19:54Z</time></trkpt>
<trkpt lat="32.075915000" lon="34.796095000"><ele>17.5</ele><time>2014-05-25T09:19:56Z</time></trkpt>
<trkpt lat="32.075828000" lon="34.796035000"><ele>17.7</ele><time>2014-05-25T09:19:58Z</time></trkpt>
<trkpt lat="32.075742000" lon="34.795968000"><ele>17.5</ele><time>2014-05-25T09:20:00Z</time></trkpt>
<trkpt lat="32.075659000" lon="34.795955000"><ele>17.2</ele><time>2014-05-25T09:20:02Z</time></trkpt>
<trkpt lat="32.075558000" lon="34.795930000"><ele>16.9</ele><time>2014-05-25T09:20:04Z</time></trkpt>
<trkpt lat="32.075465000" lon="34.795862000"><ele>16.6</ele><time>2014-05-25T09:20:07Z</time></trkpt>
<trkpt lat="32.075399000" lon="34.795756000"><ele>16.4</ele><time>2014-05-25T09:20:10Z</time></trkpt>
<trkpt lat="32.075316000" lon="34.795678000"><ele>16.1</ele><time>2014-05-25T09:20:13Z</time></trkpt>
<trkpt lat="32.075213000" lon="34.795673000"><ele>15.8</ele><time>2014-05-25T09:20:15Z</time></trkpt>
<trkpt lat="32.075122000" lon="34.795640000"><ele>15.6</ele><time>2014-05-25T09:20:17Z</time></trkpt>
<trkpt lat="32.075033000" lon="34.795594000"><ele>15.7</ele><time>2014-05-25T09:20:19Z</time></trkpt>
<trkpt lat="32.074933000" lon="34.795573000"><ele>15.8</ele><time>2014-05-25T09:20:21Z</time></trkpt>
<trkpt lat="32.074847000" lon="34.795535000"><ele>16.2</ele><time>2014-05-25T09:20:23Z</time></trkpt>
<trkpt lat="32.074748000" lon="34.795493000"><ele>16.5</ele><time>2014-05-25T09:20:25Z</time></trkpt>
<trkpt lat="32.074649000" lon="34.795459000"><ele>16.9</ele><time>2014-05-25T09:20:27Z</time></trkpt>
<trkpt lat="32.074556000" lon="34.795425000"><ele>17.3</ele><time>2014-05-25T09:20:29Z</time></trkpt>
<trkpt lat="32.074481000" lon="34.795471000"><ele>17.6</ele><time>2014-05-25T09:20:30Z</time></trkpt>
<trkpt lat="32.074388000" lon="34.795422000"><ele>18.0</ele><time>2014-05-25T09:20:32Z</time></trkpt>
<trkpt lat="32.074289000" lon="34.795354000"><ele>18.4</ele><time>2014-05-25T09:20:35Z</time></trkpt>
<trkpt lat="32.074211000" lon="34.795324000"><ele>18.5</ele><time>2014-05-25T09:20:37Z</time></trkpt>
<trkpt lat="32.074139000" lon="34.795266000"><ele>18.6</ele><time>2014-05-25T09:20:39Z</time></trkpt>
<trkpt lat="32.074054000" lon="34.795240000"><ele>18.5</ele><time>2014-05-25T09:20:41Z</time></trkpt>
<trkpt lat="32.073916000" lon="34.795289000"><ele>18.3</ele><time>2014-05-25T09:20:43Z</time></trkpt>
<trkpt lat="32.073808000" lon="34.795241000"><ele>18.1</ele><time>2014-05-25T09:20:45Z</time></trkpt>
<trkpt lat="32.073727000" lon="34.795193000"><ele>17.9</ele><time>2014-05-25T09:20:47Z</time></trkpt>
<trkpt lat="32.073637000" lon="34.795137000"><ele>17.7</ele><time>2014-05-25T09:20:49Z</time></trkpt>
<trkpt lat="32.073550000" lon="34.795076000"><ele>17.5</ele><time>2014-05-25T09:20:51Z</time></trkpt>
<trkpt lat="32.073460000" lon="34.795028000"><ele>17.4</ele><time>2014-05-25T09:20:53Z</time></trkpt>
<trkpt lat="32.073382000" lon="34.794982000"><ele>17.1</ele><time>2014-05-25T09:20:55Z</time></trkpt>
<trkpt lat="32.073286000" lon="34.794930000"><ele>16.8</ele><time>2014-05-25T09:20:57Z</time></trkpt>
<trkpt lat="32.073183000" lon="34.794898000"><ele>16.7</ele><time>2014-05-25T09:20:59Z</time></trkpt>
<trkpt lat="32.073086000" lon="34.794862000"><ele>16.5</ele><time>2014-05-25T09:21:01Z</time></trkpt>
<trkpt lat="32.073006000" lon="34.794827000"><ele>16.4</ele><time>2014-05-25T09:21:03Z</time></trkpt>
<trkpt lat="32.072893000" lon="34.794761000"><ele>16.3</ele><time>2014-05-25T09:21:06Z</time></trkpt>
<trkpt lat="32.072808000" lon="34.794741000"><ele>16.2</ele><time>2014-05-25T09:21:08Z</time></trkpt>
<trkpt lat="32.072728000" lon="34.794694000"><ele>16.1</ele><time>2014-05-25T09:21:11Z</time></trkpt>
<trkpt lat="32.072659000" lon="34.794638000"><ele>16.0</ele><time>2014-05-25T09:21:14Z</time></trkpt>
<trkpt lat="32.072594000" lon="34.794708000"><ele>15.7</ele><time>2014-05-25T09:21:23Z</time></trkpt>
<trkpt lat="32.072555000" lon="34.794802000"><ele>15.4</ele><time>2014-05-25T09:21:40Z</time></trkpt>
<trkpt lat="32.072447000" lon="34.794780000"><ele>15.1</ele><time>2014-05-25T09:21:43Z</time></trkpt>
<trkpt lat="32.072347000" lon="34.794746000"><ele>14.8</ele><time>2014-05-25T09:21:46Z</time></trkpt>
<trkpt lat="32.072256000" lon="34.794709000"><ele>14.5</ele><time>2014-05-25T09:21:49Z</time></trkpt>
<trkpt lat="32.072181000" lon="34.794634000"><ele>14.5</ele><time>2014-05-25T09:21:52Z</time></trkpt>
<trkpt lat="32.072109000" lon="34.794586000"><ele>14.2</ele><time>2014-05-25T09:21:55Z</time></trkpt>
<trkpt lat="32.072022000" lon="34.794526000"><ele>13.9</ele><time>2014-05-25T09:21:59Z</time></trkpt>
<trkpt lat="32.071914000" lon="34.794517000"><ele>13.6</ele><time>2014-05-25T09:22:01Z</time></trkpt>
<trkpt lat="32.071806000" lon="34.794491000"><ele>13.4</ele><time>2014-05-25T09:22:03Z</time></trkpt>
<trkpt lat="32.071719000" lon="34.794463000"><ele>13.5</ele><time>2014-05-25T09:22:05Z</time></trkpt>
<trkpt lat="32.071594000" lon="34.794388000"><ele>13.7</ele><time>2014-05-25T09:22:08Z</time></trkpt>
<trkpt lat="32.071497000" lon="34.794360000"><ele>14.1</ele><time>2014-05-25T09:22:10Z</time></trkpt>
<trkpt lat="32.071420000" lon="34.794316000"><ele>14.5</ele><time>2014-05-25T09:22:12Z</time></trkpt>
<trkpt lat="32.071318000" lon="34.794288000"><ele>14.8</ele><time>2014-05-25T09:22:14Z</time></trkpt>
<trkpt lat="32.071220000" lon="34.794259000"><ele>15.2</ele><time>2014-05-25T09:22:16Z</time></trkpt>
<trkpt lat="32.071121000" lon="34.794206000"><ele>15.5</ele><time>2014-05-25T09:22:19Z</time></trkpt>
<trkpt lat="32.071032000" lon="34.794155000"><ele>15.9</ele><time>2014-05-25T09:22:21Z</time></trkpt>
<trkpt lat="32.070953000" lon="34.794119000"><ele>16.3</ele><time>2014-05-25T09:22:23Z</time></trkpt>
<trkpt lat="32.070875000" lon="34.794084000"><ele>16.6</ele><time>2014-05-25T09:22:25Z</time></trkpt>
<trkpt lat="32.070759000" lon="34.794052000"><ele>17.0</ele><time>2014-05-25T09:22:28Z</time></trkpt>
<trkpt lat="32.070671000" lon="34.794005000"><ele>17.0</ele><time>2014-05-25T09:22:31Z</time></trkpt>
<trkpt lat="32.070579000" lon="34.793984000"><ele>17.0</ele><time>2014-05-25T09:22:34Z</time></trkpt>
<trkpt lat="32.070484000" lon="34.793982000"><ele>17.0</ele><time>2014-05-25T09:22:37Z</time></trkpt>
<trkpt lat="32.070389000" lon="34.793983000"><ele>17.0</ele><time>2014-05-25T09:22:40Z</time></trkpt>
<trkpt lat="32.070286000" lon="34.794011000"><ele>17.0</ele><time>2014-05-25T09:22:43Z</time></trkpt>
<trkpt lat="32.070181000" lon="34.793991000"><ele>17.0</ele><time>2014-05-25T09:22:46Z</time></trkpt>
<trkpt lat="32.070084000" lon="34.793957000"><ele>17.0</ele><time>2014-05-25T09:22:48Z</time></trkpt>
<trkpt lat="32.069996000" lon="34.793935000"><ele>17.0</ele><time>2014-05-25T09:22:50Z</time></trkpt>
<trkpt lat="32.069915000" lon="34.793921000"><ele>17.0</ele><time>2014-05-25T09:22:52Z</time></trkpt>
<trkpt lat="32.069838000" lon="34.793950000"><ele>17.0</ele><time>2014-05-25T09:22:56Z</time></trkpt>
</trkseg>
</trk>
</gpx>
